ftp/pub/palmer/observations_modified/2019/June/AR190426_BASE.txt

Download

Sample DateTime	Unit Id	WS Avg 2min	WD Avg 2min	WGS 10min	WGD 10min	Air Temp	Rel Humidity	Dew Point	Pyranometer	Quantum	Air Pressure	Snow Level	Rainfall	PW Current	Visibility	CBase 1	CBase 2	CBase 3	Vert Vis
2019/04/26 00:00:00	BASE	15.56	44	20.78	50	2.3	79	-0.9	0	0	996.8	NA	0.0000		9999	5350	0	0	0
2019/04/26 00:01:00	BASE	16.83	44	20.47	52	2.3	79	-1.0	0	0	996.8	NA	0.0000		9999	5380	0	0	0
2019/04/26 00:02:00	BASE	17.64	44	21.61	33	2.3	79	-1.0	0	0	996.8	NA	0.0000		9999	6230	0	0	0
2019/04/26 00:03:00	BASE	18.11	43	21.61	33	2.3	79	-1.0	0	0	996.7	NA	0.0000		9999	5710	0	0	0
2019/04/26 00:04:00	BASE	17.53	43	21.61	33	2.3	79	-0.9	0	0	996.7	NA	0.0000		9999	5810	0	0	0
2019/04/26 00:05:00	BASE	16.60	42	21.61	33	2.4	79	-0.9	0	0	996.7	NA	0.0000		9999	6590	0	0	0
2019/04/26 00:06:00	BASE	16.28	41	21.61	33	2.4	79	-0.9	0	0	996.6	NA	0.0000		9999	6690	0	0	0
2019/04/26 00:07:00	BASE	16.26	41	21.61	33	2.4	79	-0.9	0	0	996.6	NA	0.0000		9999	8960	0	0	0
2019/04/26 00:08:00	BASE	16.93	42	21.61	33	2.4	79	-0.9	0	0	996.5	NA	0.0000		9999	8630	0	0	0
2019/04/26 00:09:00	BASE	17.85	43	21.61	33	2.4	79	-0.9	0	0	996.5	NA	0.0000		9999	8200	0	0	0
2019/04/26 00:10:00	BASE	17.50	42	21.61	33	2.4	78	-1.0	0	0	996.5	NA	0.0000		9999	0	0	0	0
2019/04/26 00:11:00	BASE	17.16	39	21.61	33	2.4	78	-1.0	0	0	996.5	NA	0.0000		9999	7050	0	0	0
2019/04/26 00:12:00	BASE	17.15	39	20.78	33	2.4	78	-1.0	0	0	996.5	NA	0.0000		9999	7050	0	0	0
2019/04/26 00:13:00	BASE	17.75	39	22.07	33	2.5	78	-1.0	0	0	996.4	NA	0.0000		9999	7280	0	0	0
2019/04/26 00:14:00	BASE	17.93	38	22.07	33	2.5	78	-1.0	0	0	996.5	NA	0.0000		9999	7190	0	0	0
2019/04/26 00:15:00	BASE	17.47	39	22.07	33	2.5	78	-1.0	0	0	996.4	NA	0.0000		9999	6500	0	0	0
2019/04/26 00:16:00	BASE	18.88	39	22.07	33	2.5	78	-1.0	0	0	996.3	NA	0.0000		9999	6430	0	0	0
2019/04/26 00:17:00	BASE	20.11	41	22.07	33	2.5	78	-1.0	0	0	996.3	NA	0.0000		9999	6590	0	0	0
2019/04/26 00:18:00	BASE	20.22	40	22.28	40	2.5	78	-1.0	0	0	996.3	NA	0.0000		9999	5090	0	0	0
2019/04/26 00:19:00	BASE	19.89	38	23.66	37	2.5	78	-1.0	0	0	996.2	NA	0.0000		9999	4890	0	0	0
2019/04/26 00:20:00	BASE	18.97	39	23.66	37	2.5	78	-1.0	0	0	996.3	NA	0.0000		9999	5150	0	0	0
2019/04/26 00:21:00	BASE	18.07	37	23.66	37	2.6	77	-1.0	0	0	996.2	NA	0.0000		9999	4990	0	0	0
2019/04/26 00:22:00	BASE	19.03	39	23.66	37	2.6	78	-0.9	0	0	996.2	NA	0.0000		9999	5020	0	0	0
2019/04/26 00:23:00	BASE	19.20	38	23.66	37	2.6	78	-0.9	0	0	996.1	NA	0.0000		9999	4990	0	0	0
2019/04/26 00:24:00	BASE	18.61	36	24.74	43	2.6	78	-0.9	0	0	996.1	NA	0.0000		9999	4890	0	0	0
2019/04/26 00:25:00	BASE	20.43	39	24.74	43	2.6	78	-0.8	0	0	996.1	NA	0.0000		9999	4890	0	0	0
2019/04/26 00:26:00	BASE	20.95	38	24.74	43	2.6	78	-0.8	0	0	996.1	NA	0.0000		9999	4820	0	0	0
2019/04/26 00:27:00	BASE	19.54	38	24.74	43	2.6	79	-0.7	0	0	996.1	NA	0.0000		9999	4950	0	0	0
2019/04/26 00:28:00	BASE	19.71	40	24.74	43	2.6	79	-0.7	0	0	996.0	NA	0.0000		9999	5150	0	0	0
2019/04/26 00:29:00	BASE	20.01	37	24.74	43	2.6	79	-0.7	0	0	996.0	NA	0.0000		9999	4690	0	0	0
2019/04/26 00:30:00	BASE	18.93	35	24.74	43	2.5	79	-0.7	0	0	996.0	NA	0.0000		9999	4720	0	0	0
2019/04/26 00:31:00	BASE	19.65	37	24.74	43	2.5	79	-0.7	0	0	995.9	NA	0.0000		9999	4720	0	0	0
2019/04/26 00:32:00	BASE	21.26	40	24.95	44	2.5	79	-0.7	0	0	995.8	NA	0.0000		9999	4760	0	0	0
2019/04/26 00:33:00	BASE	21.84	40	26.13	45	2.5	80	-0.6	0	0	995.9	NA	0.0000		9999	4720	0	0	0
2019/04/26 00:34:00	BASE	20.83	40	26.13	45	2.6	80	-0.6	0	0	995.9	NA	0.0000		9999	4760	0	0	0
2019/04/26 00:35:00	BASE	19.24	39	26.13	45	2.6	80	-0.6	0	0	995.9	NA	0.0000		9999	4690	0	0	0
2019/04/26 00:36:00	BASE	20.28	38	26.13	45	2.6	80	-0.6	0	0	995.8	NA	0.0000		9999	4530	0	0	0
2019/04/26 00:37:00	BASE	22.12	40	26.13	45	2.6	80	-0.5	0	0	995.8	NA	0.0000		9999	4460	0	0	0
2019/04/26 00:38:00	BASE	20.78	39	26.13	45	2.7	80	-0.5	0	0	995.9	NA	0.0000		9999	4460	0	0	0
2019/04/26 00:39:00	BASE	20.62	37	26.13	45	2.7	80	-0.5	0	0	995.9	NA	0.0000		9999	4560	0	0	0
2019/04/26 00:40:00	BASE	19.72	35	26.13	45	2.7	80	-0.4	0	0	995.9	NA	0.0000		9999	4490	0	0	0
2019/04/26 00:41:00	BASE	17.93	35	26.13	45	2.7	80	-0.4	0	0	995.9	NA	0.0000		9999	4430	0	0	0
2019/04/26 00:42:00	BASE	21.05	38	26.13	45	2.7	80	-0.3	0	0	995.8	NA	0.0000		9999	4490	0	0	0
2019/04/26 00:43:00	BASE	23.65	41	26.96	36	2.7	80	-0.3	0	0	995.7	NA	0.0000		9999	4430	0	0	0
2019/04/26 00:44:00	BASE	22.08	40	26.96	36	2.8	80	-0.3	0	0	995.8	NA	0.0000		9999	4430	0	0	0
2019/04/26 00:45:00	BASE	20.32	37	26.96	36	2.8	80	-0.3	0	0	995.8	NA	0.0000		9999	4270	0	0	0
2019/04/26 00:46:00	BASE	21.34	35	26.96	36	2.8	81	-0.2	0	0	995.7	NA	0.0000		9999	5580	0	0	0
2019/04/26 00:47:00	BASE	22.94	35	27.11	27	2.8	81	-0.2	0	0	995.7	NA	0.0000		9999	4490	0	0	0
2019/04/26 00:48:00	BASE	23.15	34	27.11	27	2.8	81	-0.2	0	0	995.7	NA	0.0000		9999	5580	0	0	0
2019/04/26 00:49:00	BASE	22.56	32	27.11	27	2.8	81	-0.2	0	0	995.7	NA	0.0000		9999	5410	0	0	0
2019/04/26 00:50:00	BASE	21.78	31	27.11	27	2.8	81	-0.2	0	0	995.8	NA	0.0000		9999	5320	0	0	0
2019/04/26 00:51:00	BASE	21.21	32	27.11	27	2.8	81	-0.2	0	0	995.8	NA	0.0000		9999	5220	0	0	0
2019/04/26 00:52:00	BASE	20.46	33	27.11	27	2.8	81	-0.1	0	0	995.7	NA	0.0000		9999	4560	0	0	0
2019/04/26 00:53:00	BASE	19.62	33	27.11	27	2.7	81	-0.1	0	0	995.7	NA	0.0000		9999	4330	0	0	0
2019/04/26 00:54:00	BASE	19.03	32	27.11	27	2.7	82	-0.1	0	0	995.7	NA	0.0000		9999	4330	0	0	0
2019/04/26 00:55:00	BASE	19.22	32	27.11	27	2.7	82	-0.0	0	0	995.7	NA	0.0000		9999	4270	0	0	0
2019/04/26 00:56:00	BASE	19.46	32	27.11	27	2.7	83	0.0	0	0	995.7	NA	0.0000		9999	4270	0	0	0
2019/04/26 00:57:00	BASE	18.89	32	24.90	26	2.7	83	0.1	0	0	995.7	NA	0.0000		9999	4170	0	0	0
2019/04/26 00:58:00	BASE	18.83	32	24.90	26	2.7	83	0.1	0	0	995.7	NA	0.0000		9999	4920	0	0	0
2019/04/26 00:59:00	BASE	18.62	33	23.72	34	2.7	83	0.2	0	0	995.7	NA	0.0000		9999	4170	0	0	0
2019/04/26 01:00:00	BASE	18.43	33	23.72	34	2.7	84	0.2	0	0	995.6	NA	0.0000		9999	4130	0	0	0
2019/04/26 01:01:00	BASE	18.15	32	22.28	31	2.8	84	0.3	0	0	995.6	NA	0.0000		9999	4890	0	0	0
2019/04/26 01:02:00	BASE	17.30	31	22.28	31	2.8	84	0.3	0	0	995.7	NA	0.0000		9999	4920	0	0	0
2019/04/26 01:03:00	BASE	16.89	29	21.40	39	2.8	84	0.4	0	0	995.7	NA	0.0000		9999	4560	0	0	0
2019/04/26 01:04:00	BASE	16.44	29	21.40	39	2.8	84	0.4	0	0	995.7	NA	0.0000		9999	3940	0	0	0
2019/04/26 01:05:00	BASE	15.53	29	21.35	35	2.8	84	0.4	0	0	995.7	NA	0.0000		9999	3840	0	0	0
2019/04/26 01:06:00	BASE	15.69	29	21.25	33	2.8	84	0.4	0	0	995.7	NA	0.0000		9999	3970	0	0	0
2019/04/26 01:07:00	BASE	15.93	31	21.25	33	2.8	84	0.4	0	0	995.6	NA	0.0000		9999	3940	0	0	0
2019/04/26 01:08:00	BASE	15.20	34	21.25	33	2.9	84	0.5	0	0	995.6	NA	0.0000		9999	4820	0	0	0
2019/04/26 01:09:00	BASE	14.89	34	21.25	33	2.9	84	0.5	0	0	995.6	NA	0.0000		9999	4760	0	0	0
2019/04/26 01:10:00	BASE	13.97	35	19.03	36	3.0	84	0.5	0	0	995.7	NA	0.0000		9999	4890	0	0	0
2019/04/26 01:11:00	BASE	14.17	36	18.88	34	3.0	84	0.6	0	0	995.6	NA	0.0000		9999	4040	0	0	0
2019/04/26 01:12:00	BASE	14.40	35	18.88	34	3.0	84	0.6	0	0	995.6	NA	0.0000		9999	4000	0	0	0
2019/04/26 01:13:00	BASE	13.25	34	17.95	35	3.0	84	0.6	0	0	995.6	NA	0.0000		9999	4070	0	0	0
2019/04/26 01:14:00	BASE	13.45	34	17.95	35	3.0	84	0.6	0	0	995.5	NA	0.0000		9999	4200	0	0	0
2019/04/26 01:15:00	BASE	13.43	30	17.34	36	3.0	84	0.6	0	0	995.5	NA	0.0000		9999	4790	0	0	0
2019/04/26 01:16:00	BASE	13.40	27	17.18	35	3.0	84	0.5	0	0	995.5	NA	0.0000		9999	4360	0	0	0
2019/04/26 01:17:00	BASE	13.41	30	16.57	37	3.0	83	0.5	0	0	995.5	NA	0.0000		9999	4200	0	0	0
2019/04/26 01:18:00	BASE	12.78	30	16.57	37	3.0	84	0.5	0	0	995.5	NA	0.0000		9999	3940	0	0	0
2019/04/26 01:19:00	BASE	12.87	30	16.57	37	3.0	83	0.5	0	0	995.5	NA	0.0000		9999	3810	0	0	0
2019/04/26 01:20:00	BASE	12.49	29	16.57	37	3.0	83	0.5	0	0	995.5	NA	0.0000		9999	3670	0	0	0
2019/04/26 01:21:00	BASE	11.65	28	15.48	27	3.0	83	0.5	0	0	995.5	NA	0.0000		9999	3580	0	0	0
2019/04/26 01:22:00	BASE	11.74	32	15.48	27	3.0	83	0.5	0	0	995.5	NA	0.0000		9999	3580	0	0	0
2019/04/26 01:23:00	BASE	11.92	33	15.48	27	3.0	83	0.5	0	0	995.4	NA	0.0000		9999	3770	0	0	0
2019/04/26 01:24:00	BASE	12.44	31	15.48	27	3.0	84	0.5	0	0	995.4	NA	0.0000		9999	3840	0	0	0
2019/04/26 01:25:00	BASE	12.62	29	15.48	27	3.0	84	0.5	0	0	995.4	NA	0.0000		9999	3940	0	0	0
2019/04/26 01:26:00	BASE	12.43	31	15.48	27	3.0	84	0.6	0	0	995.4	NA	0.0000		9999	3900	0	0	0
2019/04/26 01:27:00	BASE	12.73	34	15.02	28	3.0	84	0.6	0	0	995.4	NA	0.0000		9999	4000	0	0	0
2019/04/26 01:28:00	BASE	12.23	33	15.02	28	3.0	85	0.7	0	0	995.4	NA	0.0000		9999	4000	0	0	0
2019/04/26 01:29:00	BASE	11.53	33	15.02	28	3.0	85	0.7	0	0	995.4	NA	0.0000		9999	4170	0	0	0
2019/04/26 01:30:00	BASE	11.51	32	15.02	28	3.0	85	0.7	0	0	995.4	NA	0.0000		9999	4000	0	0	0
2019/04/26 01:31:00	BASE	10.61	33	15.02	28	3.0	85	0.8	0	0	995.4	NA	0.0000		9999	3940	0	0	0
2019/04/26 01:32:00	BASE	9.84	33	15.02	28	2.9	86	0.8	0	0	995.4	NA	0.0000		9999	3970	0	0	0
2019/04/26 01:33:00	BASE	10.76	32	15.02	28	2.9	86	0.8	0	0	995.4	NA	0.0000		9999	3840	0	0	0
2019/04/26 01:34:00	BASE	10.69	32	15.02	28	2.9	86	0.9	0	0	995.4	NA	0.0000		9999	3810	0	0	0
2019/04/26 01:35:00	BASE	10.27	34	15.02	28	2.9	87	0.9	0	0	995.4	NA	0.0000		9999	3610	0	0	0
2019/04/26 01:36:00	BASE	11.44	33	14.82	29	2.9	87	1.0	0	0	995.4	NA	0.0000		9999	0	0	0	3840
2019/04/26 01:37:00	BASE	11.94	30	13.74	27	2.9	87	1.0	0	0	995.3	NA	0.0000		9999	3580	0	0	0
2019/04/26 01:38:00	BASE	11.62	30	13.74	27	2.9	88	1.1	0	0	995.3	NA	0.0000		9999	3380	0	0	0
2019/04/26 01:39:00	BASE	11.88	30	13.74	27	2.9	88	1.1	0	0	995.3	NA	0.0000		9999	3350	0	0	0
2019/04/26 01:40:00	BASE	12.48	29	13.74	27	2.9	88	1.1	0	0	995.3	NA	0.0000		9999	0	0	0	3670
2019/04/26 01:41:00	BASE	11.49	31	13.74	27	2.9	88	1.2	0	0	995.3	NA	0.0000		9999	3770	0	0	0
2019/04/26 01:42:00	BASE	10.33	31	13.74	27	2.9	88	1.2	0	0	995.3	NA	0.0000		9999	3900	0	0	0
2019/04/26 01:43:00	BASE	10.74	33	13.84	37	2.8	89	1.1	0	0	995.3	NA	0.0000		9999	3310	0	0	0
2019/04/26 01:44:00	BASE	11.03	35	13.84	37	2.8	89	1.2	0	0	995.3	NA	0.0000		9999	3580	0	0	0
2019/04/26 01:45:00	BASE	10.69	34	13.84	37	2.8	89	1.2	0	0	995.3	NA	0.0000		9999	0	0	0	3450
2019/04/26 01:46:00	BASE	10.08	36	13.84	37	2.8	90	1.3	0	0	995.3	NA	0.0000		9999	0	0	0	3310
2019/04/26 01:47:00	BASE	10.13	35	13.84	37	2.8	90	1.3	0	0	995.3	NA	0.0000		9999	0	0	0	3350
2019/04/26 01:48:00	BASE	10.47	36	13.84	37	2.8	91	1.4	0	0	995.3	NA	0.0000		9999	0	0	0	3350
2019/04/26 01:49:00	BASE	9.88	41	13.84	37	2.8	91	1.4	0	0	995.3	NA	0.0000		9999	0	0	0	3310
2019/04/26 01:50:00	BASE	9.22	42	13.84	37	2.8	91	1.5	0	0	995.3	NA	0.0000	UP	9999	0	0	0	3310
2019/04/26 01:51:00	BASE	8.81	41	13.84	37	2.8	91	1.5	0	0	995.3	NA	0.0000	UP	9999	0	0	0	3380
2019/04/26 01:52:00	BASE	8.91	41	13.84	37	2.7	92	1.5	0	0	995.3	NA	0.0000	UP	9999	0	0	0	3250
2019/04/26 01:53:00	BASE	10.05	41	12.50	31	2.7	92	1.5	0	0	995.3	NA	0.0000	UP	9999	0	0	0	3310
2019/04/26 01:54:00	BASE	10.06	39	12.04	45	2.7	92	1.6	0	0	995.3	NA	0.0000	UP	9999	0	0	0	3150
2019/04/26 01:55:00	BASE	9.29	40	12.55	35	2.7	93	1.6	0	0	995.3	NA	0.0000	UP	9999	0	0	0	2850
2019/04/26 01:56:00	BASE	9.66	40	12.55	35	2.7	93	1.7	0	0	995.2	NA	0.0000	UP	9999	0	0	0	2990
2019/04/26 01:57:00	BASE	10.18	41	12.55	35	2.7	93	1.7	0	0	995.2	NA	0.0000	UP	9999	0	0	0	3310
2019/04/26 01:58:00	BASE	11.05	46	13.63	41	2.7	94	1.8	0	0	995.2	NA	0.0000	UP	9999	0	0	0	3380
2019/04/26 01:59:00	BASE	10.97	48	13.63	41	2.7	94	1.8	0	0	995.2	NA	0.0000	UP	9999	0	0	0	3120
2019/04/26 02:00:00	BASE	10.01	49	13.63	41	2.7	94	1.8	0	0	995.2	NA	0.0000	UP	9999	0	0	0	2990
2019/04/26 02:01:00	BASE	9.97	48	13.63	41	2.7	94	1.9	0	0	995.3	NA	0.0000	UP	9999	0	0	0	3380
2019/04/26 02:02:00	BASE	9.90	47	13.63	41	2.7	95	1.9	0	0	995.3	NA	0.0000	UP	9999	0	0	0	3510
2019/04/26 02:03:00	BASE	9.87	48	13.63	41	2.7	95	1.9	0	0	995.2	NA	0.0000	UP	9999	0	0	0	3580
2019/04/26 02:04:00	BASE	9.87	50	13.63	41	2.7	95	2.0	0	0	995.2	NA	0.0000	UP	9999	0	0	0	3580
2019/04/26 02:05:00	BASE	9.16	49	13.63	41	2.6	96	2.0	0	0	995.2	NA	0.0000	UP	9999	3450	0	0	0
2019/04/26 02:06:00	BASE	9.16	42	13.63	41	2.6	96	2.0	0	0	995.2	NA	0.0000	UP	9999	2920	0	0	0
2019/04/26 02:07:00	BASE	9.35	38	13.63	41	2.6	96	2.1	0	0	995.2	NA	0.0000	UP	9999	2890	0	0	0
2019/04/26 02:08:00	BASE	8.93	42	12.04	50	2.6	97	2.1	0	0	995.2	NA	0.0000	UP	9999	3050	0	0	0
2019/04/26 02:09:00	BASE	8.82	46	12.04	50	2.6	97	2.2	0	0	995.2	NA	0.0000	UP	9999	2920	0	0	0
2019/04/26 02:10:00	BASE	8.34	53	12.04	50	2.6	97	2.2	0	0	995.2	NA	0.0000	UP	9999	2850	0	0	0
2019/04/26 02:11:00	BASE	7.74	61	11.57	42	2.6	98	2.3	0	0	995.1	NA	0.0000		9999	2820	0	0	0
2019/04/26 02:12:00	BASE	7.89	50	11.57	42	2.7	98	2.3	0	0	995.1	NA	0.0000		9999	2760	0	0	0
2019/04/26 02:13:00	BASE	7.35	46	11.52	38	2.7	98	2.4	0	0	995.2	NA	0.0000		9999	2760	0	0	0
2019/04/26 02:14:00	BASE	7.31	51	11.52	38	2.7	98	2.4	0	0	995.2	NA	0.0000		9999	2760	4530	0	0
2019/04/26 02:15:00	BASE	6.51	49	10.96	24	2.8	98	2.4	0	0	995.2	NA	0.0000		9999	2660	0	0	0
2019/04/26 02:16:00	BASE	5.31	50	10.75	14	2.8	97	2.4	0	0	995.2	NA	0.0000		9999	2660	0	0	0
2019/04/26 02:17:00	BASE	5.03	42	10.44	42	2.8	97	2.4	0	0	995.2	NA	0.0000		9999	2560	0	0	0
2019/04/26 02:18:00	BASE	4.01	44	10.19	39	2.8	97	2.3	0	0	995.2	NA	0.0000		9999	3480	0	0	0
2019/04/26 02:19:00	BASE	3.98	64	9.77	48	2.8	97	2.3	0	0	995.2	NA	0.0000		9999	3510	7640	0	0
2019/04/26 02:20:00	BASE	4.61	48	9.77	48	2.8	96	2.3	0	0	995.2	NA	0.0000		9999	3510	7610	0	0
2019/04/26 02:21:00	BASE	5.10	33	10.70	55	2.8	96	2.3	0	0	995.1	NA	0.0000		9999	7680	0	0	0
2019/04/26 02:22:00	BASE	7.45	37	12.40	24	2.8	96	2.2	0	0	995.0	NA	0.0000		9999	7680	0	0	0
2019/04/26 02:23:00	BASE	10.75	29	15.69	45	2.8	96	2.3	0	0	995.0	NA	0.0000		9999	7420	0	0	0
2019/04/26 02:24:00	BASE	12.23	31	15.69	45	2.8	97	2.3	0	0	994.9	NA	0.0000		9999	7640	0	0	0
2019/04/26 02:25:00	BASE	13.13	30	15.95	34	2.8	97	2.3	0	0	994.8	NA	0.0000		9999	4990	7640	0	0
2019/04/26 02:26:00	BASE	13.68	31	15.95	34	2.8	97	2.4	0	0	994.9	NA	0.0000		9999	7680	0	0	0
2019/04/26 02:27:00	BASE	13.63	31	15.95	34	2.8	97	2.4	0	0	994.9	NA	0.0000		9999	7740	0	0	0
2019/04/26 02:28:00	BASE	13.49	30	15.95	34	2.8	97	2.4	0	0	994.9	NA	0.0000		9999	7780	0	0	0
2019/04/26 02:29:00	BASE	14.33	32	16.67	30	2.8	97	2.4	0	0	994.9	NA	0.0000		9999	3740	4890	7840	0
2019/04/26 02:30:00	BASE	14.45	34	16.67	30	2.8	97	2.4	0	0	994.9	NA	0.0000		9999	3740	4890	0	0
2019/04/26 02:31:00	BASE	13.07	38	16.67	30	2.8	97	2.4	0	0	994.9	NA	0.0000		9999	3810	4950	0	0
2019/04/26 02:32:00	BASE	12.77	40	16.67	30	2.8	97	2.4	0	0	994.9	NA	0.0000		9999	3970	5150	0	0
2019/04/26 02:33:00	BASE	11.79	41	16.67	30	2.8	97	2.4	0	0	995.0	NA	0.0000		9999	3080	8010	0	0
2019/04/26 02:34:00	BASE	10.66	41	16.67	30	2.8	97	2.4	0	0	995.0	NA	0.0000		9999	2850	3710	4200	0
2019/04/26 02:35:00	BASE	10.67	38	16.67	30	2.8	97	2.4	0	0	994.9	NA	0.0000		9999	2690	0	0	0
2019/04/26 02:36:00	BASE	10.75	38	16.67	30	2.8	97	2.4	0	0	994.9	NA	0.0000		9999	2690	0	0	0
2019/04/26 02:37:00	BASE	10.27	39	16.67	30	2.9	97	2.4	0	0	994.9	NA	0.0000		9999	2460	0	0	0
2019/04/26 02:38:00	BASE	9.49	41	16.67	30	2.9	97	2.4	0	0	994.9	NA	0.0000		9999	2460	0	0	0
2019/04/26 02:39:00	BASE	10.24	37	15.54	24	2.8	97	2.4	0	0	994.9	NA	0.0000		9999	1940	0	0	0
2019/04/26 02:40:00	BASE	10.24	34	14.61	41	2.9	96	2.3	0	0	994.9	NA	0.0000		9999	3350	0	0	0
2019/04/26 02:41:00	BASE	9.48	30	14.61	41	2.8	96	2.3	0	0	994.9	NA	0.0000		9999	2430	0	0	0
2019/04/26 02:42:00	BASE	9.71	27	12.81	37	2.8	96	2.3	0	0	994.9	NA	0.0000		9999	2430	0	0	0
2019/04/26 02:43:00	BASE	9.52	31	12.81	37	2.8	97	2.4	0	0	994.9	NA	0.0000		9999	2360	0	0	0
2019/04/26 02:44:00	BASE	9.44	33	12.81	37	2.9	97	2.4	0	0	994.9	NA	0.0000		9999	2620	0	0	0
2019/04/26 02:45:00	BASE	8.59	32	12.66	27	2.9	97	2.4	0	0	994.9	NA	0.0000		9999	3220	0	0	0
2019/04/26 02:46:00	BASE	7.57	31	12.66	27	2.9	97	2.4	0	0	994.9	NA	0.0000		9999	3670	0	0	0
2019/04/26 02:47:00	BASE	8.04	34	12.35	27	2.9	97	2.5	0	0	994.8	NA	0.0000		9999	2890	0	0	0
2019/04/26 02:48:00	BASE	8.12	31	12.35	27	2.8	97	2.5	0	0	994.8	NA	0.0000		9999	2720	0	0	0
2019/04/26 02:49:00	BASE	8.73	27	12.35	27	2.8	98	2.5	0	0	994.7	NA	0.0000		9999	3150	0	0	0
2019/04/26 02:50:00	BASE	9.46	28	12.35	27	2.8	98	2.5	0	0	994.7	NA	0.0000		9999	2530	0	0	0
2019/04/26 02:51:00	BASE	9.39	29	12.35	27	2.8	98	2.5	0	0	994.7	NA	0.0000		9999	2690	0	0	0
2019/04/26 02:52:00	BASE	9.08	32	11.88	45	2.8	98	2.5	0	0	994.7	NA	0.0000		9999	2560	0	0	0
2019/04/26 02:53:00	BASE	8.37	35	11.88	45	2.8	98	2.6	0	0	994.7	NA	0.0000		9999	2590	0	0	0
2019/04/26 02:54:00	BASE	7.56	38	11.57	26	2.8	99	2.6	0	0	994.6	NA	0.0000		9999	2720	0	0	0
2019/04/26 02:55:00	BASE	8.22	42	11.57	26	2.8	99	2.6	0	0	994.6	NA	0.0000		9999	2790	0	0	0
2019/04/26 02:56:00	BASE	9.94	41	13.17	42	2.8	99	2.6	0	0	994.5	NA	0.0000		9999	2260	2820	0	0
2019/04/26 02:57:00	BASE	9.98	39	13.17	42	2.8	99	2.6	0	0	994.4	NA	0.0000		9999	2850	0	0	0
2019/04/26 02:58:00	BASE	10.06	37	13.17	42	2.8	99	2.6	0	0	994.4	NA	0.0000		9999	2850	0	0	0
2019/04/26 02:59:00	BASE	10.56	34	13.17	42	2.8	99	2.6	0	0	994.4	NA	0.0000		9999	2990	0	0	0
2019/04/26 03:00:00	BASE	10.21	34	13.17	42	2.8	99	2.7	0	0	994.4	NA	0.0000		9999	2950	0	0	0
2019/04/26 03:01:00	BASE	10.03	35	13.17	42	2.8	99	2.7	0	0	994.4	NA	0.0000		9999	3020	0	0	0
2019/04/26 03:02:00	BASE	10.59	37	13.68	33	2.9	99	2.7	0	0	994.4	NA	0.0000		9999	3020	0	0	0
2019/04/26 03:03:00	BASE	10.58	40	13.68	33	2.9	99	2.7	0	0	994.3	NA	0.0000		9999	2950	0	0	0
2019/04/26 03:04:00	BASE	10.61	41	13.68	33	2.9	98	2.7	0	0	994.3	NA	0.0000		9999	2950	0	0	0
2019/04/26 03:05:00	BASE	10.94	40	13.68	33	2.9	98	2.6	0	0	994.3	NA	0.0000		9999	3080	0	0	0
2019/04/26 03:06:00	BASE	10.75	41	13.68	33	2.9	98	2.6	0	0	994.2	NA	0.0000		9999	3120	10340	0	0
2019/04/26 03:07:00	BASE	10.82	42	13.68	33	2.9	98	2.6	0	0	994.2	NA	0.0000		9999	3180	10300	0	0
2019/04/26 03:08:00	BASE	10.74	39	13.68	33	2.9	98	2.6	0	0	994.1	NA	0.0000		9999	3220	10200	0	0
2019/04/26 03:09:00	BASE	10.69	37	13.68	33	2.9	98	2.6	0	0	994.1	NA	0.0000		9999	3410	10200	0	0
2019/04/26 03:10:00	BASE	11.16	35	13.68	33	2.8	98	2.6	0	0	994.1	NA	0.0000		9999	10140	0	0	0
2019/04/26 03:11:00	BASE	11.69	37	13.89	36	2.8	98	2.6	0	0	994.1	NA	0.0000		9999	2920	10070	0	0
2019/04/26 03:12:00	BASE	11.63	35	14.40	26	2.8	99	2.6	0	0	994.1	NA	0.0000		9999	3020	10070	10700	0
2019/04/26 03:13:00	BASE	11.51	31	14.40	26	2.8	99	2.7	0	0	994.1	NA	0.0000		9999	2990	0	0	0
2019/04/26 03:14:00	BASE	10.77	30	14.40	26	2.9	99	2.7	0	0	994.1	NA	0.0000		9999	2990	0	0	0
2019/04/26 03:15:00	BASE	10.35	27	14.40	26	2.9	99	2.7	0	0	994.1	NA	0.0000		9999	2950	0	0	0
2019/04/26 03:16:00	BASE	11.59	24	14.40	26	2.9	99	2.7	0	0	994.1	NA	0.0000		9999	2950	0	0	0
2019/04/26 03:17:00	BASE	12.06	25	14.40	26	2.9	99	2.7	0	0	994.1	NA	0.0000		9999	2590	0	0	0
2019/04/26 03:18:00	BASE	12.22	27	14.92	19	2.9	99	2.7	0	0	994.0	NA	0.0000		9999	2890	0	0	0
2019/04/26 03:19:00	BASE	13.34	26	15.18	26	2.9	99	2.7	0	0	993.9	NA	0.0000		9999	2850	0	0	0
2019/04/26 03:20:00	BASE	12.80	28	15.18	26	2.9	99	2.7	0	0	993.9	NA	0.0000		9999	2560	0	0	0
2019/04/26 03:21:00	BASE	11.09	29	15.18	26	2.8	99	2.7	0	0	993.9	NA	0.0000		9999	2620	0	0	0
2019/04/26 03:22:00	BASE	10.90	28	15.18	26	2.8	99	2.7	0	0	993.8	NA	0.0000		9999	2620	0	0	0
2019/04/26 03:23:00	BASE	11.29	30	15.18	26	2.8	99	2.7	0	0	993.8	NA	0.0000		9999	2590	3220	9740	0
2019/04/26 03:24:00	BASE	10.20	33	15.18	26	2.8	99	2.7	0	0	993.8	NA	0.0000		9999	2690	0	0	0
2019/04/26 03:25:00	BASE	8.52	35	15.18	26	2.8	99	2.7	0	0	993.7	NA	0.0000		9999	2660	3220	9740	0
2019/04/26 03:26:00	BASE	8.24	34	15.18	26	2.8	99	2.6	0	0	993.7	NA	0.0000		9999	3120	9740	0	0
2019/04/26 03:27:00	BASE	8.28	33	15.18	26	2.7	99	2.6	0	0	993.7	NA	0.0000		9999	2790	0	0	0
2019/04/26 03:28:00	BASE	8.84	38	15.18	26	2.7	99	2.6	0	0	993.7	NA	0.0000		9999	3120	0	0	0
2019/04/26 03:29:00	BASE	9.56	41	14.35	29	2.7	100	2.6	0	0	993.7	NA	0.0000		9999	3150	0	0	0
2019/04/26 03:30:00	BASE	10.02	38	14.35	29	2.7	100	2.7	0	0	993.7	NA	0.0000		9999	3150	9680	0	0
2019/04/26 03:31:00	BASE	10.33	37	14.35	29	2.7	100	2.7	0	0	993.7	NA	0.0000		9999	3150	9610	0	0
2019/04/26 03:32:01	BASE	9.54	36	14.35	29	2.7	100	2.7	0	0	993.6	NA	0.0000		9999	3120	9680	0	0
2019/04/26 03:33:01	BASE	8.58	47	12.09	37	2.7	100	2.7	0	0	993.6	NA	0.0000		9999	9510	0	0	0
2019/04/26 03:34:00	BASE	8.31	59	12.09	37	2.8	100	2.8	0	0	993.5	NA	0.0000		9999	3150	9610	0	0
2019/04/26 03:35:00	BASE	7.61	61	12.09	37	2.8	100	2.8	0	0	993.5	NA	0.0000		9999	3120	9680	0	0
2019/04/26 03:36:01	BASE	7.46	57	12.09	37	2.8	100	2.8	0	0	993.5	NA	0.0000		9999	3080	9650	0	0
2019/04/26 03:37:01	BASE	7.34	53	12.09	37	2.8	100	2.8	0	0	993.5	NA	0.0000		9999	3050	9580	0	0
2019/04/26 03:38:01	BASE	8.26	49	12.35	37	2.8	99	2.8	0	0	993.4	NA	0.0000		9999	3050	9550	0	0
2019/04/26 03:39:01	BASE	9.48	43	12.35	37	2.8	99	2.7	0	0	993.4	NA	0.0000		9999	3050	9510	0	0
2019/04/26 03:40:01	BASE	8.24	44	12.35	37	2.8	99	2.7	0	0	993.5	NA	0.0000		9999	3150	9480	0	0
2019/04/26 03:41:01	BASE	6.96	43	12.35	37	2.8	99	2.7	0	0	993.5	NA	0.0000		9999	2990	9510	0	0
2019/04/26 03:42:01	BASE	6.14	50	12.35	37	2.8	99	2.7	0	0	993.5	NA	0.0000		9999	2820	0	0	0
2019/04/26 03:43:01	BASE	5.44	67	12.35	37	2.8	99	2.7	0	0	993.5	NA	0.0000		9999	2660	0	0	0
2019/04/26 03:44:01	BASE	5.77	63	12.35	37	2.8	99	2.7	0	0	993.5	NA	0.0000		9999	2690	0	0	0
2019/04/26 03:45:01	BASE	6.34	57	12.35	37	2.8	99	2.7	0	0	993.5	NA	0.0000		9999	2720	0	0	0
2019/04/26 03:46:01	BASE	6.55	71	12.35	37	2.8	99	2.7	0	0	993.4	NA	0.0000		9999	3020	9510	0	0
2019/04/26 03:47:01	BASE	7.02	77	12.35	37	2.8	99	2.6	0	0	993.5	NA	0.0000		9999	2530	9510	0	0
2019/04/26 03:48:01	BASE	5.89	60	11.99	28	2.8	98	2.6	0	0	993.5	NA	0.0000		9999	2360	3220	0	0
2019/04/26 03:49:01	BASE	4.71	44	8.80	51	2.8	98	2.6	0	0	993.5	NA	0.0000		9999	2430	2920	9580	0
2019/04/26 03:50:01	BASE	4.40	47	8.80	51	2.8	98	2.6	0	0	993.5	NA	0.0000		9999	2590	3380	9450	0
2019/04/26 03:51:01	BASE	4.72	41	8.80	51	2.8	98	2.5	0	0	993.5	NA	0.0000		9999	2360	3280	9420	0
2019/04/26 03:52:01	BASE	5.79	25	8.80	51	2.8	98	2.5	0	0	993.5	NA	0.0000		9999	3280	9350	0	0
2019/04/26 03:53:01	BASE	5.39	38	8.80	51	2.8	98	2.5	0	0	993.5	NA	0.0000		9999	3120	9250	0	0
2019/04/26 03:54:01	BASE	5.10	52	8.80	51	2.8	98	2.5	0	0	993.5	NA	0.0000		9999	9190	0	0	0
2019/04/26 03:55:01	BASE	5.13	56	8.80	51	2.8	98	2.5	0	0	993.5	NA	0.0000		9999	8990	0	0	0
2019/04/26 03:56:01	BASE	6.87	61	10.44	80	2.8	98	2.5	0	0	993.5	NA	0.0000		9999	2950	9190	0	0
2019/04/26 03:57:01	BASE	9.58	57	14.40	47	2.8	98	2.5	0	0	993.5	NA	0.0000		9999	3020	9060	0	0
2019/04/26 03:58:01	BASE	9.26	57	14.40	47	2.8	98	2.6	0	0	993.5	NA	0.0000		9999	2850	8730	0	0
2019/04/26 03:59:01	BASE	8.59	62	14.40	47	2.9	98	2.6	0	0	993.5	NA	0.0000		9999	2590	8920	0	0
2019/04/26 04:00:01	BASE	8.71	64	14.40	47	2.9	98	2.6	0	0	993.5	NA	0.0000		9999	8760	0	0	0
2019/04/26 04:01:01	BASE	8.19	59	14.40	47	3.0	98	2.6	0	0	993.5	NA	0.0000		9999	2920	8960	0	0
2019/04/26 04:02:01	BASE	8.06	58	14.40	47	2.9	98	2.6	0	0	993.5	NA	0.0000		9999	3080	9060	0	0
2019/04/26 04:03:01	BASE	8.09	63	14.40	47	3.0	97	2.6	0	0	993.5	NA	0.0000		9999	2620	0	0	0
2019/04/26 04:04:01	BASE	6.93	78	14.40	47	3.0	97	2.6	0	0	993.5	NA	0.0000		9999	2490	0	0	0
2019/04/26 04:05:01	BASE	7.51	93	14.40	47	3.0	97	2.6	0	0	993.5	NA	0.0000		9999	2660	0	0	0
2019/04/26 04:06:01	BASE	9.71	83	14.97	59	3.0	97	2.5	0	0	993.5	NA	0.0000		9999	2660	0	0	0
2019/04/26 04:08:00	BASE	8.91	65	14.97	59	3.1	96	2.6	0	0	993.6	NA	0.0000		9999	2430	0	0	0
2019/04/26 04:09:00	BASE	6.64	73	14.97	59	3.1	96	2.5	0	0	993.6	NA	0.0000		9999	2620	0	0	0
2019/04/26 04:10:00	BASE	8.24	69	14.97	59	3.0	96	2.5	0	0	993.7	NA	0.0000		9999	2660	0	0	0
2019/04/26 04:11:00	BASE	9.71	61	14.97	59	3.0	96	2.5	0	0	993.7	NA	0.0000		9999	2260	0	0	0
2019/04/26 04:12:00	BASE	9.19	63	14.97	59	3.0	96	2.5	0	0	993.6	NA	0.0000		9999	2200	0	0	0
2019/04/26 04:13:00	BASE	9.63	67	14.97	59	3.0	96	2.5	0	0	993.6	NA	0.0000		9999	2130	0	0	0
2019/04/26 04:14:00	BASE	8.95	64	14.97	59	3.0	96	2.5	0	0	993.7	NA	0.0000		9999	2000	0	0	0
2019/04/26 04:15:00	BASE	7.41	62	14.97	59	3.0	96	2.5	0	0	993.7	NA	0.0000		9999	2000	0	0	0
2019/04/26 04:16:00	BASE	7.99	71	14.97	59	3.0	96	2.4	0	0	993.6	NA	0.0000		9999	1970	0	0	0
2019/04/26 04:17:00	BASE	9.40	74	13.17	67	3.0	96	2.4	0	0	993.6	NA	0.0000		9999	1970	0	0	0
2019/04/26 04:18:00	BASE	9.69	68	13.17	67	2.9	97	2.4	0	0	993.6	NA	0.0000		9999	1940	0	0	0
2019/04/26 04:19:00	BASE	10.57	65	13.94	48	2.9	97	2.4	0	0	993.6	NA	0.0000		9999	1800	0	0	0
2019/04/26 04:20:00	BASE	10.17	63	13.94	48	2.9	97	2.5	0	0	993.6	NA	0.0000		9999	2000	0	0	0
2019/04/26 04:21:00	BASE	8.54	72	13.94	48	2.9	97	2.4	0	0	993.6	NA	0.0000		9999	1970	0	0	0
2019/04/26 04:22:00	BASE	9.13	69	13.94	48	2.9	97	2.4	0	0	993.6	NA	0.0000		9999	2030	0	0	0
2019/04/26 04:23:00	BASE	9.10	53	13.94	48	2.8	97	2.4	0	0	993.6	NA	0.0000		9999	2000	5410	0	0
2019/04/26 04:24:00	BASE	8.90	65	13.94	48	2.8	97	2.4	0	0	993.5	NA	0.0000		9999	2000	5220	0	0
2019/04/26 04:25:00	BASE	10.78	70	14.35	51	2.8	97	2.4	0	0	993.4	NA	0.0000		9999	1940	5220	0	0
2019/04/26 04:26:00	BASE	12.32	65	14.46	78	2.8	97	2.4	0	0	993.4	NA	0.0000		9999	5150	0	0	0
2019/04/26 04:27:00	BASE	12.52	62	15.18	56	2.8	97	2.4	0	0	993.4	NA	0.0000		9999	5050	0	0	0
2019/04/26 04:28:00	BASE	11.69	52	15.18	56	2.8	97	2.4	0	0	993.4	NA	0.0000		9999	4990	0	0	0
2019/04/26 04:29:00	BASE	11.92	54	15.18	56	2.8	98	2.5	0	0	993.3	NA	0.0000		9999	4990	0	0	0
2019/04/26 04:30:00	BASE	12.01	50	15.18	56	2.8	98	2.5	0	0	993.4	NA	0.0000		9999	4860	0	0	0
2019/04/26 04:31:00	BASE	9.71	39	15.18	56	2.8	98	2.5	0	0	993.3	NA	0.0000		9999	4890	8070	0	0
2019/04/26 04:32:00	BASE	11.70	38	21.71	32	2.8	98	2.5	0	0	993.2	NA	0.0000		9999	4890	0	0	0
2019/04/26 04:33:00	BASE	16.27	38	24.13	34	2.8	98	2.5	0	0	993.0	NA	0.0000		9999	4790	8070	0	0
2019/04/26 04:34:00	BASE	17.60	36	24.13	34	2.8	98	2.5	0	0	992.9	NA	0.0000		9999	4720	0	0	0
2019/04/26 04:35:00	BASE	16.11	36	24.13	34	2.8	98	2.5	0	0	992.9	NA	0.0000		9999	4690	0	0	0
2019/04/26 04:36:00	BASE	14.62	40	24.13	34	2.8	98	2.5	0	0	992.8	NA	0.0000		9999	4990	7780	0	0
2019/04/26 04:37:00	BASE	16.98	41	24.13	34	2.8	98	2.5	0	0	992.6	NA	0.0000		9999	4990	7580	0	0
2019/04/26 04:38:00	BASE	18.41	40	24.13	34	2.8	98	2.5	0	0	992.5	NA	0.0000		9999	7550	0	0	0
2019/04/26 04:39:00	BASE	18.60	40	27.27	34	2.7	98	2.5	0	0	992.3	NA	0.0000		9999	7510	0	0	0
2019/04/26 04:40:00	BASE	20.23	38	27.27	34	2.7	98	2.4	0	0	992.1	NA	0.0000		9999	7220	0	0	0
2019/04/26 04:41:00	BASE	20.04	38	27.27	34	2.7	98	2.4	0	0	992.1	NA	0.0000		9999	7150	0	0	0
2019/04/26 04:42:00	BASE	20.09	38	27.27	34	2.7	98	2.4	0	0	992.0	NA	0.0000		9999	7190	0	0	0
2019/04/26 04:43:00	BASE	21.04	39	27.27	34	2.7	98	2.4	0	0	991.8	NA	0.0000		9999	7280	0	0	0
2019/04/26 04:44:00	BASE	22.16	40	27.78	28	2.7	98	2.5	0	0	991.6	NA	0.0000		9999	7190	0	0	0
2019/04/26 04:45:00	BASE	23.57	43	27.78	28	2.8	98	2.4	0	0	991.6	NA	0.0000		9999	7150	0	0	0
2019/04/26 04:46:00	BASE	24.16	44	27.78	28	2.8	98	2.5	0	0	991.6	NA	0.0000		9999	7150	0	0	0
2019/04/26 04:47:00	BASE	24.49	44	28.04	41	2.8	97	2.5	0	0	991.6	NA	0.0000		9999	7090	0	0	0
2019/04/26 04:48:00	BASE	25.20	46	30.61	49	2.8	97	2.4	0	0	991.5	NA	0.0000		9999	6990	0	0	0
2019/04/26 04:49:00	BASE	25.27	46	30.61	49	2.9	97	2.4	0	0	991.5	NA	0.0000		9999	6960	0	0	0
2019/04/26 04:50:00	BASE	25.40	46	30.61	49	2.9	96	2.4	0	0	991.5	NA	0.0000		9999	6960	0	0	0
2019/04/26 04:51:00	BASE	24.20	47	30.61	49	2.9	96	2.3	0	0	991.5	NA	0.0000		9999	6960	0	0	0
2019/04/26 04:52:00	BASE	22.58	47	30.61	49	2.9	96	2.3	0	0	991.6	NA	0.0000		9999	6960	0	0	0
2019/04/26 04:53:00	BASE	23.02	45	30.61	49	2.9	95	2.2	0	0	991.6	NA	0.0000		9999	6860	0	0	0
2019/04/26 04:54:00	BASE	23.36	44	30.61	49	2.9	95	2.2	0	0	991.6	NA	0.0000		9999	6730	0	0	0
2019/04/26 04:55:00	BASE	24.06	44	30.61	49	2.9	95	2.2	0	0	991.6	NA	0.0000		9999	6630	0	0	0
2019/04/26 04:56:00	BASE	23.16	41	30.61	49	3.0	94	2.1	0	0	991.7	NA	0.0000		9999	6660	0	0	0
2019/04/26 04:57:00	BASE	20.59	40	30.61	49	3.0	94	2.1	0	0	991.8	NA	0.0000		9999	6590	0	0	0
2019/04/26 04:58:00	BASE	19.28	43	29.94	49	3.0	94	2.1	0	0	991.8	NA	0.0000		9999	6530	0	0	0
2019/04/26 04:59:00	BASE	19.70	44	28.55	42	3.0	93	2.1	0	0	991.8	NA	0.0000		9999	6500	0	0	0
2019/04/26 05:00:00	BASE	21.16	47	28.55	42	3.0	93	2.0	0	0	991.8	NA	0.0000		9999	6530	0	0	0
2019/04/26 05:01:00	BASE	21.32	51	28.55	42	3.0	93	2.0	0	0	991.7	NA	0.0000		9999	4170	6660	0	0
2019/04/26 05:02:00	BASE	19.88	52	27.99	44	3.1	92	1.9	0	0	991.8	NA	0.0000		9999	4270	6630	0	0
2019/04/26 05:03:00	BASE	20.64	53	27.99	44	3.1	92	1.9	0	0	991.7	NA	0.0000		9999	3940	4560	0	0
2019/04/26 05:04:00	BASE	22.58	52	27.99	44	3.1	92	1.9	0	0	991.7	NA	0.0000		9999	3940	6630	0	0
2019/04/26 05:05:00	BASE	20.84	51	26.91	41	3.2	91	1.9	0	0	991.8	NA	0.0000		9999	3900	6690	0	0
2019/04/26 05:06:00	BASE	17.23	54	26.91	41	3.2	91	1.8	0	0	991.8	NA	0.0000		9999	4000	6790	0	0
2019/04/26 05:07:00	BASE	15.39	56	26.91	41	3.2	90	1.7	0	0	991.8	NA	0.0000		9999	4100	0	0	0
2019/04/26 05:08:00	BASE	14.91	57	26.91	41	3.2	89	1.6	0	0	991.8	NA	0.0000		9999	6760	0	0	0
2019/04/26 05:09:00	BASE	15.14	57	26.91	41	3.2	89	1.5	0	0	991.7	NA	0.0000		9999	5020	6920	0	0
2019/04/26 05:10:00	BASE	14.98	62	26.91	41	3.2	88	1.4	0	0	991.7	NA	0.0000		9999	6920	0	0	0
2019/04/26 05:11:00	BASE	13.90	67	26.91	41	3.2	87	1.3	0	0	991.7	NA	0.0000		9999	4230	6860	0	0
2019/04/26 05:12:00	BASE	12.85	71	26.91	41	3.3	87	1.3	0	0	991.7	NA	0.0000		9999	4430	6660	0	0
2019/04/26 05:13:00	BASE	11.72	76	26.91	41	3.4	86	1.2	0	0	991.7	NA	0.0000		9999	4200	6660	0	0
2019/04/26 05:14:00	BASE	11.86	77	20.58	53	3.4	84	1.0	0	0	991.6	NA	0.0000		9999	4360	5050	0	0
2019/04/26 05:15:00	BASE	12.74	75	18.93	53	3.5	83	0.9	0	0	991.6	NA	0.0000		9999	4530	0	0	0
2019/04/26 05:16:00	BASE	12.46	76	18.47	53	3.5	82	0.7	0	0	991.6	NA	0.0000		9999	4630	0	0	0
2019/04/26 05:17:00	BASE	11.82	78	18.47	53	3.6	81	0.6	0	0	991.6	NA	0.0000		9999	4590	0	0	0
2019/04/26 05:18:00	BASE	10.59	79	18.47	53	3.5	80	0.4	0	0	991.6	NA	0.0000		9999	4690	0	0	0
2019/04/26 05:19:00	BASE	9.65	82	17.95	56	3.5	80	0.4	0	0	991.5	NA	0.0000		9999	4630	0	0	0
2019/04/26 05:20:00	BASE	9.95	85	17.95	56	3.5	80	0.3	0	0	991.4	NA	0.0000		9999	4560	0	0	0
2019/04/26 05:21:00	BASE	10.40	86	15.18	56	3.5	80	0.3	0	0	991.3	NA	0.0000		9999	4630	0	0	0
2019/04/26 05:22:00	BASE	10.83	91	15.28	77	3.5	80	0.3	0	0	991.3	NA	0.0000		9999	4560	0	0	0
2019/04/26 05:23:00	BASE	10.25	111	15.28	77	3.4	80	0.2	0	0	991.2	NA	0.0000		9999	4590	0	0	0
2019/04/26 05:24:00	BASE	10.07	123	15.28	77	3.2	80	0.1	0	0	991.2	NA	0.0000		9999	4430	0	0	0
2019/04/26 05:25:00	BASE	9.49	111	15.28	77	3.0	80	-0.1	0	0	991.3	NA	0.0000		9999	4490	0	0	0
2019/04/26 05:26:00	BASE	7.86	95	15.28	77	2.8	81	-0.2	0	0	991.3	NA	0.0000		9999	4430	0	0	0
2019/04/26 05:27:00	BASE	6.66	93	15.28	77	2.6	81	-0.3	0	0	991.4	NA	0.0000		9999	4400	0	0	0
2019/04/26 05:28:00	BASE	5.67	91	15.28	77	2.5	82	-0.2	0	0	991.4	NA	0.0000		9999	4460	0	0	0
2019/04/26 05:29:00	BASE	5.59	88	15.28	77	2.5	83	-0.1	0	0	991.4	NA	0.0000		9999	4490	0	0	0
2019/04/26 05:30:00	BASE	6.10	96	15.28	77	2.6	84	0.2	0	0	991.4	NA	0.0000		9999	4490	0	0	0
2019/04/26 05:31:00	BASE	6.49	111	15.28	77	2.6	84	0.1	0	0	991.4	NA	0.0000		9999	4950	0	0	0
2019/04/26 05:32:00	BASE	7.07	118	11.47	114	2.4	84	0.0	0	0	991.4	NA	0.0000		9999	4920	0	0	0
2019/04/26 05:33:00	BASE	7.65	113	11.47	114	2.3	84	-0.1	0	0	991.4	NA	0.0000		9999	4950	0	0	0
2019/04/26 05:34:00	BASE	7.69	114	10.65	117	2.2	85	-0.2	0	0	991.4	NA	0.0000		9999	4890	0	0	0
2019/04/26 05:35:00	BASE	6.90	118	9.88	87	2.0	85	-0.3	0	0	991.4	NA	0.0000		9999	4990	0	0	0
2019/04/26 05:36:00	BASE	6.16	128	9.05	83	1.9	86	-0.3	0	0	991.3	NA	0.0000		9999	5020	0	0	0
2019/04/26 05:37:00	BASE	6.89	131	9.05	83	1.8	86	-0.2	0	0	991.2	NA	0.0000		9999	4990	0	0	0
2019/04/26 05:38:00	BASE	7.14	127	9.05	83	1.8	87	-0.1	0	0	991.2	NA	0.0000		9999	4990	0	0	0
2019/04/26 05:39:00	BASE	5.73	127	8.54	110	1.7	88	-0.0	0	0	991.2	NA	0.0000		9999	4330	4950	0	0
2019/04/26 05:40:00	BASE	5.21	119	8.54	110	1.7	89	0.1	0	0	991.3	NA	0.0000		9999	4950	0	0	0
2019/04/26 05:41:00	BASE	6.09	95	8.90	60	1.7	90	0.2	0	0	991.2	NA	0.0000		9999	4860	11320	0	0
2019/04/26 05:42:00	BASE	5.55	98	8.90	60	1.9	90	0.4	0	0	991.1	NA	0.0000		9999	10960	0	0	0
2019/04/26 05:43:00	BASE	4.24	125	8.90	60	1.9	90	0.5	0	0	991.0	NA	0.0000		9999	9650	10830	0	0
2019/04/26 05:44:00	BASE	4.23	114	8.90	60	2.0	90	0.5	0	0	991.0	NA	0.0000		9999	10400	0	0	0
2019/04/26 05:45:00	BASE	4.90	96	8.90	60	2.1	90	0.6	0	0	991.0	NA	0.0000		9999	10040	0	0	0
2019/04/26 05:46:00	BASE	5.87	93	13.63	45	2.2	90	0.7	0	0	991.0	NA	0.0000		9999	10140	0	0	0
2019/04/26 05:47:00	BASE	7.94	71	13.63	45	2.2	90	0.7	0	0	991.0	NA	0.0000		9999	10170	0	0	0
2019/04/26 05:48:00	BASE	8.16	69	13.63	45	2.4	90	1.0	0	0	991.0	NA	0.0000		9999	10070	0	0	0
2019/04/26 05:49:00	BASE	6.78	77	13.63	45	2.7	90	1.3	0	0	991.0	NA	0.0000		9999	10040	0	0	0
2019/04/26 05:50:00	BASE	6.18	58	13.63	45	2.9	90	1.4	0	0	991.0	NA	0.0000		9999	9880	0	0	0
2019/04/26 05:51:00	BASE	5.23	33	13.63	45	3.1	90	1.7	0	0	991.0	NA	0.0000		9999	10530	0	0	0
2019/04/26 05:52:00	BASE	4.44	32	13.63	45	3.3	89	1.7	0	0	991.1	NA	0.0000		9999	10530	0	0	0
2019/04/26 05:53:00	BASE	5.54	36	13.63	45	3.4	89	1.7	0	0	991.2	NA	0.0000		9999	10530	0	0	0
2019/04/26 05:54:00	BASE	6.76	27	13.63	45	3.4	89	1.7	0	0	991.1	NA	0.0000		9999	6070	10300	0	0
2019/04/26 05:55:00	BASE	8.27	18	15.54	6	3.4	88	1.7	0	0	991.1	NA	0.0000		9999	6040	10470	0	0
2019/04/26 05:56:00	BASE	10.83	16	16.77	17	3.4	88	1.7	0	0	991.1	NA	0.0000		9999	5710	10370	0	0
2019/04/26 05:57:00	BASE	9.12	28	16.77	17	3.4	88	1.7	0	0	991.2	NA	0.0000		9999	5350	0	0	0
2019/04/26 05:58:00	BASE	6.39	35	16.77	17	3.5	88	1.7	0	0	991.2	NA	0.0000		9999	4560	0	0	0
2019/04/26 05:59:00	BASE	5.47	47	16.77	17	3.5	88	1.7	0	0	991.1	NA	0.0000		9999	4560	0	0	0
2019/04/26 06:00:00	BASE	4.68	97	16.77	17	3.5	88	1.8	0	0	990.9	NA	0.0000		9999	4590	0	0	0
2019/04/26 06:01:00	BASE	5.60	150	16.77	17	3.5	88	1.7	0	0	990.7	NA	0.0000		9999	4560	0	0	0
2019/04/26 06:02:00	BASE	6.49	174	16.77	17	3.4	87	1.5	0	0	990.7	NA	0.0000		9999	4720	0	0	0
2019/04/26 06:03:00	BASE	4.94	188	16.77	17	3.2	87	1.3	0	0	990.8	NA	0.0000		9999	4460	0	0	0
2019/04/26 06:04:00	BASE	2.08	197	16.77	17	2.9	87	1.0	0	0	990.9	NA	0.0000		9999	4170	0	0	0
2019/04/26 06:05:00	BASE	2.90	153	16.77	17	2.6	87	0.7	0	0	990.9	NA	0.0000		9999	4170	0	0	0
2019/04/26 06:06:00	BASE	7.54	126	11.99	133	2.4	87	0.5	0	0	990.7	NA	0.0000		9999	4100	0	0	0
2019/04/26 06:07:00	BASE	9.84	132	11.99	133	2.2	88	0.4	0	0	990.7	NA	0.0000		9999	4100	0	0	0
2019/04/26 06:08:00	BASE	11.29	137	14.46	149	2.1	88	0.3	0	0	990.3	NA	0.0000		9999	4100	0	0	0
2019/04/26 06:09:00	BASE	13.13	144	14.46	149	2.0	88	0.2	0	0	990.0	NA	0.0000		9999	4130	10010	0	0
2019/04/26 06:10:01	BASE	12.93	134	14.71	120	2.0	88	0.2	0	0	990.2	NA	0.0000		9999	9810	0	0	0
2019/04/26 06:11:00	BASE	12.17	124	14.71	120	1.9	88	0.1	0	0	990.2	NA	0.0000		9999	9840	0	0	0
2019/04/26 06:12:00	BASE	12.74	129	15.33	140	1.9	88	0.1	0	0	989.8	NA	0.0000		9999	9910	0	0	0
2019/04/26 06:13:00	BASE	12.75	135	15.38	136	1.8	88	0.1	0	0	989.7	NA	0.0000		9999	9970	0	0	0
2019/04/26 06:14:00	BASE	9.10	105	15.38	136	1.8	88	0.1	0	0	990.0	NA	0.0000		9999	8300	0	0	0
2019/04/26 06:15:00	BASE	10.05	69	16.00	67	1.9	88	0.1	0	0	990.3	NA	0.0000		9999	0	0	0	0
2019/04/26 06:16:00	BASE	13.52	77	16.00	67	1.9	88	0.1	0	0	990.3	NA	0.0000		9999	7150	0	0	0
2019/04/26 06:17:00	BASE	11.84	88	16.00	67	1.9	88	0.1	0	0	990.3	NA	0.0000		9999	0	0	0	0
2019/04/26 06:18:00	BASE	10.70	95	17.18	82	1.8	88	0.1	0	0	990.1	NA	0.0000		9999	0	0	0	0
2019/04/26 06:19:00	BASE	13.17	96	21.97	75	1.8	88	0.1	0	0	990.0	NA	0.0000		9999	0	0	0	0
2019/04/26 06:20:00	BASE	14.26	68	23.72	38	1.9	89	0.3	0	0	990.0	NA	0.0000		9999	0	0	0	0
2019/04/26 06:21:00	BASE	17.73	44	24.59	36	2.2	90	0.7	0	0	989.6	NA	0.0000		9999	0	0	0	0
2019/04/26 06:22:00	BASE	23.22	39	28.96	36	2.5	91	1.2	0	0	989.4	NA	0.0000	SQ	9999	5870	0	0	0
2019/04/26 06:23:00	BASE	24.31	37	28.96	36	2.9	91	1.6	0	0	989.3	NA	0.0000	SQ	9999	5540	0	0	0
2019/04/26 06:24:01	BASE	23.12	35	28.96	36	3.3	91	1.9	0	0	989.2	NA	0.0000		9999	5710	0	0	0
2019/04/26 06:25:00	BASE	24.19	36	30.20	37	3.5	90	2.0	0	0	988.9	NA	0.0000		9999	5120	0	0	0
2019/04/26 06:26:00	BASE	27.18	35	31.84	28	3.6	89	2.0	0	0	988.7	NA	0.0000		9999	5220	0	0	0
2019/04/26 06:27:00	BASE	28.15	35	33.18	37	3.7	88	2.0	0	0	988.7	NA	0.0000		9999	4560	0	0	0
2019/04/26 06:28:00	BASE	27.90	40	33.18	37	3.7	88	1.9	0	0	988.8	NA	0.0000		9999	5350	0	0	0
2019/04/26 06:29:00	BASE	28.44	40	33.80	27	3.8	87	1.8	0	0	988.6	NA	0.0000		9999	6330	0	0	0
2019/04/26 06:30:00	BASE	29.11	39	33.80	27	3.8	86	1.7	0	0	988.7	NA	0.0000		9999	6820	0	0	0
2019/04/26 06:31:01	BASE	29.26	41	33.80	27	3.8	86	1.6	0	0	988.6	NA	0.0000		9999	7050	0	0	0
2019/04/26 06:32:00	BASE	30.70	42	35.03	43	3.9	85	1.6	0	0	988.5	NA	0.0000		9999	8400	0	0	0
2019/04/26 06:33:00	BASE	30.52	41	35.03	43	3.9	84	1.5	0	0	988.6	NA	0.0000		9999	8560	0	0	0
2019/04/26 06:34:00	BASE	28.80	41	35.03	43	3.9	84	1.4	0	0	988.7	NA	0.0000		9999	0	0	0	890
2019/04/26 06:35:00	BASE	26.14	41	35.03	43	3.9	83	1.3	0	0	988.8	NA	0.0000		9999	0	0	0	950
2019/04/26 06:36:00	BASE	24.66	41	35.03	43	3.8	83	1.2	0	0	988.8	NA	0.0000	UP	9999	0	0	0	1250
2019/04/26 06:37:00	BASE	24.89	39	35.03	43	3.8	83	1.2	0	0	988.7	NA	0.0000	UP	9999	0	0	0	1770
2019/04/26 06:38:01	BASE	24.27	37	35.03	43	3.7	83	1.2	0	0	988.6	NA	0.0000	UP	9999	0	0	0	1050
2019/04/26 06:39:00	BASE	25.69	39	35.03	43	3.7	84	1.2	0	0	988.5	NA	0.0000	UP	9999	0	0	0	1570
2019/04/26 06:40:00	BASE	26.53	39	35.03	43	3.7	84	1.3	0	0	988.5	NA	0.0000	UP	9999	0	0	0	1080
2019/04/26 06:41:00	BASE	26.15	39	35.03	43	3.7	85	1.4	0	0	988.5	NA	0.0000	UP	9999	0	0	0	920
2019/04/26 06:42:00	BASE	26.92	38	33.39	40	3.7	85	1.5	0	0	988.4	NA	0.0000	UP	9999	5220	0	0	0
2019/04/26 06:43:00	BASE	27.25	40	32.46	30	3.8	86	1.6	0	0	988.4	NA	0.0000	UP	9999	5020	0	0	0
2019/04/26 06:44:01	BASE	25.77	41	32.46	30	3.8	86	1.6	0	0	988.4	NA	0.0000	UP	9999	4950	0	0	0
2019/04/26 06:45:01	BASE	25.67	40	32.46	30	3.8	86	1.7	0	0	988.3	NA	0.0000	UP	9999	5090	0	0	0
2019/04/26 06:46:00	BASE	27.26	42	32.46	30	3.8	86	1.7	0	0	988.2	NA	0.0000	UP	9999	4950	0	0	0
2019/04/26 06:47:00	BASE	26.98	42	32.46	30	3.8	86	1.7	0	0	988.2	NA	0.0000	UP	9999	5250	0	0	0
2019/04/26 06:48:00	BASE	28.12	44	32.46	30	3.8	86	1.7	0	0	988.1	NA	0.0000	UP	9999	5710	0	0	0
2019/04/26 06:49:00	BASE	28.67	44	31.79	47	3.8	86	1.7	0	0	988.1	NA	0.0000	UP	9999	5810	0	0	0
2019/04/26 06:50:00	BASE	27.32	44	31.79	47	3.8	87	1.8	0	0	988.0	NA	0.0000	UP	9999	0	0	0	890
2019/04/26 06:51:00	BASE	26.92	43	31.79	47	3.8	87	1.8	0	0	988.0	NA	0.0000	UP	9999	0	0	0	4560
2019/04/26 06:52:00	BASE	26.40	43	31.79	47	3.9	87	1.9	0	0	988.0	NA	0.0000	UP	9999	0	0	0	4400
2019/04/26 06:53:01	BASE	26.48	45	31.79	47	3.9	87	1.9	0	0	988.0	NA	0.0000	UP	9999	0	0	0	4820
2019/04/26 06:54:01	BASE	26.89	45	31.79	47	3.9	87	1.9	0	0	988.0	NA	0.0000	UP	9999	0	0	0	5580
2019/04/26 06:55:00	BASE	26.85	44	31.79	47	3.9	87	1.9	0	0	987.9	NA	0.0000	UP	9999	0	0	0	5680
2019/04/26 06:56:00	BASE	26.40	42	31.79	47	3.9	87	2.0	0	0	988.0	NA	0.0000	UP	9999	0	0	0	5910
2019/04/26 06:57:00	BASE	26.75	43	31.79	47	3.9	87	2.0	0	0	987.9	NA	0.0000	UP	9999	5580	0	0	0
2019/04/26 06:58:00	BASE	27.30	43	31.69	37	3.9	88	2.0	0	0	987.9	NA	0.0000	UP	9999	5450	0	0	0
2019/04/26 06:59:00	BASE	27.13	44	31.69	37	3.9	88	2.1	0	0	987.9	NA	0.0000	UP	9999	5220	0	0	0
2019/04/26 07:00:01	BASE	27.81	46	31.54	51	3.9	88	2.1	0	0	987.9	NA	0.0000	UP	9999	5020	0	0	0
2019/04/26 07:01:01	BASE	28.43	44	31.84	37	3.9	88	2.1	0	0	987.8	NA	0.0000	UP	9999	5480	0	0	0
2019/04/26 07:02:00	BASE	27.83	43	31.84	37	3.9	88	2.1	0	0	987.8	NA	0.0000	UP	9999	6170	0	0	0
2019/04/26 07:03:00	BASE	27.49	43	31.84	37	3.9	88	2.0	0	0	987.7	NA	0.0000	UP	9999	5810	0	0	0
2019/04/26 07:04:00	BASE	27.63	41	31.84	37	3.9	87	2.0	0	0	987.7	NA	0.0000	UP	9999	6000	0	0	0
2019/04/26 07:05:00	BASE	28.33	42	33.08	44	3.9	87	2.0	0	0	987.7	NA	0.0000	UP	9999	6170	0	0	0
2019/04/26 07:06:00	BASE	27.94	41	33.08	44	3.9	87	1.9	0	0	987.7	NA	0.0000		9999	0	0	0	0
2019/04/26 07:07:00	BASE	26.23	40	33.08	44	3.9	87	1.9	0	0	987.7	NA	0.0000		9999	9290	0	0	0
2019/04/26 07:08:00	BASE	24.75	40	33.08	44	4.0	87	1.9	0	0	987.8	NA	0.0000		9999	9510	0	0	0
2019/04/26 07:09:00	BASE	24.95	42	33.08	44	4.0	86	1.9	0	0	987.7	NA	0.0000		9999	6100	0	0	0
2019/04/26 07:10:00	BASE	26.43	43	33.08	44	4.0	86	1.9	0	0	987.6	NA	0.0000		9999	8660	0	0	0
2019/04/26 07:11:00	BASE	26.77	42	33.08	44	4.1	86	1.9	0	0	987.6	NA	0.0000		9999	8730	0	0	0
2019/04/26 07:12:00	BASE	25.34	41	33.08	44	4.1	85	1.8	0	0	987.6	NA	0.0000		9999	8730	0	0	0
2019/04/26 07:13:00	BASE	24.50	40	33.08	44	4.1	85	1.8	0	0	987.5	NA	0.0000		9999	6040	0	0	0
2019/04/26 07:14:01	BASE	24.07	41	33.08	44	4.1	85	1.8	0	0	987.6	NA	0.0000		9999	6040	0	0	0
2019/04/26 07:15:01	BASE	22.84	41	31.18	39	4.1	85	1.8	0	0	987.6	NA	0.0000		9999	5870	0	0	0
2019/04/26 07:16:01	BASE	23.70	43	29.53	49	4.1	85	1.8	0	0	987.6	NA	0.0000		9999	5710	0	0	0
2019/04/26 07:17:00	BASE	23.92	42	29.53	49	4.1	85	1.8	0	0	987.6	NA	0.0000		9999	5580	0	0	0
2019/04/26 07:18:00	BASE	21.42	41	29.53	49	4.1	85	1.8	0	0	987.6	NA	0.0000		9999	5510	0	0	0
2019/04/26 07:19:00	BASE	21.22	44	29.53	49	4.1	84	1.7	0	0	987.5	NA	0.0000		9999	6530	0	0	0
2019/04/26 07:20:00	BASE	23.45	44	29.37	45	4.1	84	1.7	0	0	987.5	NA	0.0000		9999	6270	0	0	0
2019/04/26 07:21:00	BASE	24.11	43	27.57	42	4.1	84	1.7	0	0	987.4	NA	0.0000		9999	0	0	0	2400
2019/04/26 07:22:00	BASE	23.90	44	27.57	42	4.1	84	1.7	0	0	987.4	NA	0.0000		9999	0	0	0	1940
2019/04/26 07:23:00	BASE	23.03	43	27.57	42	4.1	84	1.7	0	0	987.5	NA	0.0000	-RA	9999	0	0	0	2200
2019/04/26 07:24:00	BASE	23.24	42	29.01	36	4.1	84	1.7	0	0	987.4	NA	0.0000	-RA	9999	0	0	0	0
2019/04/26 07:25:00	BASE	23.51	42	29.01	36	4.1	84	1.6	0	0	987.4	NA	0.0000	-RA	9999	0	0	0	2490
2019/04/26 07:26:00	BASE	22.80	45	29.01	36	4.1	84	1.7	0	0	987.4	NA	0.0000	-RA	9999	0	0	0	4330
2019/04/26 07:27:00	BASE	22.87	48	29.01	36	4.1	84	1.7	0	0	987.3	NA	0.0000	-RA	9999	0	0	0	4460
2019/04/26 07:28:00	BASE	23.74	47	29.01	36	4.0	85	1.7	0	0	987.2	NA	0.0000	-RA	9999	0	0	0	4430
2019/04/26 07:29:00	BASE	24.98	46	29.07	46	4.0	85	1.7	0	0	987.1	NA	0.0000	-RA	9999	0	0	0	4200
2019/04/26 07:30:00	BASE	25.60	44	29.07	46	4.0	85	1.7	0	0	987.0	NA	0.0000	-RA	9999	0	0	0	4360
2019/04/26 07:31:00	BASE	26.40	43	31.23	46	3.9	86	1.7	0	0	987.0	NA	0.0000	-RA	9999	0	0	0	3870
2019/04/26 07:32:00	BASE	26.41	44	31.23	46	3.9	86	1.8	0	0	987.0	NA	0.0000	-RA	9999	0	0	0	3510
2019/04/26 07:33:00	BASE	25.75	47	31.23	46	3.9	86	1.8	0	0	987.0	NA	0.0000	-RA	9999	0	0	0	3670
2019/04/26 07:34:00	BASE	25.32	48	31.23	46	3.9	87	1.9	0	0	987.0	NA	0.0000	-RA	9000	0	0	0	3870
2019/04/26 07:35:00	BASE	24.35	48	31.23	46	3.8	87	1.9	0	0	987.0	NA	0.0000	-RA	7000	0	0	0	3840
2019/04/26 07:36:00	BASE	24.55	49	31.23	46	3.8	88	2.0	0	0	986.9	NA	0.0000	-RA BR	6000	0	0	0	3670
2019/04/26 07:37:00	BASE	24.59	48	31.23	46	3.8	88	2.0	0	0	986.9	NA	0.0000	-RA BR	6000	360	0	0	0
2019/04/26 07:38:00	BASE	24.32	48	31.23	46	3.7	89	2.1	0	0	986.8	NA	0.0000	-RA BR	7000	0	0	0	3810
2019/04/26 07:39:00	BASE	25.16	51	31.23	46	3.7	90	2.1	0	0	986.8	NA	0.0000	-RA BR	7000	0	0	0	4200
2019/04/26 07:40:00	BASE	26.26	51	31.23	46	3.7	90	2.2	0	0	986.7	NA	0.0000	-RA BR	6000	0	0	0	4460
2019/04/26 07:41:00	BASE	27.16	51	30.04	53	3.6	91	2.3	0	0	986.7	NA	0.0000	-RA BR	5000	330	0	0	0
2019/04/26 07:42:00	BASE	27.04	51	30.04	53	3.6	92	2.3	0	0	986.6	NA	0.0000	-RA BR	4900	330	0	0	0
2019/04/26 07:43:00	BASE	27.13	52	30.40	54	3.5	92	2.4	0	0	986.6	NA	0.0000	-RA BR	4800	360	0	0	0
2019/04/26 07:44:00	BASE	26.94	53	30.40	54	3.5	93	2.4	0	0	986.6	NA	0.0000	-RA BR	5000	0	0	0	5840
2019/04/26 07:45:00	BASE	26.60	51	30.40	54	3.5	93	2.5	0	0	986.6	NA	0.0000	-RA BR	6000	360	0	0	0
2019/04/26 07:46:00	BASE	27.29	51	30.40	54	3.5	94	2.5	0	0	986.5	NA	0.0000	-RA BR	6000	360	0	0	0
2019/04/26 07:47:00	BASE	26.88	51	30.40	54	3.5	94	2.6	0	0	986.6	NA	0.0000	-RA BR	6000	0	0	0	4690
2019/04/26 07:48:00	BASE	26.98	50	30.40	54	3.5	94	2.6	0	0	986.5	NA	0.2540	-RA BR	7000	390	0	0	0
2019/04/26 07:49:00	BASE	27.90	49	30.40	54	3.5	95	2.7	0	0	986.5	NA	0.0000	-RA BR	6000	360	0	0	0
2019/04/26 07:50:00	BASE	27.06	47	30.40	54	3.5	95	2.8	0	0	986.6	NA	0.0000	-RA BR	5000	0	0	0	5250
2019/04/26 07:51:00	BASE	25.98	47	30.40	54	3.5	96	2.9	0	0	986.5	NA	0.0000	-RA BR	5000	360	0	0	0
2019/04/26 07:52:00	BASE	25.92	49	30.40	48	3.6	96	3.0	0	0	986.5	NA	0.0000	-RA BR	5000	360	0	0	0
2019/04/26 07:53:00	BASE	26.69	50	30.92	32	3.6	96	3.0	0	0	986.5	NA	0.0000	-RA BR	6000	0	0	0	6960
2019/04/26 07:54:01	BASE	26.82	48	30.92	32	3.6	96	3.1	0	0	986.5	NA	0.0000	-RA BR	7000	0	0	0	7050
2019/04/26 07:55:01	BASE	26.18	49	30.92	32	3.7	96	3.1	0	0	986.5	NA	0.0000	-RA BR	6000	0	0	0	3380
2019/04/26 07:56:00	BASE	26.59	50	30.92	32	3.7	96	3.1	0	0	986.4	NA	0.0000	-RA BR	7000	0	0	0	6960
2019/04/26 07:57:00	BASE	27.06	50	30.92	32	3.6	97	3.2	0	0	986.4	NA	0.0000	-RA BR	7000	390	0	0	0
2019/04/26 07:58:01	BASE	27.27	50	30.92	32	3.6	97	3.2	0	0	986.4	NA	0.0000	-RA BR	7000	390	0	0	0
2019/04/26 07:59:01	BASE	27.06	50	30.92	32	3.6	97	3.2	0	0	986.4	NA	0.0000	-RA BR	6000	0	0	0	5350
2019/04/26 08:00:01	BASE	27.30	50	30.92	32	3.6	97	3.2	0	0	986.4	NA	0.0000	-RA BR	6000	0	0	0	5510
2019/04/26 08:01:01	BASE	26.14	51	30.92	32	3.6	97	3.2	0	0	986.5	NA	0.0000	-RA BR	6000	0	0	0	5450
2019/04/26 08:02:00	BASE	25.22	52	30.92	32	3.6	97	3.2	0	0	986.4	NA	0.0000	-RA BR	6000	430	0	0	0
2019/04/26 08:03:00	BASE	26.06	52	30.40	51	3.6	97	3.2	0	0	986.4	NA	0.0000	-RA BR	6000	0	0	0	6790
2019/04/26 08:04:00	BASE	24.90	52	30.40	51	3.6	97	3.2	0	0	986.4	NA	0.0000	-RA BR	6000	0	0	0	6820
2019/04/26 08:05:00	BASE	23.31	53	30.40	51	3.7	97	3.2	0	0	986.5	NA	0.0000	-RA BR	6000	0	0	0	5810
2019/04/26 08:06:00	BASE	24.23	54	30.15	51	3.7	97	3.2	0	0	986.4	NA	0.0000	-RA BR	6000	0	0	0	6070
2019/04/26 08:07:00	BASE	24.86	54	29.79	50	3.7	97	3.2	0	0	986.4	NA	0.0000	-RA BR	6000	0	0	0	5250
2019/04/26 08:08:00	BASE	23.92	54	29.79	50	3.7	97	3.2	0	0	986.4	NA	0.0000	-RA BR	6000	0	0	0	5510
2019/04/26 08:09:01	BASE	24.18	54	29.37	48	3.6	97	3.2	0	0	986.4	NA	0.0000	-RA BR	6000	0	0	0	6760
2019/04/26 08:10:01	BASE	24.75	53	29.37	48	3.6	97	3.2	0	0	986.4	NA	0.0000	BR	6000	430	0	0	0
2019/04/26 08:11:01	BASE	23.58	53	29.37	48	3.6	97	3.2	0	0	986.4	NA	0.0000	BR	6000	390	0	0	0
2019/04/26 08:12:01	BASE	22.28	56	29.37	48	3.6	97	3.2	0	0	986.4	NA	0.0000	BR	6000	0	0	0	4200
2019/04/26 08:13:01	BASE	21.48	60	29.37	48	3.6	97	3.1	0	0	986.4	NA	0.0000	BR	6000	0	0	0	3900
2019/04/26 08:14:00	BASE	21.01	60	29.37	48	3.6	97	3.1	0	0	986.4	NA	0.0000	BR	6000	0	0	0	3900
2019/04/26 08:15:00	BASE	21.29	57	29.37	48	3.6	97	3.2	0	0	986.4	NA	0.0000	BR	6000	0	0	0	5250
2019/04/26 08:16:00	BASE	22.32	56	28.35	59	3.6	97	3.2	0	0	986.4	NA	0.0000	BR	6000	0	0	0	5610
2019/04/26 08:17:01	BASE	22.30	57	28.35	59	3.6	98	3.3	0	0	986.4	NA	0.0000	BR	6000	0	0	0	4560
2019/04/26 08:18:01	BASE	20.40	57	27.93	46	3.6	98	3.3	0	0	986.4	NA	0.0000	BR	6000	0	0	0	4330
2019/04/26 08:19:01	BASE	19.80	56	27.93	46	3.6	98	3.4	0	0	986.5	NA	0.0000	BR	6000	5250	0	0	0
2019/04/26 08:20:01	BASE	20.79	58	25.52	52	3.7	98	3.4	0	0	986.4	NA	0.2540	BR	6000	0	0	0	3510
2019/04/26 08:21:01	BASE	21.72	60	25.46	47	3.7	98	3.4	0	0	986.4	NA	0.0000	BR	6000	0	0	0	3410
2019/04/26 08:22:01	BASE	22.33	60	25.57	59	3.7	98	3.4	0	0	986.3	NA	0.0000	BR	6000	6560	0	0	0
2019/04/26 08:23:00	BASE	21.74	61	25.57	59	3.7	98	3.3	0	0	986.3	NA	0.0000	BR	6000	0	0	0	3410
2019/04/26 08:24:00	BASE	21.04	60	25.57	59	3.7	97	3.3	0	0	986.3	NA	0.0000	BR	6000	0	0	0	3450
2019/04/26 08:25:00	BASE	21.78	60	26.03	59	3.7	97	3.3	0	0	986.3	NA	0.0000	BR	6000	6630	0	0	0
2019/04/26 08:26:00	BASE	22.91	61	26.24	59	3.7	97	3.3	0	0	986.3	NA	0.0000	BR	6000	390	6500	0	0
2019/04/26 08:27:00	BASE	22.78	60	26.24	59	3.7	97	3.3	0	0	986.3	NA	0.0000	BR	6000	6430	0	0	0
2019/04/26 08:28:00	BASE	21.26	65	26.24	59	3.7	97	3.3	0	0	986.3	NA	0.0000	BR	6000	0	0	0	3220
2019/04/26 08:29:00	BASE	19.01	73	26.24	59	3.7	97	3.3	0	0	986.3	NA	0.0000	BR	6000	5480	0	0	0
2019/04/26 08:30:00	BASE	16.82	72	26.24	59	3.8	97	3.3	0	0	986.3	NA	0.0000	BR	6000	5840	0	0	0
2019/04/26 08:31:00	BASE	16.26	75	26.24	59	3.8	97	3.3	0	0	986.2	NA	0.0000	BR	6000	6070	0	0	0
2019/04/26 08:32:00	BASE	17.22	78	26.24	59	3.8	97	3.3	0	0	986.2	NA	0.0000	BR	6000	5480	0	0	0
2019/04/26 08:33:00	BASE	16.95	89	26.24	59	3.8	97	3.3	0	0	986.2	NA	0.0000	BR	6000	5940	0	0	0
2019/04/26 08:34:00	BASE	14.83	108	26.24	59	3.7	97	3.2	0	0	986.1	NA	0.0000	BR	6000	0	0	0	2590
2019/04/26 08:35:00	BASE	14.70	107	26.24	59	3.5	97	3.1	0	0	986.3	NA	0.0000	BR	6000	5580	6270	0	0
2019/04/26 08:36:00	BASE	15.81	90	25.98	54	3.4	97	3.0	0	0	986.2	NA	0.0000	BR	6000	5840	0	0	0
2019/04/26 08:37:00	BASE	15.77	80	23.97	58	3.4	97	3.0	0	0	986.2	NA	0.0000	BR	6000	5770	0	0	0
2019/04/26 08:38:00	BASE	15.93	78	22.64	73	3.4	97	3.0	0	0	986.3	NA	0.0000	BR	6000	6140	0	0	0
2019/04/26 08:39:00	BASE	16.48	78	22.48	67	3.5	98	3.1	0	0	986.2	NA	0.0000	BR	6000	6070	0	0	0
2019/04/26 08:40:00	BASE	17.52	80	22.48	67	3.6	98	3.3	0	0	986.2	NA	0.0000	BR	6000	6100	0	0	0
2019/04/26 08:41:00	BASE	18.28	77	22.48	67	3.6	98	3.4	0	0	986.2	NA	0.0000	BR	6000	6140	0	0	0
2019/04/26 08:42:00	BASE	16.69	85	22.17	73	3.6	98	3.4	0	0	986.1	NA	0.0000	BR	6000	6170	0	0	0
2019/04/26 08:43:00	BASE	14.96	100	22.17	73	3.6	98	3.3	0	0	986.2	NA	0.0000	BR	6000	4360	5250	0	0
2019/04/26 08:44:01	BASE	16.48	89	22.17	73	3.6	98	3.3	0	0	986.4	NA	0.0000	BR	6000	5940	0	0	0
2019/04/26 08:45:01	BASE	17.43	75	22.17	73	3.5	98	3.2	0	0	986.4	NA	0.0000	-RA BR	6000	6100	0	0	0
2019/04/26 08:46:01	BASE	15.20	76	22.17	73	3.5	98	3.2	0	0	986.4	NA	0.0000	BR	6000	6040	0	0	0
2019/04/26 08:47:01	BASE	15.04	71	22.17	73	3.5	98	3.2	0	0	986.3	NA	0.0000	BR	6000	6000	0	0	0
2019/04/26 08:48:01	BASE	16.09	73	22.17	73	3.6	98	3.3	0	0	986.2	NA	0.0000	-RA BR	3200	6100	0	0	0
2019/04/26 08:49:01	BASE	18.17	74	24.64	62	3.7	98	3.4	0	0	986.1	NA	0.0000	-RA BR	2400	1080	0	0	0
2019/04/26 08:50:00	BASE	21.10	71	26.34	67	3.7	98	3.4	0	0	986.1	NA	0.0000	-RA BR	2500	360	0	0	0
2019/04/26 08:51:00	BASE	21.35	74	26.34	67	3.8	98	3.5	0	0	986.1	NA	0.2540	-RA BR	2800	390	6000	0	0
2019/04/26 08:52:00	BASE	19.15	76	26.34	67	3.8	98	3.5	0	0	986.2	NA	0.0000	-RA BR	3000	390	5280	0	0
2019/04/26 08:53:00	BASE	18.75	75	26.34	67	3.8	98	3.5	0	0	986.1	NA	0.0000	-RA BR	2600	390	5250	0	0
2019/04/26 08:54:01	BASE	20.11	72	26.34	67	3.7	98	3.4	0	0	986.0	NA	0.0000	-RA BR	2200	360	6070	0	0
2019/04/26 08:55:01	BASE	21.83	63	28.35	52	3.7	98	3.4	0	0	985.9	NA	0.0000	-RA BR	2400	360	6230	0	0
2019/04/26 08:56:01	BASE	20.79	59	28.35	52	3.6	98	3.3	0	0	986.0	NA	0.0000	-RA BR	3400	330	6070	0	0
2019/04/26 08:57:01	BASE	16.25	63	28.35	52	3.6	98	3.3	0	0	986.0	NA	0.0000	-RA BR	5000	360	6000	0	0
2019/04/26 08:58:01	BASE	15.91	67	28.35	52	3.5	98	3.3	0	0	986.0	NA	0.0000	-RA BR	7000	330	6070	0	0
2019/04/26 08:59:01	BASE	17.38	61	28.35	52	3.5	99	3.4	0	0	986.0	NA	0.0000	-RA BR	7000	390	6070	0	0
2019/04/26 09:00:01	BASE	17.01	55	28.35	52	3.5	99	3.4	0	0	986.1	NA	0.0000	-RA BR	7000	6100	0	0	0
2019/04/26 09:01:01	BASE	15.40	65	28.35	52	3.6	100	3.5	0	0	986.0	NA	0.0000	-RA BR	7000	6100	0	0	0
2019/04/26 09:02:01	BASE	12.71	70	28.35	52	3.6	100	3.6	0	0	986.0	NA	0.0000	-RA BR	7000	390	6100	0	0
2019/04/26 09:03:00	BASE	9.89	79	28.35	52	3.6	100	3.6	0	0	986.0	NA	0.0000	-RA BR	7000	360	6170	0	0
2019/04/26 09:04:01	BASE	7.95	106	28.35	52	3.7	100	3.7	0	0	986.0	NA	0.0000	-RA BR	7000	390	6070	0	0
2019/04/26 09:05:00	BASE	9.54	102	23.05	53	3.7	100	3.7	0	0	986.0	NA	0.0000	-RA BR	7000	6140	0	0	0
2019/04/26 09:06:00	BASE	11.08	78	23.05	53	3.7	100	3.7	0	0	986.0	NA	0.0000	-RA BR	7000	6170	0	0	0
2019/04/26 09:07:00	BASE	11.43	78	23.05	53	3.7	100	3.7	0	0	986.0	NA	0.2540	-RA BR	7000	390	6140	0	0
2019/04/26 09:08:00	BASE	11.78	80	23.05	53	3.7	100	3.7	0	0	985.9	NA	0.0000	-RA BR	7000	390	6070	0	0
2019/04/26 09:09:00	BASE	12.51	83	22.94	57	3.7	100	3.7	0	0	985.9	NA	0.0000	-RA BR	7000	360	5910	0	0
2019/04/26 09:10:00	BASE	13.84	97	17.29	71	3.7	100	3.7	0	0	985.9	NA	0.0000	-RA BR	7000	390	5870	0	0
2019/04/26 09:11:00	BASE	13.08	116	17.29	71	3.6	100	3.6	0	0	986.0	NA	0.0000	BR	7000	5680	0	0	0
2019/04/26 09:12:00	BASE	11.90	125	16.20	114	3.5	99	3.4	0	0	985.9	NA	0.0000	BR	7000	5870	0	0	0
2019/04/26 09:13:00	BASE	10.71	128	16.20	114	3.3	99	3.2	0	0	985.9	NA	0.0000	BR	7000	6070	0	0	0
2019/04/26 09:14:00	BASE	9.04	130	16.20	114	3.0	99	2.9	0	0	986.0	NA	0.0000	BR	7000	5870	0	0	0
2019/04/26 09:15:00	BASE	8.11	126	16.20	114	2.7	99	2.6	0	0	986.0	NA	0.0000	-RA BR	7000	390	5870	0	0
2019/04/26 09:16:00	BASE	7.19	136	16.20	114	2.5	99	2.3	0	0	985.9	NA	0.0000	-RA BR	7000	360	5810	0	0
2019/04/26 09:17:01	BASE	5.99	143	16.20	114	2.3	99	2.2	0	0	985.9	NA	0.0000	-RA BR	1600	5970	0	0	0
2019/04/26 09:18:01	BASE	7.54	133	16.20	114	2.3	99	2.2	0	0	985.9	NA	0.0000	-RA BR	1000	5970	0	0	0
2019/04/26 09:19:01	BASE	8.44	137	16.20	114	2.3	99	2.2	0	0	985.7	NA	0.0000	-RA BR	1100	5910	0	0	0
2019/04/26 09:20:00	BASE	7.21	142	16.20	114	2.3	99	2.2	0	0	985.8	NA	0.0000	-RA BR	1200	5840	0	0	0
2019/04/26 09:21:00	BASE	8.55	140	13.84	110	2.4	100	2.3	0	0	985.7	NA	0.0000	-RA BR	1200	5870	0	0	0
2019/04/26 09:22:00	BASE	11.49	144	14.61	143	2.4	100	2.3	0	0	985.5	NA	0.0000	-RA BR	1200	5810	0	0	0
2019/04/26 09:23:00	BASE	11.43	140	14.61	143	2.4	100	2.3	0	0	985.6	NA	0.0000	-RA BR	1300	5840	0	0	0
2019/04/26 09:24:00	BASE	11.68	137	17.65	137	2.3	100	2.3	0	0	985.6	NA	0.0000	-RA BR	1400	5910	0	0	0
2019/04/26 09:25:00	BASE	15.18	139	17.90	136	2.3	100	2.3	0	0	985.5	NA	0.0000	-RA BR	1400	5940	0	0	0
2019/04/26 09:26:00	BASE	16.23	137	17.90	136	2.2	100	2.2	0	0	985.4	NA	0.0000	-RA BR	1400	5810	0	0	0
2019/04/26 09:27:00	BASE	15.98	138	17.90	136	2.1	100	2.0	0	0	985.3	NA	0.0000	-RA BR	1400	5710	0	0	0
2019/04/26 09:28:00	BASE	16.83	138	18.37	138	2.0	100	1.9	0	0	985.3	NA	0.0000	-RA BR	1400	3050	5810	0	0
2019/04/26 09:29:00	BASE	17.75	146	20.94	140	1.8	100	1.8	0	0	985.1	NA	0.0000	-RA BR	1400	2950	5740	0	0
2019/04/26 09:30:00	BASE	17.48	148	20.94	140	1.7	100	1.7	0	0	985.2	NA	0.0000	-RA BR	1400	2990	5680	0	0
2019/04/26 09:31:00	BASE	17.10	143	20.94	140	1.6	100	1.6	0	0	985.1	NA	0.0000	-RA BR	1400	1870	0	0	0
2019/04/26 09:32:00	BASE	17.54	140	20.94	140	1.6	100	1.6	0	0	985.1	NA	0.0000	-RA BR	1400	1840	0	0	0
2019/04/26 09:33:00	BASE	18.30	136	20.94	140	1.6	100	1.6	0	0	985.1	NA	0.0000	-RA BR	1400	1870	0	0	0
2019/04/26 09:34:00	BASE	19.68	134	22.22	135	1.6	100	1.6	0	0	985.1	NA	0.0000	BR	1400	2130	2920	0	0
2019/04/26 09:35:01	BASE	18.26	136	22.22	135	1.6	100	1.6	0	0	985.3	NA	0.0000	BR	1400	3080	0	0	0
2019/04/26 09:36:01	BASE	16.09	141	22.22	135	1.6	100	1.6	0	0	985.2	NA	0.0000	BR	1400	3180	0	0	0
2019/04/26 09:37:01	BASE	17.07	151	22.22	135	1.6	100	1.6	0	0	985.0	NA	0.0000	BR	1400	1840	0	0	0
2019/04/26 09:38:01	BASE	16.93	152	22.22	135	1.5	100	1.5	0	0	985.2	NA	0.0000	BR	1900	2200	2850	0	0
2019/04/26 09:39:01	BASE	16.09	144	22.22	135	1.5	100	1.5	0	0	985.1	NA	0.0000	-RA BR	2600	3020	0	0	0
2019/04/26 09:40:01	BASE	16.21	143	22.22	135	1.4	100	1.4	0	0	985.1	NA	0.0000	-RA BR	2300	0	0	0	3540
2019/04/26 09:41:01	BASE	14.53	137	22.22	135	1.4	100	1.4	0	0	985.2	NA	0.0000	-RA BR	2100	1840	0	0	0
2019/04/26 09:42:01	BASE	15.03	130	22.22	135	1.3	100	1.3	0	0	985.1	NA	0.0000	-RA BR	2100	1840	0	0	0
2019/04/26 09:43:00	BASE	15.07	135	22.22	135	1.3	100	1.3	0	0	985.0	NA	0.0000	-RA BR	2100	1970	3050	0	0
2019/04/26 09:44:00	BASE	15.91	147	21.40	171	1.3	100	1.3	0	0	984.8	NA	0.0000	-RA BR	1800	0	0	0	3940
2019/04/26 09:45:00	BASE	18.27	149	21.40	171	1.4	100	1.4	0	0	984.9	NA	0.0000	-RA BR	1900	1900	0	0	0
2019/04/26 09:46:00	BASE	16.27	142	21.40	171	1.4	100	1.4	0	0	985.0	NA	0.0000	-SN BR	1900	2200	0	0	0
2019/04/26 09:47:00	BASE	14.72	136	20.68	136	1.5	100	1.5	0	0	985.0	NA	0.0000	-SN BR	1700	2950	0	0	0
2019/04/26 09:48:00	BASE	14.20	135	20.68	136	1.5	100	1.5	0	0	985.0	NA	0.0000	-SN BR	1700	2920	0	0	0
2019/04/26 09:49:00	BASE	13.52	132	20.68	136	1.5	100	1.5	0	0	985.0	NA	0.0000	-SN BR	1700	2820	0	0	0
2019/04/26 09:50:01	BASE	15.83	132	20.68	136	1.5	100	1.5	0	0	984.8	NA	0.0000	-SN BR	1600	3020	0	0	0
2019/04/26 09:51:01	BASE	14.90	138	20.68	136	1.5	100	1.5	0	0	984.9	NA	0.0000	-SN BR	1600	3410	0	0	0
2019/04/26 09:52:01	BASE	13.60	141	20.68	136	1.5	100	1.5	0	0	984.9	NA	0.0000	-SN BR	1700	3150	0	0	0
2019/04/26 09:53:00	BASE	15.19	144	20.68	136	1.5	100	1.5	0	0	984.8	NA	0.0000	-SN BR	1900	3150	0	0	0
2019/04/26 09:54:00	BASE	16.72	143	20.68	139	1.5	100	1.5	0	0	984.6	NA	0.0000	-SN BR	2100	3120	0	0	0
2019/04/26 09:55:00	BASE	16.60	142	20.68	139	1.5	100	1.5	0	0	984.6	NA	0.0000	-SN BR	2100	3450	0	0	0
2019/04/26 09:56:00	BASE	15.96	144	20.68	139	1.5	100	1.5	0	0	984.6	NA	0.0000	-SN BR	2100	3350	0	0	0
2019/04/26 09:57:00	BASE	16.04	143	20.68	139	1.5	100	1.5	0	0	984.7	NA	0.0000	-SN BR	2200	0	0	0	3970
2019/04/26 09:58:00	BASE	14.18	145	20.68	139	1.5	100	1.5	0	0	984.7	NA	0.0000	-SN BR	2200	3740	0	0	0
2019/04/26 09:59:00	BASE	14.65	144	20.68	139	1.5	100	1.5	0	0	984.6	NA	0.0000	-SN BR	2100	3280	0	0	0
2019/04/26 10:00:00	BASE	16.46	143	20.68	139	1.5	100	1.5	0	0	984.3	NA	0.0000	-SN BR	2100	0	0	0	4460
2019/04/26 10:01:00	BASE	16.60	150	20.68	139	1.6	100	1.6	0	0	984.4	NA	0.0000	-SN BR	2100	0	0	0	4070
2019/04/26 10:02:00	BASE	14.07	146	20.68	139	1.6	100	1.6	0	0	984.6	NA	0.0000	-SN BR	2400	2170	0	0	0
2019/04/26 10:03:00	BASE	11.45	137	20.68	139	1.7	100	1.7	0	0	984.7	NA	0.0000	-SN BR	2800	3220	3970	0	0
2019/04/26 10:04:00	BASE	10.43	137	19.34	150	1.7	100	1.7	0	0	984.6	NA	0.0000	-SN BR	2800	4040	0	0	0
2019/04/26 10:05:00	BASE	10.85	137	19.34	150	1.7	100	1.7	0	0	984.5	NA	0.0000	-SN BR	2800	5610	0	0	0
2019/04/26 10:06:00	BASE	11.82	140	18.67	149	1.7	100	1.7	0	0	984.4	NA	0.0000	-SN BR	2800	5610	0	0	0
2019/04/26 10:07:00	BASE	12.05	139	18.67	149	1.7	100	1.7	0	0	984.5	NA	0.0000	-SN BR	2700	5770	0	0	0
2019/04/26 10:08:00	BASE	12.30	134	18.67	149	1.7	100	1.7	0	0	984.4	NA	0.0000	-SN BR	2700	5710	0	0	0
2019/04/26 10:09:00	BASE	12.83	132	18.67	149	1.7	100	1.7	0	0	984.4	NA	0.0000	-SN BR	2700	5740	0	0	0
2019/04/26 10:10:00	BASE	11.90	131	18.62	151	1.8	100	1.8	0	0	984.4	NA	0.0000	-SN BR	2700	5740	0	0	0
2019/04/26 10:11:00	BASE	11.03	137	14.97	146	1.8	100	1.8	0	0	984.4	NA	0.0000	-SN BR	2700	5710	0	0	0
2019/04/26 10:12:00	BASE	11.45	141	14.97	146	1.8	100	1.8	0	0	984.4	NA	0.0000	BR	2600	5710	0	0	0
2019/04/26 10:13:00	BASE	11.79	140	14.97	146	1.9	100	1.9	0	0	984.4	NA	0.0000	BR	2600	5740	0	0	0
2019/04/26 10:14:00	BASE	11.99	145	14.97	146	1.9	100	1.9	0	0	984.3	NA	0.0000	BR	2600	5740	0	0	0
2019/04/26 10:15:01	BASE	12.12	143	14.97	146	2.0	100	2.0	0	0	984.3	NA	0.0000	BR	2600	5740	0	0	0
2019/04/26 10:16:01	BASE	12.37	136	14.15	129	2.0	100	2.0	0	0	984.2	NA	0.0000	BR	2600	5640	0	0	0
2019/04/26 10:17:01	BASE	12.94	128	14.56	124	2.1	100	2.1	0	0	984.2	NA	0.0000	BR	2600	5640	0	0	0
2019/04/26 10:18:01	BASE	12.30	130	14.56	124	2.1	100	2.1	0	0	984.2	NA	0.0000	BR	2500	390	5710	0	0
2019/04/26 10:19:01	BASE	10.80	140	14.56	124	2.2	100	2.2	0	0	984.1	NA	0.0000	BR	2500	5740	0	0	0
2019/04/26 10:20:01	BASE	10.38	137	14.56	124	2.3	100	2.3	0	0	984.1	NA	0.0000	BR	2500	5710	0	0	0
2019/04/26 10:21:01	BASE	10.97	131	14.56	124	2.4	100	2.3	0	0	984.0	NA	0.0000	BR	2500	5740	0	0	0
2019/04/26 10:22:01	BASE	11.98	134	14.56	124	2.4	100	2.4	0	0	984.0	NA	0.0000	BR	2500	5710	0	0	0
2019/04/26 10:23:01	BASE	11.56	135	14.56	124	2.4	99	2.3	0	0	984.1	NA	0.0000	BR	2500	5680	0	0	0
2019/04/26 10:24:01	BASE	10.96	131	14.56	124	2.4	99	2.2	0	0	984.0	NA	0.0000	BR	2500	430	5610	0	0
2019/04/26 10:25:00	BASE	10.67	128	14.56	124	2.3	99	2.1	0	0	983.9	NA	0.0000	-SN BR	1800	5640	0	0	0
2019/04/26 10:26:00	BASE	10.22	131	14.56	124	2.3	99	2.1	0	0	983.9	NA	0.0000	-SN BR	1500	1020	5710	0	0
2019/04/26 10:27:00	BASE	9.29	123	14.15	140	2.4	99	2.2	0	0	984.2	NA	0.0000	-SN BR	1500	890	5740	0	0
2019/04/26 10:28:00	BASE	6.66	111	14.15	140	2.4	98	2.2	0	0	984.1	NA	0.0000	-SN BR	1500	430	5710	0	0
2019/04/26 10:29:00	BASE	4.53	115	14.15	140	2.5	98	2.2	0	0	984.1	NA	0.0000	-SN BR	1500	390	5740	0	0
2019/04/26 10:30:00	BASE	6.68	109	14.15	140	2.6	98	2.4	0	0	984.1	NA	0.0000	-SN BR	1500	390	5740	0	0
2019/04/26 10:31:00	BASE	8.76	111	14.15	140	2.7	98	2.4	0	0	984.2	NA	0.0000	-SN BR	1400	390	5710	0	0
2019/04/26 10:32:00	BASE	7.64	120	14.15	140	2.8	98	2.5	0	0	984.2	NA	0.0000	-SN BR	1400	390	5640	0	0
2019/04/26 10:33:00	BASE	6.22	113	14.15	140	2.8	98	2.5	0	0	984.1	NA	0.0000	-SN BR	1400	390	5740	0	0
2019/04/26 10:34:00	BASE	6.58	110	14.15	140	2.9	98	2.6	0	0	984.1	NA	0.0000	-SN BR	1400	5640	0	0	0
2019/04/26 10:35:00	BASE	9.36	116	14.71	102	2.9	98	2.7	0	0	984.1	NA	0.0000	BR	1400	5580	0	0	0
2019/04/26 10:36:00	BASE	11.20	123	14.71	102	2.9	98	2.6	0	0	984.0	NA	0.2540	BR	1400	390	5480	0	0
2019/04/26 10:37:00	BASE	11.47	135	14.76	118	2.9	98	2.6	0	0	983.9	NA	0.0000	BR	1400	360	5580	0	0
2019/04/26 10:38:00	BASE	12.40	135	15.95	121	2.8	98	2.6	0	0	983.8	NA	0.0000	-SN BR	1300	360	5510	0	0
2019/04/26 10:39:00	BASE	14.43	129	18.42	129	2.8	98	2.5	0	0	983.7	NA	0.0000	-SN BR	1400	390	5540	0	0
2019/04/26 10:40:00	BASE	14.39	131	18.42	129	2.6	98	2.4	0	0	983.7	NA	0.0000	-SN BR	1700	390	5450	0	0
2019/04/26 10:41:00	BASE	11.71	130	18.42	129	2.5	98	2.2	0	0	983.7	NA	0.0000	-SN BR	1800	360	5450	0	0
2019/04/26 10:42:00	BASE	11.09	130	18.42	129	2.4	98	2.1	0	0	983.8	NA	0.0000	-SN BR	1500	330	5510	0	0
2019/04/26 10:43:00	BASE	12.45	132	18.42	129	2.4	98	2.1	0	0	983.8	NA	0.0000	-SN BR	1200	330	5640	0	0
2019/04/26 10:44:00	BASE	11.16	129	18.42	129	2.3	98	2.1	0	0	983.8	NA	0.0000	-SN BR	1200	330	5680	0	0
2019/04/26 10:45:00	BASE	9.03	130	18.42	129	2.2	99	2.0	0	0	983.7	NA	0.0000	-SN BR	1200	330	0	0	0
2019/04/26 10:46:00	BASE	9.29	131	18.42	129	2.2	99	2.0	0	0	983.6	NA	0.0000	-SN BR	1300	360	0	0	0
2019/04/26 10:47:00	BASE	9.09	127	18.42	129	2.1	99	2.0	0	0	983.6	NA	0.0000	-SN BR	1300	330	0	0	0
2019/04/26 10:48:00	BASE	8.72	123	18.42	129	2.1	99	2.0	0	0	983.5	NA	0.2540	-SN BR	1300	330	5540	0	0
2019/04/26 10:49:00	BASE	9.87	119	15.84	136	2.2	100	2.1	0	0	983.5	NA	0.0000	-SN BR	1300	5450	0	0	0
2019/04/26 10:50:00	BASE	10.59	120	15.84	136	2.3	100	2.2	0	0	983.5	NA	0.0000	-SN BR	1300	5380	0	0	0
2019/04/26 10:51:00	BASE	9.46	126	15.84	136	2.4	100	2.4	0	0	983.5	NA	0.0000	RA BR	1300	5410	0	0	0
2019/04/26 10:52:00	BASE	10.06	134	15.84	136	2.4	100	2.4	0	0	983.3	NA	0.0000	-RA BR	1200	5380	0	0	0
2019/04/26 10:53:00	BASE	11.82	136	13.99	114	2.4	100	2.4	0	0	983.3	NA	0.0000	-RA BR	1300	5350	0	0	0
2019/04/26 10:54:00	BASE	11.52	131	14.35	124	2.2	100	2.2	0	0	983.3	NA	0.0000	-RA BR	1600	5380	0	0	0
2019/04/26 10:55:01	BASE	9.76	125	14.35	124	2.1	100	2.1	0	0	983.4	NA	0.0000	-SN BR	1600	5380	0	0	0
2019/04/26 10:56:01	BASE	8.96	125	14.35	124	2.0	100	2.0	0	0	983.3	NA	0.0000	-SN BR	1600	5320	0	0	0
2019/04/26 10:57:01	BASE	10.08	132	14.35	124	1.9	100	1.9	0	0	983.3	NA	0.0000	-SN BR	1600	5250	0	0	0
2019/04/26 10:58:00	BASE	9.95	128	14.35	124	1.9	100	1.9	0	0	983.3	NA	0.0000	-SN BR	1600	5280	0	0	0
2019/04/26 10:59:00	BASE	8.06	126	14.35	124	1.9	100	1.9	0	0	983.3	NA	0.0000	-SN BR	1500	0	0	0	2490
2019/04/26 11:00:00	BASE	7.63	128	14.35	124	1.9	100	1.9	0	0	983.3	NA	0.0000	-SN BR	1400	360	0	0	0
2019/04/26 11:01:00	BASE	8.14	125	14.35	124	1.9	100	1.9	0	0	983.3	NA	0.0000	-SN BR	1300	360	0	0	0
2019/04/26 11:02:00	BASE	6.61	116	14.35	124	1.9	100	1.9	0	0	983.3	NA	0.0000	-SN BR	1300	0	0	0	5870
2019/04/26 11:03:00	BASE	8.21	98	21.61	88	2.0	100	2.0	0	0	983.1	NA	0.0000	-SN BR	1300	390	0	0	0
2019/04/26 11:04:00	BASE	13.07	90	21.61	70	2.1	100	2.1	0	0	983.0	NA	0.0000	-SN BR	1300	360	0	0	0
2019/04/26 11:05:00	BASE	15.31	80	21.86	67	2.4	100	2.4	0	0	983.0	NA	0.0000	-SN BR SQ	1900	360	0	0	0
2019/04/26 11:06:00	BASE	16.32	68	24.08	66	2.7	100	2.7	0	0	982.9	NA	0.0000	-SN BR	3900	360	0	0	0
2019/04/26 11:07:00	BASE	17.20	62	24.08	66	3.0	100	3.0	0	0	982.7	NA	0.0000	-SN BR	4400	360	0	0	0
2019/04/26 11:08:00	BASE	16.67	58	24.08	66	3.3	100	3.3	0	0	982.8	NA	0.2540	-SN BR	5000	330	0	0	0
2019/04/26 11:09:00	BASE	16.49	52	24.08	66	3.4	100	3.4	0	0	982.7	NA	0.0000	-SN BR	5000	360	0	0	0
2019/04/26 11:10:00	BASE	17.62	48	27.47	35	3.5	100	3.5	0	0	982.6	NA	0.0000	-SN BR	6000	360	0	0	0
2019/04/26 11:11:00	BASE	19.21	48	27.47	35	3.5	100	3.5	0	0	982.6	NA	0.0000	-SN BR	6000	360	0	0	0
2019/04/26 11:12:00	BASE	19.82	46	27.47	35	3.6	100	3.6	0	0	982.5	NA	0.0000	-SN BR	6000	330	0	0	0
2019/04/26 11:13:00	BASE	21.10	42	33.28	36	3.6	100	3.6	0	0	982.5	NA	0.0000	-SN BR	7000	360	0	0	0
2019/04/26 11:14:00	BASE	23.24	44	33.28	36	3.6	100	3.6	0	0	982.3	NA	0.0000	-SN BR	4400	360	0	0	0
2019/04/26 11:15:00	BASE	24.15	48	33.28	36	3.6	100	3.6	0	0	982.3	NA	0.2540	-SN BR	3000	360	0	0	0
2019/04/26 11:16:00	BASE	22.98	44	33.28	36	3.6	100	3.6	0	0	982.3	NA	0.0000	-SN BR	3000	360	0	0	0
2019/04/26 11:17:00	BASE	20.90	41	33.28	36	3.7	100	3.7	0	0	982.3	NA	0.0000	UP BR	3600	360	0	0	0
2019/04/26 11:18:00	BASE	21.86	42	34.00	46	3.7	100	3.7	0	0	982.2	NA	0.0000	UP BR	5000	330	0	0	0
2019/04/26 11:19:00	BASE	21.89	42	34.00	46	3.7	100	3.7	0	0	982.3	NA	0.0000	UP BR	3700	330	0	0	0
2019/04/26 11:20:00	BASE	21.23	41	34.00	46	3.6	100	3.6	0	0	982.2	NA	0.0000	UP BR	3700	360	0	0	0
2019/04/26 11:21:00	BASE	21.44	38	34.00	46	3.6	100	3.6	0	0	982.2	NA	0.2540	UP BR	5000	360	0	0	0
2019/04/26 11:22:00	BASE	19.26	39	34.00	46	3.6	100	3.6	0	0	982.2	NA	0.0000	UP BR	6000	360	0	0	0
2019/04/26 11:23:00	BASE	21.01	43	34.00	46	3.6	100	3.6	0	0	982.0	NA	0.0000	UP BR	7000	360	0	0	0
2019/04/26 11:24:00	BASE	23.44	41	34.00	46	3.5	100	3.5	0	0	981.9	NA	0.0000	UP BR	6000	390	0	0	0
2019/04/26 11:25:00	BASE	21.90	39	34.00	46	3.5	100	3.5	0	0	981.8	NA	0.2540	UP BR	3600	360	0	0	0
2019/04/26 11:26:00	BASE	21.50	39	34.00	46	3.5	100	3.5	0	0	981.7	NA	0.0000	UP BR	3300	360	0	0	0
2019/04/26 11:27:00	BASE	23.73	41	34.00	46	3.6	100	3.6	0	0	981.6	NA	0.0000	UP BR	5000	330	0	0	0
2019/04/26 11:28:00	BASE	26.79	43	33.03	39	3.6	100	3.6	0	0	981.4	NA	0.0000	UP BR	5000	360	0	0	0
2019/04/26 11:29:00	BASE	27.42	42	33.49	44	3.6	100	3.6	0	0	981.4	NA	0.0000	UP BR	5000	360	0	0	0
2019/04/26 11:30:00	BASE	26.92	41	33.49	44	3.7	100	3.7	0	0	981.3	NA	0.0000	BR	5000	390	0	0	0
2019/04/26 11:31:00	BASE	26.12	40	33.49	44	3.7	100	3.7	0	0	981.3	NA	0.2540	BR	5000	330	0	0	0
2019/04/26 11:32:00	BASE	26.45	42	33.49	44	3.7	100	3.7	0	0	981.2	NA	0.0000	BR	5000	360	0	0	0
2019/04/26 11:33:00	BASE	28.76	44	34.62	35	3.6	100	3.6	0	0	980.9	NA	0.0000	BR	3200	360	0	0	0
2019/04/26 11:34:00	BASE	29.71	44	34.62	35	3.6	100	3.6	0	0	981.0	NA	0.0000	UP BR	3100	0	0	0	5380
2019/04/26 11:35:00	BASE	29.75	46	34.62	35	3.6	100	3.6	0	0	980.8	NA	0.0000	UP BR	5000	390	0	0	0
2019/04/26 11:36:00	BASE	28.72	43	34.62	35	3.5	100	3.5	0	0	980.9	NA	0.0000	BR	5000	360	0	0	0
2019/04/26 11:37:00	BASE	28.75	38	35.60	41	3.5	100	3.5	0	0	980.8	NA	0.2540	BR	6000	360	0	0	0
2019/04/26 11:38:00	BASE	30.00	41	37.91	39	3.5	100	3.5	0	0	980.7	NA	0.0000	BR	6000	330	0	0	0
2019/04/26 11:39:00	BASE	30.55	45	37.91	39	3.5	100	3.5	0	0	980.7	NA	0.0000	BR	5000	0	0	0	5220
2019/04/26 11:40:00	BASE	29.43	42	37.91	39	3.5	100	3.5	0	0	980.7	NA	0.0000	BR	5000	360	0	0	0
2019/04/26 11:41:00	BASE	28.56	42	37.91	39	3.5	100	3.5	0	0	980.6	NA	0.0000	BR	5000	330	0	0	0
2019/04/26 11:42:00	BASE	30.48	44	37.91	39	3.4	100	3.4	0	0	980.5	NA	0.0000	BR	3000	330	0	0	0
2019/04/26 11:43:00	BASE	30.38	46	37.91	39	3.4	100	3.4	0	0	980.4	NA	0.2540	UP BR	3000	330	0	0	0
2019/04/26 11:44:00	BASE	31.44	48	37.91	39	3.3	100	3.3	0	0	980.3	NA	0.0000	BR	5000	330	0	0	0
2019/04/26 11:45:00	BASE	31.85	46	37.91	39	3.3	100	3.3	0	0	980.3	NA	0.0000	-SN BR	2800	330	2200	0	0
2019/04/26 11:46:00	BASE	30.52	45	37.91	39	3.3	100	3.3	0	0	980.3	NA	0.0000	UP BR	3000	330	0	0	0
2019/04/26 11:47:00	BASE	31.97	44	37.91	39	3.2	100	3.2	0	0	980.3	NA	0.0000	-SN BR	5000	330	0	0	0
2019/04/26 11:48:00	BASE	32.24	43	37.30	45	3.3	100	3.3	0	0	980.2	NA	0.2540	-SN BR	5000	330	0	0	0
2019/04/26 11:49:00	BASE	31.07	44	37.30	45	3.3	100	3.3	0	0	980.2	NA	0.0000	-SN BR	5000	300	0	0	0
2019/04/26 11:50:00	BASE	32.42	45	38.27	52	3.3	100	3.3	0	0	980.0	NA	0.0000	-SN BR	5000	330	0	0	0
2019/04/26 11:51:00	BASE	35.03	45	39.66	43	3.4	100	3.4	0	0	980.0	NA	0.0000	-SN BR	5000	330	0	0	0
2019/04/26 11:52:00	BASE	33.27	46	39.66	43	3.4	100	3.4	0	0	980.2	NA	0.0000	-SN BR	5000	330	0	0	0
2019/04/26 11:53:00	BASE	31.69	46	39.66	43	3.4	100	3.4	0	0	980.2	NA	0.0000	-SN BR	4700	330	0	0	0
2019/04/26 11:54:00	BASE	30.42	47	39.66	43	3.4	100	3.4	0	0	980.3	NA	0.2540	-SN BR	4800	330	0	0	0
2019/04/26 11:55:00	BASE	31.49	47	39.66	43	3.4	100	3.4	0	0	980.1	NA	0.0000	-SN BR	5000	330	0	0	0
2019/04/26 11:56:00	BASE	32.62	44	39.66	43	3.4	100	3.4	0	0	980.2	NA	0.0000	-SN BR	5000	360	0	0	0
2019/04/26 11:57:00	BASE	31.02	44	39.66	43	3.4	100	3.4	0	0	980.2	NA	0.0000	-SN BR	5000	360	0	0	0
2019/04/26 11:58:00	BASE	31.78	45	39.66	43	3.4	100	3.4	0	0	980.2	NA	0.0000	-SN BR	5000	330	0	0	0
2019/04/26 11:59:00	BASE	30.82	44	39.66	43	3.4	100	3.4	0	0	980.2	NA	0.2540	BR	5000	330	0	0	0
2019/04/26 12:00:00	BASE	30.03	45	39.66	43	3.5	100	3.5	0	0	980.2	NA	0.0000	BR	6000	330	0	0	0
2019/04/26 12:01:00	BASE	30.03	43	37.09	50	3.5	100	3.5	0	0	980.2	NA	0.0000	BR	6000	330	0	0	0
2019/04/26 12:02:00	BASE	30.46	41	37.09	50	3.5	100	3.5	0	0	980.1	NA	0.0000	BR	6000	360	0	0	0
2019/04/26 12:03:00	BASE	30.90	42	37.09	50	3.5	100	3.5	0	0	980.2	NA	0.0000	BR	6000	330	0	0	0
2019/04/26 12:04:00	BASE	29.77	43	37.09	50	3.5	100	3.5	0	0	980.3	NA	0.0000	BR	7000	360	0	0	0
2019/04/26 12:05:00	BASE	28.43	43	37.09	50	3.6	100	3.6	0	0	980.3	NA	0.0000	BR	7000	360	0	0	0
2019/04/26 12:06:00	BASE	28.73	42	37.09	50	3.6	100	3.6	1	0	980.3	NA	0.0000	BR	7000	330	0	0	0
2019/04/26 12:07:00	BASE	28.63	43	37.09	50	3.6	100	3.6	0	0	980.4	NA	0.0000	BR	6000	360	0	0	0
2019/04/26 12:08:00	BASE	27.20	43	36.73	30	3.6	100	3.6	1	0	980.4	NA	0.2540	BR	7000	330	0	0	0
2019/04/26 12:09:00	BASE	27.64	41	36.73	30	3.6	100	3.6	1	0	980.4	NA	0.0000	BR	6000	360	0	0	0
2019/04/26 12:10:00	BASE	26.55	42	36.73	30	3.6	100	3.6	1	0	980.5	NA	0.0000	BR	7000	360	0	0	0
2019/04/26 12:11:00	BASE	25.47	40	36.73	30	3.6	100	3.6	1	0	980.4	NA	0.0000	BR	8000	360	0	0	0
2019/04/26 12:12:00	BASE	27.73	39	37.14	41	3.6	100	3.6	1	0	980.3	NA	0.0000	BR	9000	390	0	0	0
2019/04/26 12:13:00	BASE	29.39	40	37.14	41	3.6	100	3.6	1	0	980.3	NA	0.0000	BR	9999	390	0	0	0
2019/04/26 12:14:00	BASE	27.88	39	37.14	41	3.7	100	3.7	1	0	980.3	NA	0.0000	BR	9999	390	0	0	0
2019/04/26 12:15:01	BASE	27.10	41	37.14	41	3.7	100	3.7	1	0	980.3	NA	0.0000	BR	9999	360	0	0	0
2019/04/26 12:16:01	BASE	28.44	41	37.14	41	3.7	100	3.7	1	0	980.3	NA	0.0000	BR	8000	390	0	0	0
2019/04/26 12:17:01	BASE	29.47	37	37.14	41	3.7	100	3.7	1	0	980.2	NA	0.0000	BR	6000	360	0	0	0
2019/04/26 12:18:01	BASE	28.99	36	37.14	41	3.7	100	3.7	1	0	980.3	NA	0.2540	BR	6000	360	0	0	0
2019/04/26 12:19:01	BASE	27.87	36	37.14	41	3.7	100	3.7	1	0	980.2	NA	0.0000	BR	7000	360	0	0	0
2019/04/26 12:20:01	BASE	26.88	35	37.14	41	3.7	100	3.7	1	0	980.3	NA	0.0000	BR	5000	360	0	0	0
2019/04/26 12:21:01	BASE	26.72	33	37.14	41	3.7	100	3.7	1	0	980.2	NA	0.0000	BR	5000	330	0	0	0
2019/04/26 12:22:01	BASE	26.86	34	36.01	37	3.7	100	3.7	1	0	980.3	NA	0.0000	BR	5000	330	0	0	0
2019/04/26 12:23:01	BASE	25.59	35	36.01	37	3.7	100	3.7	1	0	980.3	NA	0.0000	BR	6000	360	0	0	0
2019/04/26 12:24:01	BASE	26.23	34	36.01	37	3.7	100	3.7	1	0	980.3	NA	0.0000	BR	7000	360	0	0	0
2019/04/26 12:25:01	BASE	28.52	35	36.01	37	3.7	100	3.7	1	0	980.1	NA	0.0000	BR	6000	360	0	0	0
2019/04/26 12:26:01	BASE	29.39	35	36.01	37	3.7	100	3.7	1	0	980.1	NA	0.0000	BR	5000	330	0	0	0
2019/04/26 12:27:01	BASE	28.78	35	34.67	41	3.8	100	3.8	2	0	980.1	NA	0.0000	BR	5000	360	0	0	0
2019/04/26 12:28:01	BASE	28.40	35	34.67	41	3.8	100	3.8	2	0	980.1	NA	0.2540	BR	5000	330	0	0	0
2019/04/26 12:29:01	BASE	27.75	35	34.67	41	3.8	100	3.8	2	0	980.1	NA	0.0000	BR	5000	330	0	0	0
2019/04/26 12:30:01	BASE	28.22	33	34.67	41	3.8	100	3.8	2	0	980.0	NA	0.0000	BR	5000	360	0	0	0
2019/04/26 12:31:01	BASE	27.70	32	34.67	41	3.8	100	3.8	2	0	980.0	NA	0.0000	BR	5000	330	0	0	0
2019/04/26 12:32:01	BASE	27.36	34	34.67	41	3.8	100	3.8	2	0	979.9	NA	0.0000	BR	5000	330	0	0	0
2019/04/26 12:33:01	BASE	28.71	35	34.67	41	3.7	100	3.7	2	0	979.8	NA	0.0000	BR	5000	360	0	0	0
2019/04/26 12:34:01	BASE	29.11	35	34.67	41	3.7	100	3.7	2	0	979.9	NA	0.2540	BR	2400	360	0	0	0
2019/04/26 12:35:01	BASE	28.36	38	34.67	41	3.7	100	3.7	2	0	979.8	NA	0.0000	BR	1800	330	0	0	0
2019/04/26 12:36:01	BASE	28.40	39	34.16	42	3.7	100	3.7	2	0	979.8	NA	0.0000	UP BR	1900	360	0	0	0
2019/04/26 12:37:00	BASE	30.67	38	34.47	39	3.7	100	3.7	3	0	979.7	NA	0.2540	UP BR	1700	330	0	0	0
2019/04/26 12:38:01	BASE	30.69	35	37.14	33	3.7	100	3.7	3	0	979.7	NA	0.0000	UP BR	1700	360	0	0	0
2019/04/26 12:39:00	BASE	30.69	37	37.14	33	3.8	100	3.8	3	0	979.6	NA	0.0000	UP BR	2400	360	0	0	0
2019/04/26 12:40:01	BASE	30.95	41	37.14	33	3.8	100	3.8	3	0	979.7	NA	0.2540	UP BR	2100	360	0	0	0
2019/04/26 12:41:01	BASE	30.68	43	37.14	33	3.8	100	3.8	3	0	979.7	NA	0.0000	UP BR	0800	360	0	0	0
2019/04/26 12:42:01	BASE	31.70	41	37.14	33	3.7	100	3.7	3	0	979.6	NA	0.0000	UP BR	0750	360	0	0	0
2019/04/26 12:43:00	BASE	31.09	36	37.14	33	3.7	100	3.7	3	0	979.6	NA	0.2540	UP BR	0900	360	0	0	0
2019/04/26 12:44:00	BASE	28.76	35	37.14	33	3.7	100	3.7	3	0	979.7	NA	0.0000	UP BR	0900	360	0	0	0
2019/04/26 12:45:00	BASE	29.04	38	37.14	33	3.7	100	3.7	3	0	979.5	NA	0.2540	UP BR	0900	390	0	0	0
2019/04/26 12:46:00	BASE	31.54	39	38.53	33	3.7	100	3.7	3	0	979.4	NA	0.0000	UP BR	0900	360	0	0	0
2019/04/26 12:47:00	BASE	32.11	43	38.53	33	3.7	100	3.7	4	0	979.4	NA	0.0000	UP BR	0800	330	0	0	0
2019/04/26 12:48:00	BASE	30.67	40	38.53	33	3.7	100	3.7	4	0	979.5	NA	0.2540	UP BR	0800	330	0	0	0
2019/04/26 12:49:00	BASE	31.84	38	40.69	35	3.7	100	3.7	4	0	979.4	NA	0.0000	UP BR	0900	330	0	0	0
2019/04/26 12:50:00	BASE	32.63	39	40.69	35	3.7	100	3.7	4	0	979.5	NA	0.0000	UP FG	0800	330	0	0	0
2019/04/26 12:51:00	BASE	30.93	37	40.69	35	3.7	100	3.7	4	0	979.5	NA	0.2540	UP FG	0900	360	0	0	0
2019/04/26 12:52:00	BASE	29.73	38	40.69	35	3.6	100	3.6	5	0	979.5	NA	0.0000	UP BR	1000	330	1280	0	0
2019/04/26 12:53:00	BASE	29.97	40	40.69	35	3.6	100	3.6	5	0	979.4	NA	0.0000	UP BR	1000	330	0	0	0
2019/04/26 12:54:00	BASE	32.17	42	40.69	35	3.6	100	3.6	5	0	979.3	NA	0.2540	UP BR	1100	330	0	0	0
2019/04/26 12:55:00	BASE	31.97	44	40.69	35	3.6	100	3.6	5	0	979.4	NA	0.0000	UP BR	1600	330	0	0	0
2019/04/26 12:56:00	BASE	30.35	44	40.69	35	3.6	100	3.6	6	0	979.4	NA	0.0000	UP BR	3300	360	1410	0	0
2019/04/26 12:57:00	BASE	32.46	42	40.69	35	3.6	100	3.6	6	0	979.3	NA	0.0000	UP BR	3800	330	0	0	0
2019/04/26 12:58:00	BASE	32.14	41	40.69	35	3.6	100	3.6	6	0	979.4	NA	0.2540	UP BR	3300	330	0	0	0
2019/04/26 12:59:00	BASE	29.41	40	37.76	42	3.7	100	3.7	6	0	979.4	NA	0.0000	UP BR	3800	360	0	0	0
2019/04/26 13:00:00	BASE	29.53	38	37.76	42	3.7	100	3.7	6	0	979.4	NA	0.0000	UP BR	4300	360	0	0	0
2019/04/26 13:01:00	BASE	30.24	40	37.76	42	3.7	100	3.7	7	0	979.4	NA	0.0000	UP BR	4000	330	3480	0	0
2019/04/26 13:02:00	BASE	30.30	41	37.76	42	3.8	100	3.8	7	0	979.4	NA	0.0000	UP BR	4200	360	1150	0	0
2019/04/26 13:03:00	BASE	30.23	37	37.76	42	3.8	100	3.8	7	0	979.3	NA	0.0000	UP BR	3400	330	0	0	0
2019/04/26 13:04:00	BASE	28.90	35	37.76	42	3.8	100	3.8	7	0	979.4	NA	0.0000	BR	3300	330	1410	0	0
2019/04/26 13:05:00	BASE	26.84	37	37.76	42	3.8	100	3.8	7	0	979.3	NA	0.0000	BR	4200	360	1640	0	0
2019/04/26 13:06:00	BASE	30.37	38	37.76	42	3.8	100	3.8	8	0	979.0	NA	0.2540	BR	3600	360	3120	0	0
2019/04/26 13:07:00	BASE	34.04	37	39.66	36	3.8	100	3.8	8	0	979.1	NA	0.0000	BR	3400	330	0	0	0
2019/04/26 13:08:00	BASE	32.80	36	39.66	36	3.9	100	3.9	8	0	979.1	NA	0.0000	BR	3700	330	0	0	0
2019/04/26 13:09:00	BASE	30.98	34	39.66	36	3.9	100	3.9	7	0	979.1	NA	0.0000	BR	3900	330	0	0	0
2019/04/26 13:10:00	BASE	30.88	34	39.66	36	3.9	100	3.9	7	0	979.1	NA	0.0000	BR	3700	330	3540	0	0
2019/04/26 13:11:00	BASE	29.87	33	39.66	36	3.9	100	3.9	7	0	979.2	NA	0.0000	BR	4000	360	0	0	0
2019/04/26 13:12:00	BASE	29.78	35	39.66	36	3.9	100	3.9	6	0	979.1	NA	0.0000	BR	4600	360	0	0	0
2019/04/26 13:13:00	BASE	30.43	35	39.66	36	3.9	100	3.9	6	0	979.1	NA	0.2540	BR	3800	360	0	0	0
2019/04/26 13:14:00	BASE	29.24	36	39.66	36	3.8	100	3.8	6	0	979.1	NA	0.0000	BR	3800	330	0	0	0
2019/04/26 13:15:00	BASE	29.26	39	39.66	36	3.8	100	3.8	6	0	979.1	NA	0.0000	BR	3700	300	0	0	0
2019/04/26 13:16:00	BASE	30.41	36	39.66	36	3.8	100	3.8	7	0	979.0	NA	0.0000	BR	3300	330	0	0	0
2019/04/26 13:17:00	BASE	28.18	31	36.17	34	3.8	100	3.8	7	0	979.2	NA	0.0000	BR	3100	330	0	0	0
2019/04/26 13:18:00	BASE	26.83	30	35.65	39	3.8	100	3.8	7	0	979.0	NA	0.0000	BR	1500	300	0	0	0
2019/04/26 13:19:00	BASE	28.25	30	35.65	39	3.8	100	3.8	7	0	979.0	NA	0.2540	BR	1300	300	0	0	0
2019/04/26 13:20:00	BASE	28.73	31	35.65	39	3.8	100	3.8	7	0	978.9	NA	0.0000	BR	1800	300	0	0	0
2019/04/26 13:21:00	BASE	29.73	35	39.41	32	3.8	100	3.8	6	0	978.8	NA	0.2540	BR	1200	300	0	0	0
2019/04/26 13:22:00	BASE	29.53	34	39.41	32	3.8	100	3.8	6	0	978.8	NA	0.0000	UP BR	0800	300	0	0	0
2019/04/26 13:23:00	BASE	29.68	30	39.41	32	3.8	100	3.8	6	0	978.7	NA	0.0000	UP BR	1200	330	0	0	0
2019/04/26 13:24:01	BASE	30.60	31	39.41	32	3.8	100	3.8	6	0	978.6	NA	0.2540	UP BR	1400	300	0	0	0
2019/04/26 13:25:01	BASE	30.97	38	39.77	37	3.7	100	3.7	6	0	978.5	NA	0.0000	UP BR	1900	390	0	0	0
2019/04/26 13:26:01	BASE	32.13	42	39.77	37	3.7	100	3.7	6	0	978.4	NA	0.0000	UP BR	1400	360	0	0	0
2019/04/26 13:27:01	BASE	31.78	35	39.77	37	3.7	100	3.7	6	0	978.4	NA	0.2540	UP BR	1000	300	0	0	0
2019/04/26 13:28:01	BASE	29.75	32	39.77	37	3.7	100	3.7	6	0	978.4	NA	0.0000	UP BR	1600	360	0	0	0
2019/04/26 13:29:01	BASE	30.26	34	39.77	37	3.7	100	3.7	7	0	978.3	NA	0.0000	UP BR	3300	0	0	0	4690
2019/04/26 13:30:01	BASE	31.86	37	39.77	37	3.7	100	3.7	7	0	978.3	NA	0.0000	UP BR	2900	0	0	0	4560
2019/04/26 13:31:01	BASE	30.80	34	39.77	37	3.7	100	3.7	7	0	978.4	NA	0.0000	UP BR	2400	330	0	0	0
2019/04/26 13:32:01	BASE	30.59	30	39.77	37	3.7	100	3.7	8	0	978.3	NA	0.2540	UP BR	2500	300	0	0	0
2019/04/26 13:33:01	BASE	31.81	32	39.77	37	3.7	100	3.7	8	0	978.1	NA	0.0000	UP BR	1500	330	0	0	0
2019/04/26 13:34:01	BASE	30.93	36	39.77	37	3.7	100	3.7	8	0	978.1	NA	0.0000	UP BR	1600	0	0	0	5250
2019/04/26 13:35:01	BASE	30.20	38	37.81	36	3.7	100	3.7	8	0	978.0	NA	0.0000	UP BR	3500	0	0	0	5180
2019/04/26 13:36:01	BASE	30.65	38	37.81	36	3.8	100	3.8	9	0	978.0	NA	0.0000	UP BR	3400	0	0	0	5410
2019/04/26 13:37:01	BASE	30.48	40	37.81	36	3.8	100	3.8	10	0	978.0	NA	0.0000	UP BR	3300	0	0	0	5120
2019/04/26 13:38:01	BASE	31.09	37	37.81	36	3.8	100	3.8	10	0	977.9	NA	0.2540	BR	3400	0	0	0	5410
2019/04/26 13:39:01	BASE	30.64	32	37.81	36	3.8	100	3.8	11	0	978.0	NA	0.0000	BR	3400	0	0	0	5580
2019/04/26 13:40:01	BASE	28.56	32	37.81	36	3.8	100	3.8	11	0	978.0	NA	0.0000	BR	3200	0	0	0	6270
2019/04/26 13:41:01	BASE	28.48	31	37.81	36	3.8	100	3.8	11	0	977.9	NA	0.0000	BR	2500	360	0	0	0
2019/04/26 13:42:01	BASE	30.53	32	37.81	36	3.9	100	3.9	11	0	977.8	NA	0.0000	BR	1300	330	0	0	0
2019/04/26 13:43:01	BASE	30.44	34	37.81	36	3.9	100	3.9	11	0	977.9	NA	0.2540	UP BR	1000	0	0	0	2590
2019/04/26 13:44:01	BASE	30.03	31	36.32	27	3.9	100	3.9	11	0	977.8	NA	0.0000	UP BR	1500	0	0	0	5940
2019/04/26 13:45:01	BASE	29.57	30	36.32	27	3.9	100	3.9	11	0	977.8	NA	0.0000	UP BR	1400	0	0	0	5940
2019/04/26 13:46:01	BASE	29.07	31	36.32	27	3.9	100	3.9	11	0	977.8	NA	0.0000	UP BR	1500	330	0	0	0
2019/04/26 13:47:01	BASE	29.45	30	36.32	27	3.9	100	3.9	11	0	977.7	NA	0.2540	UP BR	2600	360	0	0	0
2019/04/26 13:48:01	BASE	31.00	30	37.71	38	3.9	100	3.9	11	0	977.5	NA	0.0000	UP BR	2600	0	0	0	5770
2019/04/26 13:49:01	BASE	32.95	33	37.71	38	4.0	100	4.0	11	0	977.5	NA	0.0000	UP BR	2700	0	0	0	5970
2019/04/26 13:50:01	BASE	30.69	35	37.71	38	4.0	100	4.0	11	0	977.6	NA	0.0000	UP BR	3500	0	0	0	5640
2019/04/26 13:51:00	BASE	27.98	34	37.71	38	4.0	100	4.0	12	0	977.5	NA	0.0000	UP BR	4800	390	0	0	0
2019/04/26 13:52:00	BASE	29.29	35	37.71	38	4.0	100	4.0	11	0	977.5	NA	0.0000	UP BR	1800	0	0	0	5970
2019/04/26 13:53:00	BASE	30.66	34	37.71	38	4.0	100	4.0	11	0	977.4	NA	0.2540	UP BR	1100	360	0	0	0
2019/04/26 13:54:00	BASE	30.95	35	37.71	38	4.0	100	4.0	10	0	977.4	NA	0.0000	UP BR	1600	0	0	0	2890
2019/04/26 13:55:00	BASE	31.82	37	37.71	38	4.0	100	4.0	10	0	977.5	NA	0.0000	UP BR	2500	330	0	0	0
2019/04/26 13:56:00	BASE	30.70	36	37.71	38	4.0	100	4.0	10	0	977.4	NA	0.0000	UP BR	2300	0	0	0	5450
2019/04/26 13:57:00	BASE	30.55	35	37.71	38	4.0	100	4.0	10	0	977.4	NA	0.0000	UP BR	1400	0	0	0	5580
2019/04/26 13:58:00	BASE	32.65	32	38.43	34	4.0	100	4.0	11	0	977.2	NA	0.2540	UP BR	1400	330	0	0	0
2019/04/26 13:59:00	BASE	30.94	29	38.43	34	4.0	100	4.0	11	0	977.5	NA	0.0000	UP BR	2600	0	0	0	5250
2019/04/26 14:00:00	BASE	29.99	32	38.43	34	4.0	100	4.0	12	0	977.4	NA	0.0000	UP BR	3200	0	0	0	5120
2019/04/26 14:01:00	BASE	30.77	32	38.43	34	4.0	100	4.0	12	0	977.4	NA	0.0000	UP BR	1600	360	0	0	0
2019/04/26 14:02:00	BASE	29.13	30	38.43	34	4.0	100	4.0	13	0	977.5	NA	0.0000	UP BR	1000	330	0	0	0
2019/04/26 14:03:00	BASE	28.10	29	38.43	34	4.0	100	4.0	13	0	977.5	NA	0.2540	UP BR	1000	300	0	0	0
2019/04/26 14:04:00	BASE	28.23	30	38.43	34	4.0	100	4.0	13	0	977.5	NA	0.0000	UP BR	1400	330	0	0	0
2019/04/26 14:05:00	BASE	29.98	32	38.43	34	4.0	100	4.0	13	0	977.5	NA	0.0000	UP BR	1300	300	0	0	0
2019/04/26 14:06:00	BASE	30.34	30	38.43	34	4.0	100	4.0	13	0	977.5	NA	0.2540	UP BR	1400	330	0	0	0
2019/04/26 14:07:00	BASE	27.69	27	38.43	34	3.9	100	3.9	13	0	977.7	NA	0.0000	UP BR	3600	330	0	0	0
2019/04/26 14:08:00	BASE	27.34	26	37.50	32	3.9	100	3.9	14	0	977.6	NA	0.0000	UP BR	5000	390	0	0	0
2019/04/26 14:09:00	BASE	28.97	28	37.50	32	3.9	100	3.9	14	0	977.6	NA	0.0000	UP BR	5000	360	0	0	0
2019/04/26 14:10:00	BASE	28.78	25	37.50	32	3.9	100	3.9	15	0	977.5	NA	0.0000	UP BR	4300	520	0	0	0
2019/04/26 14:11:00	BASE	29.50	22	37.50	32	3.9	100	3.9	15	0	977.5	NA	0.0000	UP BR	3100	360	0	0	0
2019/04/26 14:12:00	BASE	30.91	23	37.50	32	3.9	100	3.9	16	0	977.5	NA	0.0000	UP BR	2500	300	0	0	0
2019/04/26 14:13:00	BASE	31.73	22	37.50	32	3.9	100	3.9	16	0	977.5	NA	0.0000	UP BR	1500	330	0	0	0
2019/04/26 14:14:00	BASE	30.46	20	37.50	32	3.8	100	3.8	17	0	977.6	NA	0.2540	UP BR	1600	360	0	0	0
2019/04/26 14:15:00	BASE	29.54	18	37.50	32	3.8	100	3.8	17	0	977.4	NA	0.0000	UP BR	2700	0	0	0	2920
2019/04/26 14:16:00	BASE	29.81	21	33.59	41	3.8	100	3.8	17	0	977.5	NA	0.0000	BR	2900	0	0	0	7350
2019/04/26 14:17:00	BASE	30.12	20	33.59	16	3.8	100	3.8	16	0	977.5	NA	0.0000	BR	4500	430	0	0	0
2019/04/26 14:18:00	BASE	28.82	17	33.59	16	3.8	100	3.8	16	0	977.7	NA	0.0000	BR	4900	390	0	0	0
2019/04/26 14:19:00	BASE	25.85	18	33.59	16	3.9	100	3.9	16	0	977.7	NA	0.0000	BR	5000	0	0	0	6370
2019/04/26 14:20:00	BASE	27.12	24	37.40	34	3.9	100	3.9	15	0	977.5	NA	0.0000	BR	6000	0	0	0	6270
2019/04/26 14:21:00	BASE	30.72	31	38.17	33	3.9	100	3.9	16	0	977.5	NA	0.0000	BR	3700	430	0	0	0
2019/04/26 14:22:00	BASE	32.55	32	38.17	33	4.0	100	4.0	15	0	977.4	NA	0.0000	BR	3400	460	0	0	0
2019/04/26 14:23:00	BASE	31.15	32	38.17	33	4.0	100	4.0	15	0	977.6	NA	0.0000	BR	5000	0	0	0	5940
2019/04/26 14:24:00	BASE	28.35	33	38.17	33	4.1	100	4.1	15	0	977.6	NA	0.0000	BR	6000	0	0	0	5050
2019/04/26 14:25:00	BASE	27.96	32	38.17	33	4.1	100	4.1	15	0	977.5	NA	0.0000	BR	5000	0	0	0	4590
2019/04/26 14:26:00	BASE	30.17	34	38.33	34	4.1	100	4.1	16	0	977.4	NA	0.2540	BR	5000	0	0	0	4460
2019/04/26 14:27:00	BASE	32.31	35	38.33	34	4.1	100	4.1	16	0	977.4	NA	0.0000	BR	4100	0	0	0	4530
2019/04/26 14:28:00	BASE	32.96	33	38.33	34	4.2	100	4.2	16	0	977.4	NA	0.0000	BR	4100	430	0	0	0
2019/04/26 14:29:00	BASE	32.35	25	38.33	34	4.2	100	4.2	17	0	977.6	NA	0.0000	BR	3200	0	0	0	3770
2019/04/26 14:30:00	BASE	29.47	15	38.33	34	4.2	100	4.2	17	0	977.6	NA	0.0000	BR	2700	300	0	0	0
2019/04/26 14:31:00	BASE	26.31	14	38.33	34	4.1	100	4.1	17	0	977.8	NA	0.0000	BR	4800	0	0	0	3350
2019/04/26 14:32:00	BASE	24.90	21	38.33	34	4.1	100	4.1	17	0	977.8	NA	0.0000	BR	7000	460	0	0	0
2019/04/26 14:33:00	BASE	24.94	23	38.33	34	4.1	100	4.1	18	0	977.7	NA	0.0000	BR	5000	520	0	0	0
2019/04/26 14:34:00	BASE	25.06	22	38.33	34	4.1	100	4.1	18	0	977.8	NA	0.0000	BR	4200	2790	0	0	0
2019/04/26 14:35:00	BASE	27.46	26	38.33	34	4.1	100	4.1	18	0	977.6	NA	0.0000	BR	3200	430	2790	0	0
2019/04/26 14:36:01	BASE	29.45	24	37.86	23	4.1	100	4.1	17	0	977.6	NA	0.0000	BR	3300	0	0	0	4100
2019/04/26 14:37:01	BASE	26.43	23	37.86	23	4.1	100	4.1	16	0	977.8	NA	0.0000	BR	4500	0	0	0	4100
2019/04/26 14:38:01	BASE	24.41	21	36.63	19	4.1	100	4.1	17	0	977.7	NA	0.0000	BR	4100	1440	0	0	0
2019/04/26 14:39:01	BASE	26.25	25	36.27	33	4.2	100	4.2	16	0	977.5	NA	0.0000	BR	4000	0	0	0	4070
2019/04/26 14:40:01	BASE	29.29	33	36.94	33	4.2	100	4.2	16	0	977.4	NA	0.2540	BR	4200	0	0	0	3580
2019/04/26 14:41:01	BASE	31.72	36	36.94	33	4.2	100	4.2	16	0	977.4	NA	0.0000	BR	3800	390	0	0	0
2019/04/26 14:42:01	BASE	31.95	41	39.41	40	4.3	100	4.3	16	0	977.4	NA	0.0000	BR	1700	360	2690	0	0
2019/04/26 14:43:01	BASE	30.09	40	39.41	40	4.3	100	4.3	17	0	977.5	NA	0.0000	BR	1700	360	0	0	0
2019/04/26 14:44:01	BASE	28.01	37	39.41	40	4.3	100	4.3	18	0	977.6	NA	0.0000	BR	3400	360	0	0	0
2019/04/26 14:45:01	BASE	28.68	34	39.41	40	4.2	100	4.2	18	0	977.5	NA	0.0000	BR	3200	360	0	0	0
2019/04/26 14:46:01	BASE	29.45	34	39.41	40	4.2	100	4.2	18	0	977.5	NA	0.2540	BR	3300	330	0	0	0
2019/04/26 14:47:01	BASE	29.58	33	39.41	40	4.1	100	4.1	18	0	977.5	NA	0.0000	BR	3600	360	0	0	0
2019/04/26 14:48:01	BASE	28.90	31	39.41	40	4.1	100	4.1	19	0	977.7	NA	0.0000	BR	3300	360	0	0	0
2019/04/26 14:49:01	BASE	27.73	28	39.41	40	4.1	100	4.1	19	0	977.7	NA	0.0000	BR	3200	330	0	0	0
2019/04/26 14:50:01	BASE	27.54	27	39.41	40	4.0	100	4.0	19	0	977.6	NA	0.0000	BR	3400	360	0	0	0
2019/04/26 14:51:01	BASE	28.13	29	39.41	40	4.0	100	4.0	18	0	977.5	NA	0.0000	BR	3700	360	0	0	0
2019/04/26 14:52:01	BASE	29.94	33	34.47	35	4.0	100	4.0	18	0	977.5	NA	0.0000	BR	3600	0	0	0	3510
2019/04/26 14:53:01	BASE	30.49	34	36.99	29	4.0	100	4.0	18	0	977.6	NA	0.0000	BR	3000	360	0	0	0
2019/04/26 14:54:01	BASE	29.05	27	36.99	29	3.9	100	3.9	17	0	977.7	NA	0.2540	BR	3000	360	0	0	0
2019/04/26 14:55:01	BASE	27.37	26	36.99	29	3.9	100	3.9	17	0	977.7	NA	0.0000	BR	3900	390	0	0	0
2019/04/26 14:56:01	BASE	27.24	25	36.99	29	3.9	100	3.9	17	0	977.7	NA	0.0000	BR	4500	390	0	0	0
2019/04/26 14:57:01	BASE	26.91	24	36.99	29	3.9	100	3.9	17	0	977.7	NA	0.0000	BR	4700	390	0	0	0
2019/04/26 14:58:01	BASE	26.02	25	36.99	29	3.8	100	3.8	17	0	977.7	NA	0.0000	BR	5000	360	0	0	0
2019/04/26 14:59:00	BASE	25.16	26	36.99	29	3.8	100	3.8	17	0	977.7	NA	0.0000	BR	3800	360	0	0	0
2019/04/26 15:00:00	BASE	26.38	29	36.99	29	3.8	100	3.8	17	0	977.6	NA	0.0000	BR	3600	330	0	0	0
2019/04/26 15:01:00	BASE	28.23	31	36.99	29	3.8	100	3.8	17	0	977.6	NA	0.0000	BR	3800	330	0	0	0
2019/04/26 15:02:00	BASE	27.52	33	36.99	29	3.7	100	3.7	17	0	977.7	NA	0.2540	BR	3400	330	0	0	0
2019/04/26 15:03:00	BASE	27.21	34	33.44	29	3.7	100	3.7	17	0	977.7	NA	0.0000	BR	3500	330	0	0	0
2019/04/26 15:04:00	BASE	25.62	31	33.44	29	3.7	100	3.7	17	0	977.7	NA	0.0000	BR	4300	330	0	0	0
2019/04/26 15:05:00	BASE	23.85	30	33.44	29	3.7	100	3.7	17	0	977.7	NA	0.0000	BR	4500	330	0	0	0
2019/04/26 15:06:00	BASE	23.40	29	33.44	29	3.7	100	3.7	16	0	977.8	NA	0.0000	BR	4400	330	0	0	0
2019/04/26 15:07:00	BASE	21.94	26	33.44	29	3.6	100	3.6	16	0	977.8	NA	0.0000	BR	5000	330	0	0	0
2019/04/26 15:08:00	BASE	24.00	28	33.44	29	3.6	100	3.6	17	0	977.6	NA	0.0000	BR	4500	360	0	0	0
2019/04/26 15:09:00	BASE	26.66	28	33.44	29	3.6	100	3.6	16	0	977.6	NA	0.0000	BR	3000	330	0	0	0
2019/04/26 15:10:00	BASE	26.62	26	33.44	29	3.5	100	3.5	16	0	977.6	NA	0.0000	BR	3200	330	0	0	0
2019/04/26 15:11:00	BASE	25.80	26	33.44	29	3.5	100	3.5	15	0	977.7	NA	0.0000	BR	3700	330	0	0	0
2019/04/26 15:12:00	BASE	25.41	28	33.44	29	3.5	100	3.5	15	0	977.7	NA	0.2540	BR	3500	330	0	0	0
2019/04/26 15:13:00	BASE	25.73	31	31.07	26	3.5	100	3.5	15	0	977.6	NA	0.0000	BR	3500	360	0	0	0
2019/04/26 15:14:00	BASE	25.97	28	31.43	19	3.5	100	3.5	16	0	977.7	NA	0.0000	BR	4000	360	1310	0	0
2019/04/26 15:15:00	BASE	26.90	24	33.54	31	3.4	100	3.4	17	0	977.6	NA	0.0000	BR	3000	330	0	0	0
2019/04/26 15:16:00	BASE	26.63	26	33.54	31	3.4	100	3.4	17	0	977.7	NA	0.0000	BR	2500	330	0	0	0
2019/04/26 15:17:00	BASE	26.49	25	33.54	31	3.4	100	3.4	17	0	977.6	NA	0.0000	BR	2500	330	0	0	0
2019/04/26 15:18:00	BASE	26.01	25	33.54	31	3.4	100	3.4	17	0	977.7	NA	0.0000	BR	2500	330	0	0	0
2019/04/26 15:19:00	BASE	26.64	27	33.64	30	3.4	100	3.4	16	0	977.6	NA	0.0000	BR	2400	330	0	0	0
2019/04/26 15:20:00	BASE	26.98	28	33.64	30	3.3	100	3.3	15	0	977.7	NA	0.2540	BR	2800	330	0	0	0
2019/04/26 15:21:00	BASE	25.22	25	33.64	30	3.3	100	3.3	15	0	977.7	NA	0.0000	BR	4300	330	0	0	0
2019/04/26 15:22:00	BASE	25.06	25	33.64	30	3.3	100	3.3	15	0	977.7	NA	0.0000	-SN BR	3400	330	0	0	0
2019/04/26 15:23:00	BASE	26.04	28	33.64	30	3.3	100	3.3	15	0	977.6	NA	0.0000	-SN BR	3900	330	0	0	0
2019/04/26 15:24:00	BASE	27.44	27	33.64	30	3.3	100	3.3	15	0	977.6	NA	0.0000	-SN BR	5000	330	0	0	0
2019/04/26 15:25:00	BASE	28.18	26	33.64	30	3.3	100	3.3	16	0	977.6	NA	0.0000	-SN BR	3900	330	0	0	0
2019/04/26 15:26:00	BASE	28.10	25	33.64	30	3.3	100	3.3	16	0	977.6	NA	0.0000	-SN BR	4300	330	0	0	0
2019/04/26 15:27:00	BASE	26.17	23	33.64	30	3.3	100	3.3	16	0	977.7	NA	0.0000	-SN BR	4800	330	0	0	0
2019/04/26 15:28:00	BASE	25.96	24	33.64	30	3.3	100	3.3	15	0	977.7	NA	0.0000	-SN BR	4100	330	0	0	0
2019/04/26 15:29:00	BASE	27.40	23	33.54	27	3.3	100	3.3	15	0	977.6	NA	0.0000	-SN BR	4000	330	0	0	0
2019/04/26 15:30:00	BASE	28.38	22	33.54	27	3.2	100	3.2	14	0	977.6	NA	0.2540	-SN BR	4700	330	0	0	0
2019/04/26 15:31:00	BASE	28.98	22	33.54	27	3.2	100	3.2	14	0	977.6	NA	0.0000	-SN BR	4200	330	0	0	0
2019/04/26 15:32:00	BASE	27.46	22	33.54	27	3.2	100	3.2	13	0	977.7	NA	0.0000	-SN BR	4000	330	0	0	0
2019/04/26 15:33:00	BASE	26.76	23	33.54	27	3.2	100	3.2	13	0	977.7	NA	0.0000	-SN BR	4400	330	0	0	0
2019/04/26 15:34:00	BASE	26.33	24	33.54	27	3.2	100	3.2	13	0	977.8	NA	0.0000	-SN BR	3500	330	0	0	0
2019/04/26 15:35:00	BASE	25.39	23	32.31	23	3.2	100	3.2	13	0	977.8	NA	0.0000	-SN BR	3600	300	0	0	0
2019/04/26 15:36:00	BASE	25.12	22	32.31	23	3.2	100	3.2	13	0	977.9	NA	0.0000	-SN BR	4400	330	1180	0	0
2019/04/26 15:37:00	BASE	24.88	24	32.31	23	3.2	100	3.2	14	0	977.9	NA	0.0000	-SN BR	3000	330	0	0	0
2019/04/26 15:38:00	BASE	24.95	25	32.31	23	3.2	100	3.2	14	0	977.9	NA	0.0000	-SN BR	2300	330	0	0	0
2019/04/26 15:39:00	BASE	24.60	26	32.31	23	3.2	100	3.2	15	0	977.9	NA	0.0000	-SN BR	3200	330	0	0	0
2019/04/26 15:40:00	BASE	24.44	24	30.61	23	3.2	100	3.2	15	0	977.9	NA	0.0000	-SN BR	3500	330	0	0	0
2019/04/26 15:41:00	BASE	23.82	22	29.58	26	3.2	100	3.2	15	0	978.0	NA	0.0000	-SN BR	3700	330	0	0	0
2019/04/26 15:42:00	BASE	22.55	21	29.58	26	3.2	100	3.2	15	0	978.0	NA	0.2540	-SN BR	6000	330	0	0	0
2019/04/26 15:43:00	BASE	22.38	20	29.58	26	3.2	100	3.2	15	0	977.9	NA	0.0000	-SN BR	6000	330	1570	0	0
2019/04/26 15:44:00	BASE	23.07	22	28.50	25	3.1	100	3.1	15	0	977.9	NA	0.0000	-SN BR	5000	330	0	0	0
2019/04/26 15:45:00	BASE	23.55	22	28.50	25	3.1	100	3.1	15	0	977.9	NA	0.0000	-SN BR	3600	330	0	0	0
2019/04/26 15:46:00	BASE	24.53	20	28.50	25	3.1	100	3.1	15	0	977.8	NA	0.0000	-SN BR	3200	330	0	0	0
2019/04/26 15:47:00	BASE	25.77	20	28.71	24	3.1	100	3.1	15	0	977.8	NA	0.0000	-SN BR	3900	330	0	0	0
2019/04/26 15:48:01	BASE	25.37	21	28.71	24	3.1	100	3.1	15	0	977.9	NA	0.0000	-SN BR	3200	300	0	0	0
2019/04/26 15:49:01	BASE	25.40	21	28.71	24	3.0	100	3.0	14	0	977.8	NA	0.0000	-SN BR	3400	330	0	0	0
2019/04/26 15:50:01	BASE	25.33	20	28.71	24	3.0	100	3.0	13	0	977.9	NA	0.0000	-SN BR	3600	330	0	0	0
2019/04/26 15:51:01	BASE	25.08	20	29.43	17	3.0	100	3.0	13	0	977.9	NA	0.0000	-SN BR	4100	330	1080	0	0
2019/04/26 15:52:01	BASE	26.57	22	32.10	33	3.0	100	3.0	13	0	977.8	NA	0.0000	-SN BR	3800	330	1120	0	0
2019/04/26 15:53:01	BASE	26.74	23	32.10	33	3.0	100	3.0	14	0	977.9	NA	0.0000	-SN BR	2500	330	1180	0	0
2019/04/26 15:54:01	BASE	25.81	23	32.10	33	3.0	100	3.0	14	0	977.8	NA	0.2540	-SN BR	2500	330	0	0	0
2019/04/26 15:55:01	BASE	25.57	24	32.10	33	3.0	100	3.0	14	0	977.8	NA	0.0000	-SN BR	2400	330	0	0	0
2019/04/26 15:56:01	BASE	25.52	22	32.10	33	3.0	100	3.0	14	0	977.8	NA	0.0000	-SN BR	2400	330	0	0	0
2019/04/26 15:57:01	BASE	25.38	20	32.10	33	3.0	100	3.0	14	0	977.9	NA	0.0000	-SN BR	2900	330	0	0	0
2019/04/26 15:58:01	BASE	25.43	21	32.10	33	3.0	100	3.0	15	0	977.8	NA	0.0000	-SN BR	3300	330	1050	0	0
2019/04/26 15:59:01	BASE	26.85	25	32.10	33	3.0	100	3.0	15	0	977.7	NA	0.0000	-SN BR	2800	360	1120	0	0
2019/04/26 16:00:01	BASE	27.29	27	32.10	33	3.0	100	3.0	15	0	977.7	NA	0.2540	-SN BR	2200	360	0	0	0
2019/04/26 16:01:01	BASE	25.98	27	32.10	33	3.0	100	3.0	14	0	977.7	NA	0.0000	-SN BR	2300	360	0	0	0
2019/04/26 16:02:01	BASE	26.98	27	32.72	26	3.0	100	3.0	14	0	977.7	NA	0.0000	-SN BR	2200	0	0	0	2230
2019/04/26 16:03:01	BASE	28.90	25	32.72	26	3.0	100	3.0	14	0	977.5	NA	0.0000	-SN BR	2100	0	0	0	2230
2019/04/26 16:04:01	BASE	29.08	24	32.72	26	3.0	100	3.0	13	0	977.6	NA	0.0000	-SN BR	2400	560	0	0	0
2019/04/26 16:05:01	BASE	29.09	23	32.72	26	3.0	100	3.0	13	0	977.6	NA	0.0000	-SN BR	2700	330	0	0	0
2019/04/26 16:06:01	BASE	27.05	19	32.72	26	2.9	100	2.9	14	0	977.8	NA	0.0000	-SN BR	2500	0	0	0	1970
2019/04/26 16:07:00	BASE	24.65	18	32.72	26	2.9	100	2.9	14	0	977.8	NA	0.2540	-SN BR	2200	0	0	0	2030
2019/04/26 16:08:00	BASE	25.58	20	32.72	26	2.9	100	2.9	14	0	977.8	NA	0.0000	-SN BR	2600	360	0	0	0
2019/04/26 16:09:00	BASE	25.02	21	32.72	26	2.8	100	2.8	15	0	977.8	NA	0.0000	-SN BR	3500	330	0	0	0
2019/04/26 16:10:00	BASE	25.43	23	32.72	26	2.8	100	2.8	14	0	977.7	NA	0.0000	-SN BR	3300	330	0	0	0
2019/04/26 16:11:00	BASE	27.11	25	32.72	26	2.8	100	2.8	15	0	977.7	NA	0.0000	-SN BR	2500	360	0	0	0
2019/04/26 16:12:00	BASE	27.64	25	32.20	21	2.8	100	2.8	14	0	977.7	NA	0.0000	-SN BR	2100	330	0	0	0
2019/04/26 16:13:00	BASE	28.89	23	32.20	21	2.8	100	2.8	14	0	977.8	NA	0.2540	-SN BR	2100	330	0	0	0
2019/04/26 16:14:00	BASE	29.40	23	32.46	23	2.8	100	2.8	14	0	977.8	NA	0.0000	-SN BR	2500	330	0	0	0
2019/04/26 16:15:00	BASE	29.47	21	32.46	23	2.8	100	2.8	14	0	977.8	NA	0.0000	-SN BR	2500	330	0	0	0
2019/04/26 16:16:00	BASE	28.80	21	32.46	23	2.8	100	2.8	15	0	977.8	NA	0.0000	-SN BR	2600	360	0	0	0
2019/04/26 16:17:00	BASE	28.78	21	32.46	23	2.8	100	2.8	15	0	977.7	NA	0.0000	-SN BR	2400	330	0	0	0
2019/04/26 16:18:00	BASE	29.52	21	32.46	23	2.8	100	2.8	14	0	977.8	NA	0.0000	-SN BR	2200	330	0	0	0
2019/04/26 16:19:00	BASE	28.73	20	32.46	23	2.8	100	2.8	14	0	977.9	NA	0.2540	-SN BR	2600	330	0	0	0
2019/04/26 16:20:00	BASE	27.00	19	32.46	23	2.8	100	2.8	14	0	977.9	NA	0.0000	-SN BR	2600	330	0	0	0
2019/04/26 16:21:00	BASE	26.97	20	32.46	23	2.7	100	2.7	14	0	977.9	NA	0.0000	-SN BR	2500	360	0	0	0
2019/04/26 16:22:00	BASE	28.14	22	32.98	25	2.7	100	2.7	13	0	977.8	NA	0.0000	-SN BR	2100	300	0	0	0
2019/04/26 16:23:00	BASE	27.98	21	32.98	25	2.7	100	2.7	13	0	978.0	NA	0.2540	-SN BR	1900	330	0	0	0
2019/04/26 16:24:00	BASE	26.06	19	32.98	25	2.6	100	2.6	13	0	978.1	NA	0.0000	-SN BR	2100	330	0	0	0
2019/04/26 16:25:00	BASE	25.13	18	32.98	25	2.6	100	2.6	13	0	978.1	NA	0.0000	-SN BR	2200	300	0	0	0
2019/04/26 16:26:00	BASE	25.99	18	32.98	25	2.6	100	2.6	13	0	978.0	NA	0.0000	-SN BR	2200	330	0	0	0
2019/04/26 16:27:00	BASE	26.99	19	32.98	25	2.5	100	2.5	13	0	978.0	NA	0.2540	-SN BR	2000	330	0	0	0
2019/04/26 16:28:00	BASE	26.24	18	32.98	25	2.5	100	2.5	13	0	978.2	NA	0.0000	-SN BR	2200	330	0	0	0
2019/04/26 16:29:00	BASE	23.64	17	32.98	25	2.5	100	2.5	13	0	978.2	NA	0.0000	-SN BR	2400	330	0	0	0
2019/04/26 16:30:00	BASE	24.13	18	32.98	25	2.4	100	2.4	13	0	978.1	NA	0.0000	-SN BR	2400	330	0	0	0
2019/04/26 16:31:00	BASE	25.58	16	32.98	25	2.4	100	2.4	13	0	978.1	NA	0.0000	-SN BR	2400	330	0	0	0
2019/04/26 16:32:00	BASE	24.62	16	30.46	23	2.4	100	2.4	13	0	978.2	NA	0.2540	-SN BR	2600	330	0	0	0
2019/04/26 16:33:00	BASE	24.87	18	29.37	23	2.3	100	2.3	13	0	978.1	NA	0.0000	-SN BR	2500	330	0	0	0
2019/04/26 16:34:00	BASE	26.28	19	29.37	23	2.3	100	2.3	13	0	978.1	NA	0.0000	-SN BR	2100	330	0	0	0
2019/04/26 16:35:00	BASE	27.20	19	29.73	18	2.3	100	2.3	13	0	978.0	NA	0.0000	-SN BR	2200	330	0	0	0
2019/04/26 16:36:00	BASE	27.16	18	29.73	18	2.3	100	2.3	13	0	978.0	NA	0.0000	-SN BR	2300	330	0	0	0
2019/04/26 16:37:00	BASE	26.15	17	29.73	18	2.3	100	2.3	13	0	978.1	NA	0.2540	-SN BR	2200	330	0	0	0
2019/04/26 16:38:00	BASE	26.07	18	29.73	18	2.3	100	2.3	13	0	978.1	NA	0.0000	-SN BR	2400	360	0	0	0
2019/04/26 16:39:00	BASE	25.44	18	29.73	18	2.3	100	2.3	13	0	978.2	NA	0.0000	-SN BR	2500	360	0	0	0
2019/04/26 16:40:00	BASE	24.46	17	29.73	18	2.3	100	2.3	13	0	978.2	NA	0.0000	-SN BR	2600	360	0	0	0
2019/04/26 16:41:00	BASE	23.89	16	29.73	18	2.3	100	2.3	13	0	978.2	NA	0.0000	-SN BR	2600	360	0	0	0
2019/04/26 16:42:00	BASE	23.69	15	29.73	18	2.2	100	2.2	13	0	978.2	NA	0.2540	-SN BR	2400	620	0	0	0
2019/04/26 16:43:00	BASE	24.31	15	29.73	18	2.2	100	2.2	13	0	978.2	NA	0.0000	-SN BR	2500	390	0	0	0
2019/04/26 16:44:00	BASE	24.83	16	29.73	18	2.2	100	2.2	13	0	978.2	NA	0.0000	-SN BR	2300	360	0	0	0
2019/04/26 16:45:00	BASE	23.98	14	29.63	14	2.2	100	2.2	14	0	978.3	NA	0.0000	-SN BR	2500	520	0	0	0
2019/04/26 16:46:00	BASE	21.89	13	29.48	20	2.2	100	2.2	14	0	978.4	NA	0.0000	-SN BR	4100	590	0	0	0
2019/04/26 16:47:00	BASE	20.82	16	29.48	20	2.2	100	2.2	13	0	978.4	NA	0.0000	-SN BR	3900	360	0	0	0
2019/04/26 16:48:00	BASE	22.35	16	27.68	11	2.1	100	2.1	13	0	978.3	NA	0.0000	-SN BR	2700	360	0	0	0
2019/04/26 16:49:00	BASE	24.91	15	28.76	15	2.1	100	2.1	12	0	978.3	NA	0.2540	-SN BR	2600	360	0	0	0
2019/04/26 16:50:00	BASE	24.89	15	28.76	15	2.1	100	2.1	12	0	978.3	NA	0.0000	-SN BR	2700	520	0	0	0
2019/04/26 16:51:00	BASE	24.35	14	28.76	15	2.1	100	2.1	12	0	978.3	NA	0.0000	-SN BR	2600	390	0	0	0
2019/04/26 16:52:00	BASE	24.34	14	28.76	15	2.1	100	2.1	13	0	978.4	NA	0.0000	-SN BR	2300	360	0	0	0
2019/04/26 16:53:00	BASE	23.73	14	28.76	15	2.1	100	2.1	13	0	978.4	NA	0.0000	-SN BR	2100	360	0	0	0
2019/04/26 16:54:00	BASE	22.95	14	28.76	15	2.0	100	2.0	15	0	978.4	NA	0.2540	-SN BR	2100	360	0	0	0
2019/04/26 16:55:00	BASE	22.91	14	28.76	15	2.0	100	2.0	15	0	978.4	NA	0.0000	-SN BR	2200	360	0	0	0
2019/04/26 16:56:01	BASE	23.10	13	28.76	15	2.0	100	2.0	16	0	978.4	NA	0.0000	-SN BR	2300	360	0	0	0
2019/04/26 16:57:01	BASE	23.02	14	28.76	15	2.0	100	2.0	16	0	978.5	NA	0.0000	-SN BR	2200	360	0	0	0
2019/04/26 16:58:01	BASE	23.04	16	28.76	15	2.0	100	2.0	16	0	978.5	NA	0.0000	-SN BR	2300	360	0	0	0
2019/04/26 16:59:01	BASE	23.41	16	27.21	20	2.0	100	2.0	15	0	978.5	NA	0.2540	-SN BR	2700	390	0	0	0
2019/04/26 17:00:01	BASE	23.52	16	27.01	22	1.9	100	1.9	15	0	978.4	NA	0.0000	-SN BR	2300	390	0	0	0
2019/04/26 17:01:01	BASE	23.36	14	27.01	22	1.9	100	1.9	15	0	978.4	NA	0.0000	-SN BR	2000	360	0	0	0
2019/04/26 17:02:01	BASE	23.77	14	27.01	22	1.9	100	1.9	15	0	978.4	NA	0.0000	-SN BR	2100	360	0	0	0
2019/04/26 17:03:01	BASE	23.94	15	27.01	22	1.9	100	1.9	16	0	978.4	NA	0.0000	-SN BR	2200	390	0	0	0
2019/04/26 17:04:01	BASE	23.59	10	27.01	22	1.9	100	1.9	17	0	978.5	NA	0.0000	-SN BR	2000	390	0	0	0
2019/04/26 17:05:01	BASE	23.57	9	27.01	22	1.9	100	1.9	17	0	978.5	NA	0.2540	-SN BR	2200	560	0	0	0
2019/04/26 17:06:01	BASE	23.36	10	27.01	22	1.9	100	1.9	17	0	978.6	NA	0.0000	-SN BR	2600	390	0	0	0
2019/04/26 17:07:01	BASE	22.30	7	27.01	22	1.9	100	1.9	18	0	978.6	NA	0.0000	-SN BR	3000	390	0	0	0
2019/04/26 17:08:01	BASE	20.98	4	27.01	22	1.9	100	1.9	19	0	978.6	NA	0.0000	-SN BR	3600	430	0	0	0
2019/04/26 17:09:01	BASE	22.55	5	27.27	7	1.8	100	1.8	20	0	978.4	NA	0.0000	-SN BR	3600	590	0	0	0
2019/04/26 17:10:01	BASE	25.65	11	32.31	14	1.8	100	1.8	20	0	978.4	NA	0.0000	-SN BR	3000	590	0	0	0
2019/04/26 17:11:01	BASE	25.01	10	32.31	14	1.8	100	1.8	21	0	978.5	NA	0.0000	-SN BR	2300	460	0	0	0
2019/04/26 17:12:01	BASE	22.57	6	32.31	14	1.8	100	1.8	21	0	978.6	NA	0.0000	-SN BR	3200	590	0	0	0
2019/04/26 17:13:01	BASE	23.45	4	32.31	14	1.9	100	1.9	19	0	978.5	NA	0.2540	-SN BR	5000	750	0	0	0
2019/04/26 17:14:01	BASE	22.89	5	32.31	14	1.9	100	1.9	19	0	978.7	NA	0.0000	-SN BR	3000	390	0	0	0
2019/04/26 17:15:01	BASE	21.56	7	32.31	14	1.9	100	1.9	17	0	978.6	NA	0.0000	-SN BR	2800	360	0	0	0
2019/04/26 17:16:00	BASE	22.42	6	32.31	14	1.9	100	1.9	17	0	978.7	NA	0.0000	-SN BR	3200	430	0	0	0
2019/04/26 17:17:00	BASE	22.61	4	32.31	14	1.9	100	1.9	15	0	978.6	NA	0.0000	-SN BR	2900	390	0	0	0
2019/04/26 17:18:00	BASE	22.62	5	32.31	14	1.9	100	1.9	15	0	978.7	NA	0.0000	-SN BR	3900	430	0	0	0
2019/04/26 17:19:00	BASE	22.00	359	32.31	14	1.9	100	1.9	14	0	978.7	NA	0.0000	-SN BR	3400	460	0	0	0
2019/04/26 17:20:00	BASE	21.98	0	27.68	11	1.9	100	1.9	13	0	978.7	NA	0.0000	-SN BR	3100	390	0	0	0
2019/04/26 17:21:00	BASE	20.48	3	27.68	11	1.9	100	1.9	13	0	978.9	NA	0.0000	-SN BR	3700	430	0	0	0
2019/04/26 17:22:00	BASE	18.87	359	27.68	11	1.9	100	1.9	13	0	978.9	NA	0.2540	-SN BR	3700	430	0	0	0
2019/04/26 17:23:00	BASE	18.96	1	25.98	8	1.9	100	1.9	13	0	978.9	NA	0.0000	-SN BR	3300	360	0	0	0
2019/04/26 17:24:00	BASE	18.26	3	25.98	8	1.9	100	1.9	14	0	979.0	NA	0.0000	-SN BR	2800	390	0	0	0
2019/04/26 17:25:00	BASE	16.79	359	25.98	8	1.9	100	1.9	14	0	979.0	NA	0.0000	-SN BR	3600	390	0	0	0
2019/04/26 17:26:00	BASE	16.87	349	25.83	3	1.9	100	1.9	14	0	979.0	NA	0.0000	-SN BR	4100	460	0	0	0
2019/04/26 17:27:00	BASE	17.50	338	25.83	3	1.8	100	1.8	14	0	979.1	NA	0.0000	-SN BR	3000	390	0	0	0
2019/04/26 17:28:00	BASE	16.39	346	24.13	10	1.8	100	1.8	14	0	979.1	NA	0.0000	-SN BR	2300	390	0	0	0
2019/04/26 17:29:00	BASE	15.97	357	24.13	10	1.8	100	1.8	14	0	979.1	NA	0.0000	-SN BR	2900	390	0	0	0
2019/04/26 17:30:00	BASE	16.32	356	21.66	360	1.8	100	1.8	13	0	979.1	NA	0.2540	-SN BR	4700	390	0	0	0
2019/04/26 17:31:00	BASE	15.29	354	20.63	5	1.8	100	1.8	13	0	979.2	NA	0.0000	-SN BR	4300	360	0	0	0
2019/04/26 17:32:00	BASE	14.23	358	20.27	2	1.8	100	1.8	13	0	979.2	NA	0.0000	-SN BR	4600	430	0	0	0
2019/04/26 17:33:00	BASE	12.94	356	20.27	2	1.8	100	1.8	13	0	979.2	NA	0.0000	-SN BR	5000	360	0	0	0
2019/04/26 17:34:00	BASE	11.86	350	19.24	350	1.8	100	1.8	14	0	979.2	NA	0.0000	-SN BR	6000	390	0	0	0
2019/04/26 17:35:00	BASE	12.67	345	19.24	350	1.8	100	1.8	14	0	979.2	NA	0.0000	-SN BR	4300	390	0	0	0
2019/04/26 17:36:00	BASE	13.61	350	18.78	222	1.8	100	1.8	14	0	979.2	NA	0.0000	-SN BR	3400	360	0	0	0
2019/04/26 17:37:00	BASE	14.04	358	18.42	353	1.8	100	1.8	15	0	979.2	NA	0.0000	-SN BR	3700	390	0	0	0
2019/04/26 17:38:00	BASE	14.56	0	18.42	353	1.7	100	1.7	15	0	979.3	NA	0.2540	-SN BR	4100	390	0	0	0
2019/04/26 17:39:00	BASE	13.94	358	18.42	353	1.7	100	1.7	16	0	979.3	NA	0.0000	-SN BR	5000	360	0	0	0
2019/04/26 17:40:00	BASE	14.00	357	17.70	353	1.7	100	1.7	16	0	979.2	NA	0.0000	-SN BR	4800	430	0	0	0
2019/04/26 17:41:00	BASE	14.75	3	16.31	3	1.6	100	1.6	17	0	979.2	NA	0.0000	-SN BR	4100	360	0	0	0
2019/04/26 17:42:00	BASE	14.45	6	15.95	1	1.6	100	1.6	17	0	979.2	NA	0.0000	-SN BR	5000	430	0	0	0
2019/04/26 17:43:00	BASE	14.27	6	15.95	1	1.6	100	1.6	18	0	979.2	NA	0.0000	-SN BR	5000	430	0	0	0
2019/04/26 17:44:00	BASE	14.95	7	16.31	5	1.6	100	1.6	17	0	979.2	NA	0.0000	-SN BR	4600	460	0	0	0
2019/04/26 17:45:00	BASE	14.68	8	16.31	5	1.7	100	1.7	18	0	979.2	NA	0.0000	-SN BR	5000	490	0	0	0
2019/04/26 17:46:00	BASE	13.26	9	16.31	5	1.7	100	1.7	18	0	979.2	NA	0.2540	-SN BR	6000	460	0	0	0
2019/04/26 17:47:00	BASE	13.09	11	16.31	5	1.7	100	1.7	18	0	979.2	NA	0.0000	-SN BR	9000	660	0	0	0
2019/04/26 17:48:00	BASE	14.58	14	16.57	17	1.7	100	1.7	17	0	979.1	NA	0.0000	-SN BR	7000	520	0	0	0
2019/04/26 17:49:00	BASE	15.01	17	16.57	17	1.7	100	1.7	17	0	979.1	NA	0.0000	-SN BR	5000	490	0	0	0
2019/04/26 17:50:00	BASE	13.70	15	16.57	17	1.7	100	1.7	18	0	979.2	NA	0.0000	-SN BR	7000	560	0	0	0
2019/04/26 17:51:00	BASE	13.04	12	16.57	17	1.8	100	1.8	19	0	979.2	NA	0.0000	-SN BR	9999	1280	0	0	0
2019/04/26 17:52:00	BASE	13.16	10	16.57	17	1.8	100	1.8	20	0	979.2	NA	0.0000	-SN BR	9999	590	0	0	0
2019/04/26 17:53:00	BASE	13.77	14	16.57	17	1.8	100	1.8	20	0	979.1	NA	0.0000	-SN BR	9999	560	0	0	0
2019/04/26 17:54:00	BASE	14.20	18	16.57	17	1.9	100	1.9	19	0	979.1	NA	0.0000	-SN BR	9999	560	0	0	0
2019/04/26 17:55:00	BASE	14.08	17	16.57	17	1.9	100	1.9	18	0	979.2	NA	0.0000	-SN BR	9999	590	0	0	0
2019/04/26 17:56:00	BASE	13.80	18	16.57	17	1.9	100	1.9	18	0	979.1	NA	0.0000	-SN BR	9000	560	0	0	0
2019/04/26 17:57:01	BASE	12.91	17	16.57	17	1.9	100	1.9	17	0	979.2	NA	0.0000	-SN BR	7000	0	0	0	2200
2019/04/26 17:58:01	BASE	12.38	20	15.74	23	1.9	100	1.9	17	0	979.2	NA	0.0000	-SN BR	9999	620	0	0	0
2019/04/26 17:59:01	BASE	11.69	24	15.74	23	2.0	100	2.0	17	0	979.2	NA	0.0000	-SN	9999	620	0	0	0
2019/04/26 18:00:01	BASE	10.58	24	15.74	23	2.0	100	2.0	17	0	979.2	NA	0.0000	-SN	9999	660	0	0	0
2019/04/26 18:01:01	BASE	10.02	28	15.74	23	2.0	100	2.0	18	0	979.2	NA	0.0000	-SN	9999	590	0	0	0
2019/04/26 18:02:01	BASE	10.52	28	15.74	23	2.0	100	2.0	18	0	979.2	NA	0.0000	-SN	9999	0	0	0	3180
2019/04/26 18:03:01	BASE	11.24	26	15.74	23	2.1	100	2.1	18	0	979.2	NA	0.0000	-SN	9999	0	0	0	2950
2019/04/26 18:04:01	BASE	10.72	25	15.74	23	2.1	100	2.1	19	0	979.3	NA	0.0000	-SN	9999	0	0	0	2920
2019/04/26 18:05:01	BASE	9.49	24	14.92	16	2.1	100	2.1	19	0	979.3	NA	0.0000	-SN	9999	0	0	0	2890
2019/04/26 18:06:01	BASE	7.93	27	14.10	9	2.2	100	2.2	20	0	979.3	NA	0.0000	-SN	9999	0	0	0	3610
2019/04/26 18:07:01	BASE	7.13	29	13.58	23	2.2	100	2.2	20	0	979.3	NA	0.0000	-SN	9999	0	0	0	3380
2019/04/26 18:08:01	BASE	7.98	32	13.22	21	2.2	100	2.2	19	0	979.3	NA	0.0000	-SN	9999	660	0	0	0
2019/04/26 18:09:01	BASE	8.41	37	13.22	21	2.3	100	2.3	19	0	979.3	NA	0.0000	-SN	9999	720	0	0	0
2019/04/26 18:10:01	BASE	7.40	44	13.22	21	2.3	100	2.3	17	0	979.3	NA	0.0000		9999	750	0	0	0
2019/04/26 18:11:01	BASE	5.95	49	13.22	21	2.3	100	2.3	17	0	979.3	NA	0.0000		9999	0	0	0	3480
2019/04/26 18:12:01	BASE	5.51	39	12.04	29	2.4	100	2.4	16	0	979.4	NA	0.0000		9999	750	0	0	0
2019/04/26 18:13:01	BASE	5.55	35	11.88	26	2.4	100	2.4	16	0	979.5	NA	0.0000		9999	720	0	0	0
2019/04/26 18:14:01	BASE	5.38	39	10.24	33	2.5	100	2.5	15	0	979.5	NA	0.2540		9999	790	0	0	0
2019/04/26 18:15:01	BASE	6.56	33	10.24	33	2.5	100	2.5	15	0	979.5	NA	0.0000		9999	590	0	0	0
2019/04/26 18:16:01	BASE	7.22	24	10.24	33	2.5	100	2.5	15	0	979.5	NA	0.0000		9999	720	1710	0	0
2019/04/26 18:17:01	BASE	7.41	24	10.24	33	2.5	100	2.5	15	0	979.6	NA	0.0000		9999	850	2890	0	0
2019/04/26 18:18:01	BASE	8.17	24	9.62	39	2.4	100	2.4	15	0	979.6	NA	0.0000		9999	790	0	0	0
2019/04/26 18:19:01	BASE	8.36	21	8.95	15	2.4	100	2.4	14	0	979.6	NA	0.0000		9999	750	2260	0	0
2019/04/26 18:20:01	BASE	8.35	20	9.41	16	2.4	100	2.4	14	0	979.6	NA	0.0000		9999	790	0	0	0
2019/04/26 18:21:01	BASE	8.66	22	9.57	20	2.3	100	2.3	13	0	979.5	NA	0.0000		9999	720	0	0	0
2019/04/26 18:22:01	BASE	9.02	26	10.24	28	2.3	100	2.3	13	0	979.5	NA	0.0000		9999	1570	2360	0	0
2019/04/26 18:23:01	BASE	8.90	30	10.24	28	2.3	100	2.3	13	0	979.5	NA	0.0000		9999	2260	0	0	0
2019/04/26 18:24:00	BASE	8.09	34	10.24	28	2.3	100	2.3	13	0	979.5	NA	0.0000		9999	1670	0	0	0
2019/04/26 18:25:00	BASE	7.40	36	10.24	28	2.3	100	2.3	13	0	979.5	NA	0.0000		9999	1900	0	0	0
2019/04/26 18:26:00	BASE	7.64	32	10.24	28	2.3	100	2.3	12	0	979.5	NA	0.0000		9999	0	0	0	2920
2019/04/26 18:27:00	BASE	7.40	25	10.24	28	2.3	100	2.3	12	0	979.5	NA	0.0000		9999	890	0	0	0
2019/04/26 18:28:00	BASE	6.39	27	10.24	28	2.4	100	2.4	13	0	979.5	NA	0.0000		9999	0	0	0	2820
2019/04/26 18:29:00	BASE	6.13	34	10.24	28	2.4	100	2.4	14	0	979.5	NA	0.0000		9999	0	0	0	2790
2019/04/26 18:30:00	BASE	6.21	33	10.24	28	2.4	100	2.4	14	0	979.5	NA	0.0000		9999	0	0	0	2820
2019/04/26 18:31:00	BASE	5.94	31	10.24	28	2.4	100	2.3	15	0	979.5	NA	0.0000		9999	0	0	0	3180
2019/04/26 18:32:00	BASE	6.14	33	9.26	28	2.3	100	2.3	15	0	979.5	NA	0.0000		9999	0	0	0	3280
2019/04/26 18:33:00	BASE	6.39	33	9.21	35	2.3	100	2.3	15	0	979.4	NA	0.0000		9999	0	0	0	3150
2019/04/26 18:34:00	BASE	6.15	32	9.21	35	2.3	100	2.3	15	0	979.3	NA	0.0000		9999	0	0	0	2950
2019/04/26 18:35:00	BASE	6.14	33	9.21	35	2.3	100	2.3	15	0	979.3	NA	0.0000		9999	0	0	0	2890
2019/04/26 18:36:00	BASE	6.12	36	7.56	17	2.3	100	2.3	15	0	979.3	NA	0.0000		9999	0	0	0	2890
2019/04/26 18:37:00	BASE	5.93	42	7.51	35	2.3	100	2.3	16	0	979.3	NA	0.0000		9999	0	0	0	2850
2019/04/26 18:38:00	BASE	4.88	43	7.51	35	2.3	100	2.3	16	0	979.4	NA	0.0000	UP	9999	0	0	0	2950
2019/04/26 18:39:00	BASE	4.57	36	7.51	35	2.3	100	2.3	16	0	979.5	NA	0.0000	UP	9999	0	0	0	3150
2019/04/26 18:40:00	BASE	5.44	20	7.51	35	2.3	100	2.3	16	0	979.5	NA	0.0000	UP	9999	0	0	0	3280
2019/04/26 18:41:00	BASE	5.79	9	7.51	35	2.3	100	2.3	15	0	979.5	NA	0.0000	UP	9999	720	0	0	0
2019/04/26 18:42:00	BASE	5.81	9	7.51	35	2.3	100	2.3	14	0	979.6	NA	0.0000	UP	9999	690	0	0	0
2019/04/26 18:43:00	BASE	5.95	12	7.41	24	2.3	100	2.3	13	0	979.6	NA	0.0000	UP	9999	750	0	0	0
2019/04/26 18:44:00	BASE	6.28	16	7.15	16	2.3	100	2.3	13	0	979.6	NA	0.0000	UP	9999	720	0	0	0
2019/04/26 18:45:00	BASE	6.38	21	7.15	16	2.3	100	2.3	12	0	979.6	NA	0.0000	UP	9999	750	0	0	0
2019/04/26 18:46:00	BASE	5.80	24	7.15	16	2.3	100	2.3	12	0	979.6	NA	0.0000	UP	9999	750	0	0	0
2019/04/26 18:47:00	BASE	5.14	24	7.15	16	2.2	100	2.2	12	0	979.6	NA	0.0000	UP	9999	790	0	0	0
2019/04/26 18:48:00	BASE	4.77	21	7.15	16	2.2	100	2.2	12	0	979.6	NA	0.0000	UP	9999	820	0	0	0
2019/04/26 18:49:00	BASE	4.50	18	7.15	16	2.2	100	2.2	12	0	979.7	NA	0.0000	UP	9999	790	0	0	0
2019/04/26 18:50:00	BASE	4.82	14	7.15	16	2.2	100	2.2	11	0	979.7	NA	0.0000	UP	9999	790	0	0	0
2019/04/26 18:51:00	BASE	5.59	11	7.15	16	2.2	100	2.2	11	0	979.7	NA	0.0000	UP	9999	850	0	0	0
2019/04/26 18:52:00	BASE	5.89	8	7.15	16	2.1	100	2.1	11	0	979.7	NA	0.0000	UP	9999	820	2260	0	0
2019/04/26 18:53:00	BASE	5.76	5	7.15	16	2.1	100	2.1	11	0	979.7	NA	0.0000	UP	9999	850	0	0	0
2019/04/26 18:54:00	BASE	5.56	1	6.64	23	2.0	100	2.0	11	0	979.7	NA	0.0000	UP	9999	850	0	0	0
2019/04/26 18:55:00	BASE	5.32	355	6.38	10	2.0	100	2.0	11	0	979.7	NA	0.0000	UP	9999	820	0	0	0
2019/04/26 18:56:00	BASE	5.21	357	6.38	10	1.9	100	1.9	11	0	979.7	NA	0.0000		9999	850	0	0	0
2019/04/26 18:57:00	BASE	5.49	359	6.38	10	1.9	100	1.9	12	0	979.7	NA	0.0000		9999	790	0	0	0
2019/04/26 18:58:00	BASE	5.75	355	6.38	10	1.9	100	1.9	12	0	979.7	NA	0.0000		9999	750	0	0	0
2019/04/26 18:59:00	BASE	5.87	356	6.94	3	1.9	100	1.9	12	0	979.7	NA	0.0000		9999	820	0	0	0
2019/04/26 19:00:00	BASE	5.86	353	6.94	3	1.9	100	1.9	11	0	979.7	NA	0.0000		9999	820	0	0	0
2019/04/26 19:01:00	BASE	5.56	346	6.94	3	2.0	100	2.0	11	0	979.7	NA	0.0000		9999	720	0	0	0
2019/04/26 19:02:01	BASE	5.57	352	6.94	3	2.0	100	2.0	11	0	979.7	NA	0.0000		9999	660	1800	0	0
2019/04/26 19:03:00	BASE	5.93	1	6.94	3	2.1	100	2.1	11	0	979.7	NA	0.0000	UP	9999	590	0	0	0
2019/04/26 19:04:01	BASE	6.09	358	6.94	3	2.1	100	2.1	11	0	979.7	NA	0.0000	UP	9999	660	0	0	0
2019/04/26 19:05:01	BASE	6.10	353	6.94	3	2.1	100	2.1	11	0	979.7	NA	0.0000	UP	9999	660	0	0	0
2019/04/26 19:06:01	BASE	6.07	348	6.94	3	2.1	100	2.1	12	0	979.7	NA	0.0000	UP	9999	620	0	0	0
2019/04/26 19:07:01	BASE	5.74	344	6.94	3	2.1	100	2.1	12	0	979.8	NA	0.0000	UP	9999	660	0	0	0
2019/04/26 19:08:01	BASE	5.19	341	6.94	3	2.1	100	2.1	12	0	979.8	NA	0.0000	UP	9999	590	1540	0	0
2019/04/26 19:09:01	BASE	5.03	342	6.64	345	2.0	100	2.0	13	0	979.8	NA	0.0000	UP	9999	520	1640	0	0
2019/04/26 19:10:01	BASE	5.35	339	6.64	345	1.9	100	1.9	13	0	979.8	NA	0.0000	UP	9999	590	1670	0	0
2019/04/26 19:11:01	BASE	6.08	322	8.18	312	1.9	100	1.9	13	0	979.8	NA	0.0000	UP	9999	690	1870	0	0
2019/04/26 19:12:01	BASE	7.31	312	8.59	307	1.8	100	1.8	14	0	979.8	NA	0.0000	UP	9999	690	1940	0	0
2019/04/26 19:13:01	BASE	8.33	308	9.52	303	1.7	100	1.7	14	0	979.8	NA	0.0000	UP	9999	750	0	0	0
2019/04/26 19:14:01	BASE	8.61	306	9.67	307	1.6	100	1.6	14	0	979.8	NA	0.0000	UP	9999	660	0	0	0
2019/04/26 19:15:01	BASE	7.95	308	9.67	307	1.6	100	1.6	16	0	979.8	NA	0.0000	UP	9999	620	0	0	0
2019/04/26 19:16:01	BASE	7.05	314	9.67	307	1.5	100	1.5	16	0	979.8	NA	0.0000	UP	9999	660	0	0	0
2019/04/26 19:17:01	BASE	6.92	317	9.67	307	1.4	100	1.4	17	0	979.8	NA	0.0000	UP	9999	790	0	0	0
2019/04/26 19:18:01	BASE	7.02	319	9.67	307	1.4	100	1.4	17	0	979.8	NA	0.0000	UP	9999	720	0	0	0
2019/04/26 19:19:01	BASE	7.13	320	9.67	307	1.3	100	1.3	17	0	979.8	NA	0.0000	UP	9999	750	0	0	0
2019/04/26 19:20:01	BASE	7.47	326	9.67	307	1.3	100	1.3	18	0	979.9	NA	0.0000		9999	850	1970	0	0
2019/04/26 19:21:01	BASE	7.75	335	9.67	307	1.2	100	1.2	18	0	979.9	NA	0.0000		9999	720	2000	0	0
2019/04/26 19:22:01	BASE	8.03	340	9.67	307	1.2	100	1.2	19	0	979.9	NA	0.0000		9999	390	0	0	0
2019/04/26 19:23:01	BASE	9.19	341	11.78	335	1.2	100	1.2	21	0	979.9	NA	0.0000		9999	360	0	0	0
2019/04/26 19:24:01	BASE	10.25	341	11.78	335	1.2	100	1.2	24	0	979.8	NA	0.0000	UP	9999	430	0	0	0
2019/04/26 19:25:01	BASE	10.06	341	11.78	335	1.2	100	1.2	27	0	979.8	NA	0.0000	UP	9999	1080	0	0	0
2019/04/26 19:26:01	BASE	10.05	342	11.78	335	1.2	100	1.2	31	0	979.8	NA	0.0000	UP	9999	620	0	0	0
2019/04/26 19:27:01	BASE	10.10	344	11.78	335	1.1	100	1.1	35	0	979.8	NA	0.0000	UP	9999	490	0	0	0
2019/04/26 19:28:01	BASE	9.64	346	11.78	335	1.1	100	1.1	39	0	979.8	NA	0.0000	UP	9999	490	0	0	0
2019/04/26 19:29:01	BASE	9.09	347	11.78	335	1.1	100	1.1	43	0	979.8	NA	0.0000	UP	9999	590	0	0	0
2019/04/26 19:30:01	BASE	8.74	345	11.78	335	1.1	100	1.1	48	0	979.9	NA	0.0000	UP	9999	460	0	0	0
2019/04/26 19:31:01	BASE	8.66	345	11.78	335	1.1	100	1.1	51	0	979.9	NA	0.0000	UP	9999	520	0	0	0
2019/04/26 19:32:01	BASE	8.24	346	11.78	335	1.1	100	1.1	53	0	979.9	NA	0.0000	UP	9999	590	0	0	0
2019/04/26 19:33:01	BASE	7.50	345	11.21	332	1.1	100	1.1	53	0	979.9	NA	0.0000	UP	9999	490	2260	0	0
2019/04/26 19:34:01	BASE	7.07	344	11.06	346	1.1	100	1.1	51	0	979.9	NA	0.0000	UP	9999	720	2660	0	0
2019/04/26 19:35:01	BASE	7.21	344	11.06	346	1.1	100	1.1	49	0	979.9	NA	0.0000	UP	9999	2400	0	0	0
2019/04/26 19:36:01	BASE	7.31	345	10.55	344	1.1	100	1.1	46	0	979.9	NA	0.0000	UP	9999	1870	2360	0	0
2019/04/26 19:37:01	BASE	7.16	345	9.88	341	1.2	100	1.2	43	0	979.9	NA	0.0000	UP	9999	1510	2460	0	0
2019/04/26 19:38:01	BASE	7.35	344	9.41	345	1.2	100	1.2	40	0	979.9	NA	0.0000		9999	1480	2300	0	0
2019/04/26 19:39:01	BASE	7.50	344	9.41	345	1.2	100	1.2	38	0	979.9	NA	0.0000		9999	1670	0	0	0
2019/04/26 19:40:01	BASE	7.47	344	9.05	347	1.2	100	1.2	36	0	979.9	NA	0.0000		9999	1710	0	0	0
2019/04/26 19:41:01	BASE	7.57	342	8.75	348	1.3	100	1.3	35	0	980.0	NA	0.0000		9999	1800	0	0	0
2019/04/26 19:42:01	BASE	7.43	341	8.18	341	1.3	100	1.3	34	0	980.0	NA	0.0000		9999	1870	0	0	0
2019/04/26 19:43:01	BASE	7.03	341	8.18	341	1.3	100	1.3	33	0	980.1	NA	0.0000		9999	1840	0	0	0
2019/04/26 19:44:01	BASE	7.05	341	8.18	341	1.3	100	1.3	31	0	980.1	NA	0.0000		9999	1870	0	0	0
2019/04/26 19:45:01	BASE	7.58	338	8.28	336	1.3	100	1.3	30	0	980.1	NA	0.0000		9999	1840	0	0	0
2019/04/26 19:46:01	BASE	7.79	336	8.28	336	1.3	100	1.3	29	0	980.1	NA	0.0000		9999	1280	0	0	0
2019/04/26 19:47:01	BASE	7.90	335	8.49	336	1.3	100	1.3	27	0	980.1	NA	0.0000		9999	1210	1840	0	0
2019/04/26 19:48:01	BASE	8.22	335	8.64	336	1.3	100	1.3	27	0	980.1	NA	0.0000		9999	1210	0	0	0
2019/04/26 19:49:01	BASE	8.22	336	8.64	336	1.3	100	1.3	28	0	980.1	NA	0.0000		9999	1150	0	0	0
2019/04/26 19:50:01	BASE	8.06	340	8.64	336	1.3	100	1.3	29	0	980.1	NA	0.0000		9999	1250	0	0	0
2019/04/26 19:51:01	BASE	8.12	343	8.75	344	1.3	100	1.3	29	0	980.1	NA	0.0000		9999	1180	0	0	0
2019/04/26 19:52:01	BASE	8.17	345	8.75	344	1.3	100	1.3	28	0	980.1	NA	0.0000		9999	1280	0	0	0
2019/04/26 19:53:01	BASE	8.13	347	8.75	344	1.3	100	1.3	27	0	980.1	NA	0.0000		9999	1410	22770	0	0
2019/04/26 19:54:01	BASE	7.85	347	8.75	344	1.3	100	1.3	26	0	980.1	NA	0.0000		9999	1350	0	0	0
2019/04/26 19:55:01	BASE	7.20	347	8.75	344	1.3	100	1.3	24	0	980.1	NA	0.0000		9999	1380	0	0	0
2019/04/26 19:56:01	BASE	7.14	347	8.75	344	1.3	100	1.3	23	0	980.2	NA	0.0000		9999	1540	0	0	0
2019/04/26 19:57:01	BASE	7.26	344	8.75	344	1.3	100	1.3	22	0	980.2	NA	0.0000		9999	1350	0	0	0
2019/04/26 19:58:01	BASE	7.35	340	8.75	344	1.3	100	1.3	22	0	980.2	NA	0.0000		9999	1150	0	0	0
2019/04/26 19:59:01	BASE	7.51	343	8.75	344	1.3	100	1.3	22	0	980.2	NA	0.0000		9999	1210	0	0	0
2019/04/26 20:00:01	BASE	7.20	347	8.75	344	1.4	100	1.4	20	0	980.2	NA	0.0000		9999	1150	0	0	0
2019/04/26 20:01:01	BASE	6.86	343	8.54	331	1.4	100	1.4	16	0	980.2	NA	0.0000		9999	1180	1770	0	0
2019/04/26 20:02:01	BASE	7.18	339	8.54	331	1.5	100	1.5	13	0	980.2	NA	0.0000		9999	1120	0	0	0
2019/04/26 20:03:01	BASE	7.55	341	8.54	331	1.5	100	1.5	10	0	980.2	NA	0.0000		9999	1150	0	0	0
2019/04/26 20:04:01	BASE	7.60	343	8.54	331	1.5	100	1.5	8	0	980.2	NA	0.0000		9999	980	0	0	0
2019/04/26 20:05:01	BASE	7.65	344	8.54	331	1.5	100	1.5	6	0	980.2	NA	0.0000		9999	950	0	0	0
2019/04/26 20:06:01	BASE	7.79	343	8.54	331	1.5	100	1.5	5	0	980.2	NA	0.0000		9999	1150	0	0	0
2019/04/26 20:07:01	BASE	7.90	343	8.85	340	1.5	100	1.5	5	0	980.2	NA	0.0000		9999	1250	0	0	0
2019/04/26 20:08:01	BASE	7.89	344	8.95	349	1.5	100	1.5	5	0	980.1	NA	0.0000		9999	1250	0	0	0
2019/04/26 20:09:01	BASE	7.71	347	8.95	349	1.6	100	1.6	4	0	980.2	NA	0.0000		9999	1150	0	0	0
2019/04/26 20:10:01	BASE	7.53	346	8.95	349	1.6	100	1.6	4	0	980.1	NA	0.0000		9999	1310	0	0	0
2019/04/26 20:11:01	BASE	7.80	345	9.00	348	1.6	100	1.6	3	0	980.1	NA	0.0000		9999	1280	0	0	0
2019/04/26 20:12:01	BASE	8.23	344	9.00	348	1.6	100	1.6	3	0	980.1	NA	0.0000		9999	1250	0	0	0
2019/04/26 20:13:00	BASE	8.73	344	9.88	340	1.6	100	1.6	2	0	980.1	NA	0.0000		9999	1020	0	0	0
2019/04/26 20:14:01	BASE	9.16	340	9.88	337	1.6	100	1.6	2	0	980.1	NA	0.0000		9999	1050	0	0	0
2019/04/26 20:15:01	BASE	9.52	338	10.39	344	1.6	100	1.6	2	0	980.2	NA	0.0000		9999	1020	0	0	0
2019/04/26 20:16:00	BASE	9.34	340	10.39	344	1.6	100	1.6	2	0	980.2	NA	0.0000		9999	1180	0	0	0
2019/04/26 20:17:00	BASE	8.91	340	10.39	344	1.6	100	1.6	2	0	980.2	NA	0.0000		9999	1120	0	0	0
2019/04/26 20:18:01	BASE	8.85	342	10.39	344	1.6	100	1.6	2	0	980.2	NA	0.0000		9999	1120	0	0	0
2019/04/26 20:19:01	BASE	8.76	342	10.39	344	1.5	100	1.5	2	0	980.2	NA	0.0000		9999	1120	0	0	0
2019/04/26 20:20:00	BASE	8.67	339	10.39	344	1.5	100	1.5	1	0	980.2	NA	0.0000		9999	1050	0	0	0
2019/04/26 20:21:00	BASE	8.60	339	10.39	344	1.5	100	1.5	1	0	980.2	NA	0.0000		9999	1050	0	0	0
2019/04/26 20:22:00	BASE	8.88	339	10.39	344	1.5	100	1.5	1	0	980.2	NA	0.0000		9999	1020	0	0	0
2019/04/26 20:23:01	BASE	9.25	339	10.39	344	1.5	100	1.5	1	0	980.2	NA	0.0000		9999	1020	0	0	0
2019/04/26 20:24:01	BASE	9.59	339	10.80	342	1.5	100	1.5	1	0	980.2	NA	0.0000		9999	1020	0	0	0
2019/04/26 20:25:01	BASE	10.21	338	10.96	342	1.5	100	1.5	1	0	980.2	NA	0.0000		9999	1020	0	0	0
2019/04/26 20:26:01	BASE	10.39	337	10.96	342	1.5	100	1.5	1	0	980.3	NA	0.0000		9999	1050	0	0	0
2019/04/26 20:27:01	BASE	10.14	337	10.96	342	1.6	100	1.6	1	0	980.3	NA	0.0000		9999	1050	0	0	0
2019/04/26 20:28:00	BASE	10.43	338	11.68	342	1.6	100	1.6	1	0	980.3	NA	0.0000		9999	1050	0	0	0
2019/04/26 20:29:00	BASE	10.95	337	11.68	342	1.6	100	1.6	1	0	980.3	NA	0.0000		9999	980	0	0	0
2019/04/26 20:30:00	BASE	11.10	338	11.99	333	1.6	100	1.6	1	0	980.3	NA	0.0000		9999	950	0	0	0
2019/04/26 20:31:00	BASE	10.92	338	11.99	333	1.6	100	1.6	1	0	980.3	NA	0.0000		9999	890	0	0	0
2019/04/26 20:32:00	BASE	10.76	337	11.99	333	1.6	100	1.6	1	0	980.3	NA	0.0000		9999	920	0	0	0
2019/04/26 20:33:00	BASE	10.87	337	12.04	336	1.6	100	1.6	1	0	980.3	NA	0.0000		9999	1020	0	0	0
2019/04/26 20:34:00	BASE	11.00	336	12.04	336	1.6	100	1.6	1	0	980.3	NA	0.0000		9999	920	0	0	0
2019/04/26 20:35:01	BASE	11.19	337	12.14	335	1.6	100	1.6	1	0	980.3	NA	0.0000		9999	920	0	0	0
2019/04/26 20:36:00	BASE	11.46	339	12.19	339	1.6	100	1.6	1	0	980.3	NA	0.0000		9999	920	0	0	0
2019/04/26 20:37:01	BASE	11.56	341	12.30	338	1.6	100	1.6	1	0	980.3	NA	0.0000		9999	920	0	0	0
2019/04/26 20:38:01	BASE	11.63	341	12.76	344	1.5	100	1.5	0	0	980.3	NA	0.0000		9999	920	0	0	0
2019/04/26 20:39:01	BASE	11.76	342	12.76	344	1.5	100	1.5	0	0	980.3	NA	0.0000		9999	890	0	0	0
2019/04/26 20:40:01	BASE	11.30	342	12.76	344	1.5	100	1.5	0	0	980.3	NA	0.0000		9999	890	0	0	0
2019/04/26 20:41:01	BASE	11.02	341	12.76	344	1.5	100	1.5	0	0	980.3	NA	0.0000		9999	920	0	0	0
2019/04/26 20:42:01	BASE	11.62	339	12.76	344	1.4	100	1.4	0	0	980.3	NA	0.0000		9999	820	0	0	0
2019/04/26 20:43:01	BASE	12.22	339	13.02	341	1.4	100	1.4	0	0	980.4	NA	0.0000		9999	790	0	0	0
2019/04/26 20:44:01	BASE	12.26	340	13.02	341	1.4	100	1.4	0	0	980.4	NA	0.0000		9999	750	0	0	0
2019/04/26 20:45:01	BASE	12.31	340	13.32	345	1.4	100	1.4	0	0	980.4	NA	0.0000		9999	720	0	0	0
2019/04/26 20:46:01	BASE	12.32	341	13.32	345	1.4	100	1.4	0	0	980.4	NA	0.0000		9999	690	0	0	0
2019/04/26 20:47:01	BASE	12.20	342	13.48	346	1.4	100	1.4	0	0	980.4	NA	0.0000		9999	590	0	0	0
2019/04/26 20:48:01	BASE	12.28	341	13.48	346	1.4	100	1.4	0	0	980.4	NA	0.0000		9999	590	0	0	0
2019/04/26 20:49:01	BASE	11.90	340	13.48	346	1.4	100	1.4	0	0	980.4	NA	0.0000		9999	620	0	0	0
2019/04/26 20:50:01	BASE	11.81	338	13.48	346	1.4	100	1.4	0	0	980.4	NA	0.0000		9999	750	0	0	0
2019/04/26 20:51:01	BASE	12.00	338	13.48	346	1.4	100	1.4	0	0	980.4	NA	0.0000		9999	620	0	0	0
2019/04/26 20:52:01	BASE	11.51	341	13.48	346	1.4	100	1.4	0	0	980.4	NA	0.0000		9999	690	0	0	0
2019/04/26 20:53:01	BASE	10.87	344	13.48	346	1.4	100	1.4	0	0	980.4	NA	0.0000		9999	690	0	0	0
2019/04/26 20:54:01	BASE	10.49	348	13.48	346	1.4	100	1.4	0	0	980.3	NA	0.0000		9999	750	0	0	0
2019/04/26 20:55:01	BASE	10.63	352	13.48	346	1.4	100	1.4	0	0	980.3	NA	0.0000		9999	750	0	0	0
2019/04/26 20:56:01	BASE	10.94	352	13.48	346	1.4	100	1.4	0	0	980.3	NA	0.0000		9999	690	0	0	0
2019/04/26 20:57:01	BASE	10.99	354	13.12	338	1.4	100	1.4	0	0	980.3	NA	0.0000		9999	750	0	0	0
2019/04/26 20:58:01	BASE	10.90	354	12.96	336	1.5	100	1.5	0	0	980.3	NA	0.0000		9999	890	0	0	0
2019/04/26 20:59:01	BASE	10.94	351	12.96	336	1.5	100	1.5	0	0	980.3	NA	0.0000		9999	850	0	0	0
2019/04/26 21:00:01	BASE	10.72	349	12.86	339	1.5	100	1.5	0	0	980.3	NA	0.0000		9999	820	5120	0	0
2019/04/26 21:01:01	BASE	10.48	348	12.30	350	1.5	100	1.5	0	0	980.3	NA	0.0000		9999	850	4890	0	0
2019/04/26 21:02:01	BASE	10.35	353	12.30	350	1.5	100	1.5	0	0	980.3	NA	0.0000		9999	920	4990	0	0
2019/04/26 21:03:01	BASE	10.72	357	12.30	350	1.5	100	1.5	0	0	980.2	NA	0.0000		9999	790	5320	0	0
2019/04/26 21:04:01	BASE	11.01	353	12.04	355	1.5	100	1.5	0	0	980.2	NA	0.0000		9999	820	4920	0	0
2019/04/26 21:05:01	BASE	10.65	354	12.04	355	1.5	100	1.5	0	0	980.2	NA	0.0000		9999	1050	4860	0	0
2019/04/26 21:06:01	BASE	10.29	351	12.04	355	1.5	100	1.5	0	0	980.2	NA	0.0000		9999	980	4200	0	0
2019/04/26 21:07:01	BASE	9.87	349	12.04	355	1.5	100	1.5	0	0	980.2	NA	0.0000		9999	1280	4430	0	0
2019/04/26 21:08:01	BASE	9.87	349	12.04	355	1.5	100	1.5	0	0	980.2	NA	0.0000		9999	4720	0	0	0
2019/04/26 21:09:01	BASE	10.14	350	12.04	355	1.5	100	1.5	0	0	980.2	NA	0.0000		9999	890	4950	0	0
2019/04/26 21:10:01	BASE	10.06	347	11.99	350	1.5	100	1.5	0	0	980.2	NA	0.0000		9999	920	4890	0	0
2019/04/26 21:11:01	BASE	9.57	345	11.99	350	1.5	100	1.5	0	0	980.2	NA	0.0000		9999	920	5120	0	0
2019/04/26 21:12:01	BASE	9.14	348	11.99	350	1.5	100	1.5	0	0	980.2	NA	0.0000		9999	820	0	0	0
2019/04/26 21:13:01	BASE	9.43	347	11.47	349	1.4	100	1.4	0	0	980.2	NA	0.0000		9999	920	0	0	0
2019/04/26 21:14:01	BASE	9.81	349	11.47	349	1.4	100	1.4	0	0	980.2	NA	0.0000		9999	920	5250	0	0
2019/04/26 21:15:01	BASE	9.54	351	11.47	349	1.4	100	1.4	0	0	980.2	NA	0.0000		9999	980	5280	0	0
2019/04/26 21:16:01	BASE	9.36	350	10.91	348	1.4	100	1.4	0	0	980.2	NA	0.0000		9999	1020	2430	0	0
2019/04/26 21:17:01	BASE	9.56	347	10.91	348	1.4	100	1.4	0	0	980.3	NA	0.0000		9999	1050	2490	0	0
2019/04/26 21:18:01	BASE	9.61	346	10.91	348	1.4	100	1.4	0	0	980.3	NA	0.0000		9999	950	0	0	0
2019/04/26 21:19:01	BASE	9.27	344	10.91	348	1.4	100	1.4	0	0	980.3	NA	0.0000		9999	890	0	0	0
2019/04/26 21:20:01	BASE	8.97	346	10.91	348	1.4	100	1.4	0	0	980.3	NA	0.0000		9999	950	5320	0	0
2019/04/26 21:21:01	BASE	9.14	351	10.91	348	1.5	100	1.5	0	0	980.3	NA	0.0000		9999	950	0	0	0
2019/04/26 21:22:01	BASE	9.47	350	10.96	1	1.5	100	1.5	0	0	980.3	NA	0.0000		9999	920	0	0	0
2019/04/26 21:23:01	BASE	9.57	351	10.96	1	1.5	100	1.5	0	0	980.3	NA	0.0000		9999	920	0	0	0
2019/04/26 21:24:01	BASE	9.55	350	10.96	1	1.5	100	1.5	0	0	980.3	NA	0.0000		9999	980	0	0	0
2019/04/26 21:25:01	BASE	9.61	349	10.96	354	1.5	100	1.5	0	0	980.3	NA	0.0000		9999	980	0	0	0
2019/04/26 21:26:01	BASE	9.82	350	11.57	353	1.5	100	1.5	0	0	980.3	NA	0.0000		9999	980	0	0	0
2019/04/26 21:27:01	BASE	10.14	346	11.57	353	1.5	100	1.5	0	0	980.3	NA	0.0000		9999	950	0	0	0
2019/04/26 21:28:01	BASE	10.99	343	12.71	347	1.5	100	1.5	0	0	980.3	NA	0.0000		9999	980	0	0	0
2019/04/26 21:29:01	BASE	11.48	345	12.71	347	1.5	100	1.5	0	0	980.3	NA	0.0000		9999	950	0	0	0
2019/04/26 21:30:01	BASE	11.34	348	12.71	347	1.5	100	1.5	0	0	980.3	NA	0.0000		9999	950	0	0	0
2019/04/26 21:31:01	BASE	11.10	348	12.71	347	1.5	100	1.5	0	0	980.3	NA	0.0000		9999	950	0	0	0
2019/04/26 21:32:01	BASE	10.32	347	12.71	347	1.5	100	1.5	0	0	980.3	NA	0.0000		9999	790	0	0	0
2019/04/26 21:33:01	BASE	10.16	346	12.71	347	1.5	100	1.5	0	0	980.3	NA	0.0000		9999	820	0	0	0
2019/04/26 21:34:01	BASE	10.31	346	12.71	347	1.5	100	1.5	0	0	980.3	NA	0.0000		9999	790	0	0	0
2019/04/26 21:35:01	BASE	10.61	347	12.71	347	1.5	100	1.5	0	0	980.3	NA	0.0000		9999	790	0	0	0
2019/04/26 21:36:01	BASE	10.79	348	12.71	347	1.5	100	1.5	0	0	980.3	NA	0.0000		9999	750	0	0	0
2019/04/26 21:37:01	BASE	10.11	347	12.71	347	1.5	100	1.5	0	0	980.3	NA	0.0000		9999	790	0	0	0
2019/04/26 21:38:01	BASE	10.12	344	12.35	348	1.5	100	1.5	0	0	980.3	NA	0.0000		9999	750	0	0	0
2019/04/26 21:39:01	BASE	9.57	343	12.35	348	1.5	100	1.5	0	0	980.3	NA	0.0000		9999	720	0	0	0
2019/04/26 21:40:01	BASE	9.28	346	12.04	350	1.5	100	1.5	0	0	980.3	NA	0.0000		9999	690	0	0	0
2019/04/26 21:41:00	BASE	9.76	347	12.04	350	1.5	100	1.5	0	0	980.3	NA	0.0000		9999	720	0	0	0
2019/04/26 21:42:00	BASE	9.67	348	12.04	350	1.5	100	1.5	0	0	980.3	NA	0.0000		9999	750	0	0	0
2019/04/26 21:43:01	BASE	10.13	347	12.04	350	1.5	100	1.5	0	0	980.3	NA	0.0000		9999	790	0	0	0
2019/04/26 21:44:01	BASE	10.97	347	13.27	347	1.5	100	1.5	0	0	980.3	NA	0.0000		9999	690	0	0	0
2019/04/26 21:45:01	BASE	11.57	350	13.27	347	1.5	100	1.5	0	0	980.3	NA	0.0000		9999	850	0	0	0
2019/04/26 21:46:01	BASE	11.30	350	13.27	347	1.5	100	1.5	0	0	980.3	NA	0.0000		9999	750	0	0	0
2019/04/26 21:47:01	BASE	11.07	349	13.27	347	1.5	100	1.5	0	0	980.3	NA	0.0000		9999	660	0	0	0
2019/04/26 21:48:00	BASE	10.88	349	13.27	347	1.5	100	1.5	0	0	980.3	NA	0.0000		9999	660	1250	0	0
2019/04/26 21:49:00	BASE	10.31	354	13.27	347	1.5	100	1.5	0	0	980.3	NA	0.0000		9999	660	2230	0	0
2019/04/26 21:50:01	BASE	10.95	357	13.27	347	1.5	100	1.5	0	0	980.2	NA	0.0000		9999	1380	0	0	0
2019/04/26 21:51:00	BASE	11.95	355	13.58	354	1.5	100	1.5	0	0	980.2	NA	0.0000		9999	2300	0	0	0
2019/04/26 21:52:01	BASE	12.17	351	13.58	354	1.5	100	1.5	0	0	980.2	NA	0.0000		9999	2300	0	0	0
2019/04/26 21:53:00	BASE	11.95	347	13.58	354	1.5	100	1.5	0	0	980.2	NA	0.0000		9999	2360	3410	0	0
2019/04/26 21:54:01	BASE	11.78	343	13.58	354	1.5	100	1.5	0	0	980.2	NA	0.0000		9999	2430	3350	0	0
2019/04/26 21:55:01	BASE	11.55	339	13.58	354	1.5	100	1.5	0	0	980.2	NA	0.0000		9999	2490	0	0	0
2019/04/26 21:56:00	BASE	12.25	348	14.71	360	1.5	100	1.5	0	0	980.1	NA	0.0000		9999	2530	0	0	0
2019/04/26 21:57:00	BASE	12.61	351	14.71	360	1.5	100	1.5	0	0	980.2	NA	0.0000		9999	2560	0	0	0
2019/04/26 21:58:00	BASE	11.97	349	14.71	360	1.5	100	1.5	0	0	980.2	NA	0.0000		9999	2490	0	0	0
2019/04/26 21:59:00	BASE	11.78	354	14.71	360	1.5	100	1.5	0	0	980.2	NA	0.0000		9999	2560	0	0	0
2019/04/26 22:00:00	BASE	11.44	353	14.71	360	1.5	100	1.5	0	0	980.2	NA	0.0000		9999	5050	0	0	0
2019/04/26 22:01:00	BASE	11.29	351	14.71	360	1.5	100	1.5	0	0	980.2	NA	0.0000		9999	2590	0	0	0
2019/04/26 22:02:00	BASE	11.52	350	14.71	360	1.5	100	1.5	0	0	980.2	NA	0.0000		9999	950	2620	0	0
2019/04/26 22:03:30	BASE	11.45	351	14.71	360	1.5	100	1.5	0	0	980.2	NA	0.0000		9999	2590	5250	0	0
2019/04/26 22:04:01	BASE	11.37	346	14.71	360	1.5	100	1.5	0	0	980.2	NA	0.0000		9999	2590	5280	0	0
2019/04/26 22:05:01	BASE	11.32	349	14.71	360	1.4	100	1.4	0	0	980.2	NA	0.0000		9999	5050	0	0	0
2019/04/26 22:06:00	BASE	11.27	351	13.12	346	1.4	100	1.4	0	0	980.2	NA	0.0000		9999	1120	5220	0	0
2019/04/26 22:07:00	BASE	11.48	351	12.91	360	1.4	100	1.4	0	0	980.1	NA	0.0000		9999	5090	0	0	0
2019/04/26 22:08:00	BASE	12.04	349	13.12	345	1.4	100	1.4	0	0	980.1	NA	0.0000		9999	4820	0	0	0
2019/04/26 22:09:00	BASE	12.12	349	13.17	312	1.4	100	1.4	0	0	980.1	NA	0.0000		9999	5120	0	0	0
2019/04/26 22:10:00	BASE	12.23	348	13.38	346	1.4	100	1.4	0	0	980.1	NA	0.0000		9999	5180	0	0	0
2019/04/26 22:11:00	BASE	12.48	348	13.48	353	1.4	100	1.4	0	0	980.0	NA	0.0000		9999	5250	0	0	0
2019/04/26 22:12:00	BASE	12.32	354	13.48	353	1.4	100	1.4	0	0	980.0	NA	0.0000		9999	4430	0	0	0
2019/04/26 22:13:00	BASE	11.78	353	13.48	353	1.4	100	1.4	0	0	980.1	NA	0.0000		9999	950	4990	0	0
2019/04/26 22:14:00	BASE	11.64	351	13.48	353	1.4	100	1.4	0	0	980.0	NA	0.0000		9999	950	5220	0	0
2019/04/26 22:15:00	BASE	12.33	351	13.48	352	1.4	100	1.4	0	0	980.0	NA	0.0000		9999	5250	0	0	0
2019/04/26 22:16:00	BASE	12.88	349	13.99	352	1.4	100	1.4	0	0	979.9	NA	0.0000		9999	0	0	0	2430
2019/04/26 22:17:00	BASE	13.19	349	14.71	352	1.4	100	1.4	0	0	980.0	NA	0.0000		9999	0	0	0	2360
2019/04/26 22:18:00	BASE	12.21	352	14.71	352	1.4	100	1.4	0	0	980.0	NA	0.0000		9999	1180	5180	0	0
2019/04/26 22:19:00	BASE	11.41	355	14.71	352	1.4	100	1.4	0	0	980.0	NA	0.0000		9999	1120	2260	0	0
2019/04/26 22:20:01	BASE	12.07	352	14.71	352	1.4	100	1.4	0	0	980.0	NA	0.0000		9999	0	0	0	2100
2019/04/26 22:21:00	BASE	12.87	351	14.71	352	1.4	100	1.4	0	0	979.9	NA	0.0000		9999	4950	0	0	0
2019/04/26 22:22:00	BASE	13.02	352	14.71	352	1.5	100	1.5	0	0	980.0	NA	0.0000		9999	5150	0	0	0
2019/04/26 22:23:00	BASE	12.36	352	14.71	352	1.4	100	1.4	0	0	980.1	NA	0.0000		9999	5020	0	0	0
2019/04/26 22:24:00	BASE	12.22	350	14.71	352	1.4	100	1.4	0	0	980.1	NA	0.0000		9999	5020	0	0	0
2019/04/26 22:25:00	BASE	12.36	349	14.71	352	1.4	100	1.4	0	0	980.1	NA	0.0000		9999	5050	0	0	0
2019/04/26 22:26:00	BASE	12.47	352	14.71	352	1.4	100	1.4	0	0	980.1	NA	0.0000		9999	1050	2990	0	0
2019/04/26 22:27:00	BASE	12.21	352	14.76	335	1.4	100	1.4	0	0	980.2	NA	0.0000		9999	1150	2360	0	0
2019/04/26 22:28:00	BASE	11.77	350	14.76	335	1.4	100	1.4	0	0	980.2	NA	0.0000		9999	1180	2330	0	0
2019/04/26 22:29:00	BASE	11.78	351	14.76	335	1.4	100	1.4	0	0	980.2	NA	0.0000		9999	1020	2400	0	0
2019/04/26 22:30:00	BASE	12.26	349	14.76	335	1.4	100	1.4	0	0	980.2	NA	0.0000		9999	1150	0	0	0
2019/04/26 22:31:00	BASE	12.36	349	14.76	335	1.4	100	1.4	0	0	980.3	NA	0.0000		9999	1410	2300	0	0
2019/04/26 22:32:00	BASE	12.15	352	14.76	335	1.4	100	1.4	0	0	980.3	NA	0.0000		9999	1150	2330	0	0
2019/04/26 22:33:00	BASE	12.04	351	14.76	335	1.4	100	1.4	0	0	980.3	NA	0.0000		9999	1280	2330	0	0
2019/04/26 22:34:00	BASE	11.42	354	14.76	335	1.4	100	1.4	0	0	980.3	NA	0.0000		9999	1310	2300	0	0
2019/04/26 22:35:00	BASE	11.57	351	15.38	360	1.4	100	1.4	0	0	980.2	NA	0.0000		9999	1120	2330	0	0
2019/04/26 22:36:00	BASE	12.78	349	15.38	360	1.4	100	1.4	0	0	980.2	NA	0.0000		9999	1080	2330	0	0
2019/04/26 22:37:00	BASE	13.51	355	15.38	2	1.4	100	1.4	0	0	980.2	NA	0.0000		9999	1350	2300	0	0
2019/04/26 22:38:00	BASE	13.15	355	15.38	2	1.4	100	1.4	0	0	980.2	NA	0.0000		9999	980	2330	0	0
2019/04/26 22:39:00	BASE	12.81	357	15.38	2	1.4	100	1.4	0	0	980.3	NA	0.0000		9999	950	2400	0	0
2019/04/26 22:40:00	BASE	13.00	354	15.38	2	1.4	100	1.4	0	0	980.2	NA	0.0000		9999	1020	0	0	0
2019/04/26 22:41:00	BASE	12.75	355	15.38	2	1.4	100	1.4	0	0	980.2	NA	0.0000		9999	980	0	0	0
2019/04/26 22:42:00	BASE	12.51	2	15.38	2	1.4	100	1.4	0	0	980.2	NA	0.0000		9999	950	0	0	0
2019/04/26 22:43:00	BASE	13.05	4	15.38	2	1.4	100	1.4	0	0	980.2	NA	0.0000		9999	920	5020	0	0
2019/04/26 22:44:00	BASE	13.35	3	15.38	2	1.4	100	1.4	0	0	980.2	NA	0.0000		9999	1020	0	0	0
2019/04/26 22:45:00	BASE	12.99	357	15.38	2	1.4	100	1.4	0	0	980.3	NA	0.0000		9999	1050	2790	0	0
2019/04/26 22:46:00	BASE	12.67	356	15.38	2	1.4	100	1.4	0	0	980.3	NA	0.0000		9999	980	0	0	0
2019/04/26 22:47:00	BASE	11.65	358	14.25	353	1.4	100	1.4	0	0	980.4	NA	0.0000		9999	1020	0	0	0
2019/04/26 22:48:00	BASE	11.21	0	14.04	2	1.4	100	1.4	0	0	980.4	NA	0.0000		9999	1050	0	0	0
2019/04/26 22:49:00	BASE	12.17	2	14.04	2	1.4	100	1.4	0	0	980.4	NA	0.0000		9999	1020	0	0	0
2019/04/26 22:50:00	BASE	12.19	359	14.04	2	1.5	100	1.5	0	0	980.4	NA	0.0000		9999	950	0	0	0
2019/04/26 22:51:00	BASE	11.30	356	14.04	2	1.5	100	1.5	0	0	980.4	NA	0.0000		9999	920	0	0	0
2019/04/26 22:52:00	BASE	11.25	355	14.04	2	1.5	100	1.5	0	0	980.4	NA	0.0000		9999	980	0	0	0
2019/04/26 22:53:00	BASE	11.35	355	13.89	360	1.5	100	1.5	0	0	980.4	NA	0.0000		9999	1020	0	0	0
2019/04/26 22:54:00	BASE	11.00	351	13.89	360	1.5	100	1.5	0	0	980.4	NA	0.0000		9999	950	0	0	0
2019/04/26 22:55:00	BASE	10.84	348	13.89	360	1.4	100	1.4	0	0	980.4	NA	0.0000		9999	950	2400	0	0
2019/04/26 22:56:00	BASE	10.59	351	13.89	360	1.4	100	1.4	0	0	980.4	NA	0.0000		9999	980	0	0	0
2019/04/26 22:57:01	BASE	10.60	355	13.89	360	1.4	100	1.4	0	0	980.4	NA	0.0000		9999	950	0	0	0
2019/04/26 22:58:01	BASE	11.79	353	14.10	360	1.4	100	1.4	0	0	980.4	NA	0.0000		9999	920	0	0	0
2019/04/26 22:59:00	BASE	12.80	351	14.10	360	1.4	100	1.4	0	0	980.4	NA	0.0000		9999	980	0	0	0
2019/04/26 23:00:01	BASE	12.37	351	14.10	360	1.4	100	1.4	0	0	980.4	NA	0.0000		9999	5180	0	0	0
2019/04/26 23:01:01	BASE	11.70	351	14.10	360	1.4	100	1.4	0	0	980.4	NA	0.0000		9999	1020	0	0	0
2019/04/26 23:02:01	BASE	11.71	349	14.10	360	1.4	100	1.4	0	0	980.4	NA	0.0000		9999	950	2430	0	0
2019/04/26 23:03:01	BASE	11.84	347	14.10	360	1.4	100	1.4	0	0	980.4	NA	0.0000		9999	950	0	0	0
2019/04/26 23:04:01	BASE	12.23	346	14.82	354	1.4	100	1.4	0	0	980.3	NA	0.0000		9999	1050	10140	0	0
2019/04/26 23:05:01	BASE	12.43	345	14.82	354	1.4	100	1.4	0	0	980.3	NA	0.0000		9999	10140	0	0	0
2019/04/26 23:06:01	BASE	11.83	351	14.82	354	1.4	100	1.4	0	0	980.3	NA	0.0000		9999	1250	4270	0	0
2019/04/26 23:07:01	BASE	11.74	357	14.82	354	1.4	100	1.4	0	0	980.3	NA	0.0000		9999	1150	2360	0	0
2019/04/26 23:08:01	BASE	12.37	355	14.82	354	1.3	100	1.3	0	0	980.3	NA	0.0000		9999	3020	0	0	0
2019/04/26 23:09:01	BASE	12.98	351	14.82	354	1.3	100	1.3	0	0	980.3	NA	0.0000		9999	5180	10240	0	0
2019/04/26 23:10:01	BASE	13.32	354	14.92	354	1.3	100	1.3	0	0	980.3	NA	0.0000		9999	1410	2950	0	0
2019/04/26 23:11:01	BASE	13.28	357	14.92	354	1.4	100	1.4	0	0	980.3	NA	0.0000		9999	2760	5450	0	0
2019/04/26 23:12:01	BASE	12.71	353	14.92	354	1.4	100	1.4	0	0	980.3	NA	0.0000		9999	1120	2660	0	0
2019/04/26 23:13:01	BASE	12.46	350	14.92	354	1.4	100	1.4	0	0	980.3	NA	0.0000		9999	1150	5320	0	0
2019/04/26 23:14:01	BASE	12.50	353	14.92	354	1.4	100	1.4	0	0	980.3	NA	0.0000		9999	1120	2920	0	0
2019/04/26 23:15:00	BASE	12.65	357	14.92	354	1.4	100	1.4	0	0	980.3	NA	0.0000		9999	1250	2690	0	0
2019/04/26 23:16:01	BASE	12.89	0	14.92	354	1.4	100	1.4	0	0	980.3	NA	0.0000		9999	10660	0	0	0
2019/04/26 23:17:01	BASE	12.79	358	14.92	354	1.4	100	1.4	0	0	980.3	NA	0.0000		9999	6170	10790	0	0
2019/04/26 23:18:01	BASE	12.99	354	14.92	354	1.4	100	1.4	0	0	980.3	NA	0.0000		9999	5680	0	0	0
2019/04/26 23:19:01	BASE	13.63	360	14.92	354	1.3	100	1.3	0	0	980.3	NA	0.0000		9999	5280	0	0	0
2019/04/26 23:20:00	BASE	13.41	4	14.71	6	1.3	100	1.3	0	0	980.3	NA	0.0000		9999	5250	0	0	0
2019/04/26 23:21:00	BASE	13.26	5	14.92	5	1.3	100	1.3	0	0	980.3	NA	0.0000		9999	5020	0	0	0
2019/04/26 23:22:01	BASE	14.03	5	15.48	3	1.3	100	1.3	0	0	980.3	NA	0.0000		9999	2590	5120	0	0
2019/04/26 23:23:00	BASE	14.30	4	15.48	3	1.3	100	1.3	0	0	980.3	NA	0.0000		9999	2360	0	0	0
2019/04/26 23:24:01	BASE	14.26	3	15.48	3	1.3	100	1.3	0	0	980.3	NA	0.0000		9999	2330	0	0	0
2019/04/26 23:25:00	BASE	14.11	360	15.48	3	1.3	100	1.3	0	0	980.3	NA	0.0000		9999	490	0	0	0
2019/04/26 23:26:00	BASE	13.58	2	15.48	3	1.3	100	1.3	0	0	980.3	NA	0.0000		9999	360	2300	0	0
2019/04/26 23:27:00	BASE	13.18	7	15.48	3	1.3	100	1.3	0	0	980.3	NA	0.0000	UP	9999	360	0	0	0
2019/04/26 23:28:01	BASE	13.02	8	15.48	3	1.3	100	1.3	0	0	980.4	NA	0.0000	UP	9999	330	0	0	0
2019/04/26 23:29:00	BASE	13.58	8	15.48	3	1.3	100	1.3	0	0	980.3	NA	0.0000	UP	9999	330	2720	0	0
2019/04/26 23:30:01	BASE	13.86	7	15.48	3	1.3	100	1.3	0	0	980.3	NA	0.0000	UP	9999	300	2590	0	0
2019/04/26 23:31:00	BASE	13.77	7	15.48	3	1.3	100	1.3	0	0	980.3	NA	0.2540	UP	9999	360	0	0	0
2019/04/26 23:32:00	BASE	14.18	8	15.18	8	1.3	100	1.3	0	0	980.4	NA	0.0000	UP	9999	2590	0	0	0
2019/04/26 23:33:01	BASE	14.52	8	15.79	6	1.3	100	1.3	0	0	980.3	NA	0.0000	UP	9999	2620	0	0	0
2019/04/26 23:34:00	BASE	14.66	8	15.90	11	1.3	100	1.3	0	0	980.3	NA	0.0000	UP	9999	2620	0	0	0
2019/04/26 23:35:00	BASE	15.16	4	17.85	360	1.4	100	1.4	0	0	980.3	NA	0.0000	UP	9999	2690	0	0	0
2019/04/26 23:36:01	BASE	13.53	358	17.85	360	1.4	100	1.4	0	0	980.4	NA	0.0000	UP	9999	2690	0	0	0
2019/04/26 23:37:00	BASE	11.60	353	17.85	360	1.4	100	1.4	0	0	980.4	NA	0.0000	UP	9999	2760	3580	0	0
2019/04/26 23:38:00	BASE	11.34	350	17.85	360	1.4	100	1.4	0	0	980.4	NA	0.0000	UP	9999	2920	0	0	0
2019/04/26 23:39:02	BASE	11.51	356	17.85	360	1.4	100	1.4	0	0	980.4	NA	0.0000	UP	9999	2850	0	0	0
2019/04/26 23:40:01	BASE	12.59	2	17.85	360	1.4	100	1.4	0	0	980.3	NA	0.0000	UP	9999	2790	0	0	0
2019/04/26 23:41:00	BASE	13.77	355	17.85	360	1.4	100	1.4	0	0	980.3	NA	0.0000		9999	1350	5480	0	0
2019/04/26 23:42:00	BASE	13.89	358	17.85	360	1.4	100	1.4	0	0	980.3	NA	0.0000		9999	1380	2890	0	0
2019/04/26 23:43:01	BASE	13.85	6	17.85	360	1.4	100	1.4	0	0	980.2	NA	0.0000		9999	2890	0	0	0
2019/04/26 23:44:01	BASE	15.07	5	17.85	360	1.4	100	1.4	0	0	980.2	NA	0.0000		9999	2890	0	0	0
2019/04/26 23:45:01	BASE	14.58	0	16.77	4	1.4	100	1.4	0	0	980.3	NA	0.0000		9999	1310	5050	0	0
2019/04/26 23:46:00	BASE	12.90	355	16.77	4	1.4	100	1.4	0	0	980.3	NA	0.0000		9999	1350	3080	0	0
2019/04/26 23:47:00	BASE	12.20	358	16.77	4	1.5	100	1.5	0	0	980.3	NA	0.0000		9999	3050	5910	0	0
2019/04/26 23:48:00	BASE	13.02	3	16.77	4	1.5	100	1.5	0	0	980.2	NA	0.0000		9999	3020	0	0	0
2019/04/26 23:49:00	BASE	14.13	2	16.77	4	1.5	100	1.5	0	0	980.3	NA	0.0000		9999	5350	0	0	0
2019/04/26 23:50:01	BASE	13.66	357	16.77	4	1.5	100	1.5	0	0	980.3	NA	0.0000		9999	3020	0	0	0
2019/04/26 23:51:00	BASE	12.51	357	16.77	4	1.5	100	1.5	0	0	980.3	NA	0.0000		9999	3120	5150	0	0
2019/04/26 23:52:00	BASE	12.12	356	16.77	4	1.5	100	1.5	0	0	980.3	NA	0.0000		9999	1310	3220	0	0
2019/04/26 23:53:00	BASE	12.27	349	16.77	4	1.5	100	1.5	0	0	980.3	NA	0.0000		9999	5480	0	0	0
2019/04/26 23:54:00	BASE	12.48	348	15.38	7	1.5	100	1.5	0	0	980.3	NA	0.0000		9999	1380	5480	0	0
2019/04/26 23:55:00	BASE	12.46	349	15.38	7	1.5	100	1.5	0	0	980.4	NA	0.0000		9999	5450	0	0	0
2019/04/26 23:56:01	BASE	12.09	350	15.38	7	1.5	100	1.5	0	0	980.4	NA	0.0000		9999	3410	0	0	0
2019/04/26 23:57:01	BASE	11.70	346	15.38	7	1.5	100	1.5	0	0	980.4	NA	0.0000		9999	2990	0	0	0
2019/04/26 23:58:00	BASE	11.46	345	15.38	7	1.5	100	1.5	0	0	980.3	NA	0.0000		9999	3410	5380	0	0
2019/04/26 23:59:00	BASE	11.44	350	14.71	352	1.5	100	1.5	0	0	980.4	NA	0.0000		9999	4920	0	0	0